<?xml version="1.0" encoding="UTF-8" standalone="no" ?>
<gpx xmlns="http://www.topografix.com/GPX/1/1" xmlns:xsi="http://www.w3.org/2001/XMLSchema-instance" xsi:schemaLocation="http://www.topografix.com/GPX/1/1 http://www.topografix.com/GPX/1/1/gpx.xsd" version="1.1" creator="VisuGPX - https://www.visugpx.com">
  <metadata>
    <name>Les crêtes des Monges</name>
    <desc><![CDATA[tour des monges par les crêtes]]></desc>
  </metadata>
  <trk>
    <name><![CDATA[CRETE DES MONGES MAI13]]></name>
    <trkseg>
      <trkpt lat="44.2494" lon="6.14263">
        <ele>1193.61</ele>
        <time>2013-05-09T08:12:58Z</time>
      </trkpt>
      <trkpt lat="44.24942" lon="6.14275">
        <ele>1196.98</ele>
        <time>2013-05-09T08:13:07Z</time>
      </trkpt>
      <trkpt lat="44.24943" lon="6.14281">
        <ele>1199.86</ele>
        <time>2013-05-09T08:13:12Z</time>
      </trkpt>
      <trkpt lat="44.24944" lon="6.14284">
        <ele>1201.79</ele>
        <time>2013-05-09T08:13:16Z</time>
      </trkpt>
      <trkpt lat="44.24945" lon="6.14289">
        <ele>1204.19</ele>
        <time>2013-05-09T08:13:21Z</time>
      </trkpt>
      <trkpt lat="44.24945" lon="6.14299">
        <ele>1207.07</ele>
        <time>2013-05-09T08:13:28Z</time>
      </trkpt>
      <trkpt lat="44.24945" lon="6.14312">
        <ele>1209</ele>
        <time>2013-05-09T08:13:40Z</time>
      </trkpt>
      <trkpt lat="44.24943" lon="6.14321">
        <ele>1211.88</ele>
        <time>2013-05-09T08:13:54Z</time>
      </trkpt>
      <trkpt lat="44.24944" lon="6.1433">
        <ele>1213.32</ele>
        <time>2013-05-09T08:14:00Z</time>
      </trkpt>
      <trkpt lat="44.24944" lon="6.1435">
        <ele>1212.84</ele>
        <time>2013-05-09T08:14:13Z</time>
      </trkpt>
      <trkpt lat="44.24943" lon="6.14354">
        <ele>1212.84</ele>
        <time>2013-05-09T08:14:16Z</time>
      </trkpt>
      <trkpt lat="44.24941" lon="6.1437">
        <ele>1214.28</ele>
        <time>2013-05-09T08:14:28Z</time>
      </trkpt>
      <trkpt lat="44.24935" lon="6.14402">
        <ele>1214.76</ele>
        <time>2013-05-09T08:14:45Z</time>
      </trkpt>
      <trkpt lat="44.24934" lon="6.14425">
        <ele>1214.76</ele>
        <time>2013-05-09T08:14:59Z</time>
      </trkpt>
      <trkpt lat="44.24931" lon="6.1445">
        <ele>1218.13</ele>
        <time>2013-05-09T08:15:16Z</time>
      </trkpt>
      <trkpt lat="44.2492" lon="6.14468">
        <ele>1216.21</ele>
        <time>2013-05-09T08:15:31Z</time>
      </trkpt>
      <trkpt lat="44.24915" lon="6.14473">
        <ele>1211.4</ele>
        <time>2013-05-09T08:15:37Z</time>
      </trkpt>
      <trkpt lat="44.24915" lon="6.14473">
        <ele>1215.24</ele>
        <time>2013-05-09T08:15:38Z</time>
      </trkpt>
      <trkpt lat="44.24914" lon="6.14474">
        <ele>1211.88</ele>
        <time>2013-05-09T08:15:43Z</time>
      </trkpt>
      <trkpt lat="44.24914" lon="6.14474">
        <ele>1221.97</ele>
        <time>2013-05-09T08:15:44Z</time>
      </trkpt>
      <trkpt lat="44.24914" lon="6.14475">
        <ele>1216.21</ele>
        <time>2013-05-09T08:15:45Z</time>
      </trkpt>
      <trkpt lat="44.2491" lon="6.14485">
        <ele>1214.76</ele>
        <time>2013-05-09T08:16:01Z</time>
      </trkpt>
      <trkpt lat="44.2491" lon="6.1449">
        <ele>1216.21</ele>
        <time>2013-05-09T08:16:16Z</time>
      </trkpt>
      <trkpt lat="44.24923" lon="6.14489">
        <ele>1215.72</ele>
        <time>2013-05-09T08:16:48Z</time>
      </trkpt>
      <trkpt lat="44.24922" lon="6.14488">
        <ele>1215.72</ele>
        <time>2013-05-09T08:17:11Z</time>
      </trkpt>
      <trkpt lat="44.24922" lon="6.14488">
        <ele>1215.72</ele>
        <time>2013-05-09T08:17:32Z</time>
      </trkpt>
      <trkpt lat="44.24913" lon="6.14481">
        <ele>1215.72</ele>
        <time>2013-05-09T08:17:52Z</time>
      </trkpt>
      <trkpt lat="44.24911" lon="6.14484">
        <ele>1216.21</ele>
        <time>2013-05-09T08:18:19Z</time>
      </trkpt>
      <trkpt lat="44.24913" lon="6.14498">
        <ele>1216.21</ele>
        <time>2013-05-09T08:18:51Z</time>
      </trkpt>
      <trkpt lat="44.24912" lon="6.14492">
        <ele>1216.21</ele>
        <time>2013-05-09T08:19:23Z</time>
      </trkpt>
      <trkpt lat="44.24911" lon="6.14488">
        <ele>1216.21</ele>
        <time>2013-05-09T08:20:03Z</time>
      </trkpt>
      <trkpt lat="44.24909" lon="6.14481">
        <ele>1216.69</ele>
        <time>2013-05-09T08:20:42Z</time>
      </trkpt>
      <trkpt lat="44.24918" lon="6.14479">
        <ele>1217.17</ele>
        <time>2013-05-09T08:21:07Z</time>
      </trkpt>
      <trkpt lat="44.24911" lon="6.14494">
        <ele>1217.17</ele>
        <time>2013-05-09T08:21:39Z</time>
      </trkpt>
      <trkpt lat="44.24905" lon="6.14492">
        <ele>1218.13</ele>
        <time>2013-05-09T08:22:03Z</time>
      </trkpt>
      <trkpt lat="44.24904" lon="6.145">
        <ele>1219.57</ele>
        <time>2013-05-09T08:22:24Z</time>
      </trkpt>
      <trkpt lat="44.24911" lon="6.1451">
        <ele>1219.09</ele>
        <time>2013-05-09T08:22:43Z</time>
      </trkpt>
      <trkpt lat="44.2492" lon="6.14527">
        <ele>1220.53</ele>
        <time>2013-05-09T08:23:01Z</time>
      </trkpt>
      <trkpt lat="44.24926" lon="6.14542">
        <ele>1221.01</ele>
        <time>2013-05-09T08:23:16Z</time>
      </trkpt>
      <trkpt lat="44.24932" lon="6.14559">
        <ele>1221.97</ele>
        <time>2013-05-09T08:23:29Z</time>
      </trkpt>
      <trkpt lat="44.24941" lon="6.14571">
        <ele>1222.93</ele>
        <time>2013-05-09T08:23:43Z</time>
      </trkpt>
      <trkpt lat="44.24943" lon="6.1458">
        <ele>1223.42</ele>
        <time>2013-05-09T08:23:53Z</time>
      </trkpt>
      <trkpt lat="44.24948" lon="6.14597">
        <ele>1227.26</ele>
        <time>2013-05-09T08:24:08Z</time>
      </trkpt>
      <trkpt lat="44.24951" lon="6.14605">
        <ele>1229.18</ele>
        <time>2013-05-09T08:24:19Z</time>
      </trkpt>
      <trkpt lat="44.24952" lon="6.14622">
        <ele>1232.07</ele>
        <time>2013-05-09T08:24:35Z</time>
      </trkpt>
      <trkpt lat="44.24948" lon="6.14634">
        <ele>1235.43</ele>
        <time>2013-05-09T08:24:53Z</time>
      </trkpt>
      <trkpt lat="44.24942" lon="6.14644">
        <ele>1237.83</ele>
        <time>2013-05-09T08:25:12Z</time>
      </trkpt>
      <trkpt lat="44.24937" lon="6.14637">
        <ele>1241.2</ele>
        <time>2013-05-09T08:25:31Z</time>
      </trkpt>
      <trkpt lat="44.24936" lon="6.14633">
        <ele>1241.68</ele>
        <time>2013-05-09T08:25:50Z</time>
      </trkpt>
      <trkpt lat="44.24934" lon="6.14631">
        <ele>1242.16</ele>
        <time>2013-05-09T08:26:20Z</time>
      </trkpt>
      <trkpt lat="44.2492" lon="6.14628">
        <ele>1243.12</ele>
        <time>2013-05-09T08:26:36Z</time>
      </trkpt>
      <trkpt lat="44.24911" lon="6.14629">
        <ele>1246.01</ele>
        <time>2013-05-09T08:26:46Z</time>
      </trkpt>
      <trkpt lat="44.24917" lon="6.14638">
        <ele>1248.41</ele>
        <time>2013-05-09T08:27:01Z</time>
      </trkpt>
      <trkpt lat="44.24917" lon="6.14657">
        <ele>1250.81</ele>
        <time>2013-05-09T08:27:18Z</time>
      </trkpt>
      <trkpt lat="44.24917" lon="6.14673">
        <ele>1251.77</ele>
        <time>2013-05-09T08:27:33Z</time>
      </trkpt>
      <trkpt lat="44.24917" lon="6.14691">
        <ele>1255.62</ele>
        <time>2013-05-09T08:27:50Z</time>
      </trkpt>
      <trkpt lat="44.24927" lon="6.14692">
        <ele>1256.1</ele>
        <time>2013-05-09T08:28:07Z</time>
      </trkpt>
      <trkpt lat="44.24921" lon="6.14688">
        <ele>1256.1</ele>
        <time>2013-05-09T08:28:48Z</time>
      </trkpt>
      <trkpt lat="44.24928" lon="6.14693">
        <ele>1256.1</ele>
        <time>2013-05-09T08:29:30Z</time>
      </trkpt>
      <trkpt lat="44.24925" lon="6.14689">
        <ele>1255.62</ele>
        <time>2013-05-09T08:30:02Z</time>
      </trkpt>
      <trkpt lat="44.24923" lon="6.14704">
        <ele>1258.98</ele>
        <time>2013-05-09T08:30:14Z</time>
      </trkpt>
      <trkpt lat="44.24914" lon="6.14712">
        <ele>1260.91</ele>
        <time>2013-05-09T08:30:30Z</time>
      </trkpt>
      <trkpt lat="44.24909" lon="6.14723">
        <ele>1265.23</ele>
        <time>2013-05-09T08:30:47Z</time>
      </trkpt>
      <trkpt lat="44.24917" lon="6.1473">
        <ele>1266.19</ele>
        <time>2013-05-09T08:31:06Z</time>
      </trkpt>
      <trkpt lat="44.2492" lon="6.14741">
        <ele>1270.04</ele>
        <time>2013-05-09T08:31:18Z</time>
      </trkpt>
      <trkpt lat="44.24913" lon="6.14755">
        <ele>1270.52</ele>
        <time>2013-05-09T08:31:35Z</time>
      </trkpt>
      <trkpt lat="44.24913" lon="6.14763">
        <ele>1273.88</ele>
        <time>2013-05-09T08:31:42Z</time>
      </trkpt>
      <trkpt lat="44.24911" lon="6.14778">
        <ele>1275.33</ele>
        <time>2013-05-09T08:32:01Z</time>
      </trkpt>
      <trkpt lat="44.24908" lon="6.14792">
        <ele>1276.29</ele>
        <time>2013-05-09T08:32:17Z</time>
      </trkpt>
      <trkpt lat="44.24904" lon="6.14803">
        <ele>1279.17</ele>
        <time>2013-05-09T08:32:27Z</time>
      </trkpt>
      <trkpt lat="44.24897" lon="6.1481">
        <ele>1281.09</ele>
        <time>2013-05-09T08:32:45Z</time>
      </trkpt>
      <trkpt lat="44.24897" lon="6.14827">
        <ele>1283.98</ele>
        <time>2013-05-09T08:32:59Z</time>
      </trkpt>
      <trkpt lat="44.24897" lon="6.14837">
        <ele>1285.9</ele>
        <time>2013-05-09T08:33:17Z</time>
      </trkpt>
      <trkpt lat="44.24906" lon="6.14844">
        <ele>1289.75</ele>
        <time>2013-05-09T08:33:32Z</time>
      </trkpt>
      <trkpt lat="44.24905" lon="6.14864">
        <ele>1289.75</ele>
        <time>2013-05-09T08:33:49Z</time>
      </trkpt>
      <trkpt lat="44.24908" lon="6.14883">
        <ele>1292.15</ele>
        <time>2013-05-09T08:34:05Z</time>
      </trkpt>
      <trkpt lat="44.24913" lon="6.14895">
        <ele>1295.03</ele>
        <time>2013-05-09T08:34:23Z</time>
      </trkpt>
      <trkpt lat="44.24916" lon="6.14907">
        <ele>1298.88</ele>
        <time>2013-05-09T08:34:42Z</time>
      </trkpt>
      <trkpt lat="44.24922" lon="6.14927">
        <ele>1300.32</ele>
        <time>2013-05-09T08:35:06Z</time>
      </trkpt>
      <trkpt lat="44.24927" lon="6.14937">
        <ele>1303.69</ele>
        <time>2013-05-09T08:35:20Z</time>
      </trkpt>
      <trkpt lat="44.24931" lon="6.14956">
        <ele>1304.65</ele>
        <time>2013-05-09T08:35:36Z</time>
      </trkpt>
      <trkpt lat="44.24933" lon="6.14974">
        <ele>1306.57</ele>
        <time>2013-05-09T08:35:55Z</time>
      </trkpt>
      <trkpt lat="44.24931" lon="6.14992">
        <ele>1309.45</ele>
        <time>2013-05-09T08:36:12Z</time>
      </trkpt>
      <trkpt lat="44.24929" lon="6.15007">
        <ele>1311.38</ele>
        <time>2013-05-09T08:36:28Z</time>
      </trkpt>
      <trkpt lat="44.24925" lon="6.15017">
        <ele>1314.74</ele>
        <time>2013-05-09T08:36:45Z</time>
      </trkpt>
      <trkpt lat="44.24922" lon="6.15029">
        <ele>1316.18</ele>
        <time>2013-05-09T08:37:05Z</time>
      </trkpt>
      <trkpt lat="44.2492" lon="6.15038">
        <ele>1319.55</ele>
        <time>2013-05-09T08:37:15Z</time>
      </trkpt>
      <trkpt lat="44.2492" lon="6.15059">
        <ele>1320.99</ele>
        <time>2013-05-09T08:37:36Z</time>
      </trkpt>
      <trkpt lat="44.2492" lon="6.15063">
        <ele>1321.47</ele>
        <time>2013-05-09T08:38:01Z</time>
      </trkpt>
      <trkpt lat="44.24917" lon="6.15058">
        <ele>1321.95</ele>
        <time>2013-05-09T08:38:34Z</time>
      </trkpt>
      <trkpt lat="44.2492" lon="6.15053">
        <ele>1321.95</ele>
        <time>2013-05-09T08:39:13Z</time>
      </trkpt>
      <trkpt lat="44.24921" lon="6.15076">
        <ele>1323.39</ele>
        <time>2013-05-09T08:39:36Z</time>
      </trkpt>
      <trkpt lat="44.2492" lon="6.15081">
        <ele>1326.76</ele>
        <time>2013-05-09T08:39:44Z</time>
      </trkpt>
      <trkpt lat="44.24916" lon="6.15102">
        <ele>1330.12</ele>
        <time>2013-05-09T08:40:03Z</time>
      </trkpt>
      <trkpt lat="44.24913" lon="6.15118">
        <ele>1333.01</ele>
        <time>2013-05-09T08:40:23Z</time>
      </trkpt>
      <trkpt lat="44.24915" lon="6.15143">
        <ele>1336.85</ele>
        <time>2013-05-09T08:40:43Z</time>
      </trkpt>
      <trkpt lat="44.24917" lon="6.15167">
        <ele>1338.77</ele>
        <time>2013-05-09T08:41:03Z</time>
      </trkpt>
      <trkpt lat="44.24919" lon="6.15186">
        <ele>1340.7</ele>
        <time>2013-05-09T08:41:20Z</time>
      </trkpt>
      <trkpt lat="44.24918" lon="6.15206">
        <ele>1343.58</ele>
        <time>2013-05-09T08:41:35Z</time>
      </trkpt>
      <trkpt lat="44.24919" lon="6.15227">
        <ele>1346.94</ele>
        <time>2013-05-09T08:41:56Z</time>
      </trkpt>
      <trkpt lat="44.24912" lon="6.15247">
        <ele>1347.91</ele>
        <time>2013-05-09T08:42:13Z</time>
      </trkpt>
      <trkpt lat="44.24909" lon="6.15264">
        <ele>1351.27</ele>
        <time>2013-05-09T08:42:28Z</time>
      </trkpt>
      <trkpt lat="44.24905" lon="6.15279">
        <ele>1353.19</ele>
        <time>2013-05-09T08:42:46Z</time>
      </trkpt>
      <trkpt lat="44.24904" lon="6.153">
        <ele>1355.6</ele>
        <time>2013-05-09T08:43:03Z</time>
      </trkpt>
      <trkpt lat="44.24907" lon="6.15313">
        <ele>1358</ele>
        <time>2013-05-09T08:43:17Z</time>
      </trkpt>
      <trkpt lat="44.24915" lon="6.15328">
        <ele>1360.4</ele>
        <time>2013-05-09T08:43:34Z</time>
      </trkpt>
      <trkpt lat="44.24908" lon="6.1534">
        <ele>1363.77</ele>
        <time>2013-05-09T08:43:49Z</time>
      </trkpt>
      <trkpt lat="44.24896" lon="6.1534">
        <ele>1367.61</ele>
        <time>2013-05-09T08:44:10Z</time>
      </trkpt>
      <trkpt lat="44.24879" lon="6.15338">
        <ele>1370.02</ele>
        <time>2013-05-09T08:44:28Z</time>
      </trkpt>
      <trkpt lat="44.24869" lon="6.15339">
        <ele>1371.94</ele>
        <time>2013-05-09T08:44:44Z</time>
      </trkpt>
      <trkpt lat="44.24868" lon="6.15339">
        <ele>1373.38</ele>
        <time>2013-05-09T08:44:46Z</time>
      </trkpt>
      <trkpt lat="44.24861" lon="6.15343">
        <ele>1375.3</ele>
        <time>2013-05-09T08:45:02Z</time>
      </trkpt>
      <trkpt lat="44.24855" lon="6.15343">
        <ele>1378.67</ele>
        <time>2013-05-09T08:45:12Z</time>
      </trkpt>
      <trkpt lat="44.24848" lon="6.15334">
        <ele>1381.55</ele>
        <time>2013-05-09T08:45:29Z</time>
      </trkpt>
      <trkpt lat="44.24843" lon="6.15321">
        <ele>1384.44</ele>
        <time>2013-05-09T08:45:47Z</time>
      </trkpt>
      <trkpt lat="44.24835" lon="6.15308">
        <ele>1387.32</ele>
        <time>2013-05-09T08:46:05Z</time>
      </trkpt>
      <trkpt lat="44.24823" lon="6.15298">
        <ele>1389.72</ele>
        <time>2013-05-09T08:46:21Z</time>
      </trkpt>
      <trkpt lat="44.24817" lon="6.15292">
        <ele>1392.61</ele>
        <time>2013-05-09T08:46:34Z</time>
      </trkpt>
      <trkpt lat="44.24807" lon="6.15283">
        <ele>1395.01</ele>
        <time>2013-05-09T08:46:51Z</time>
      </trkpt>
      <trkpt lat="44.24799" lon="6.15277">
        <ele>1398.86</ele>
        <time>2013-05-09T08:47:03Z</time>
      </trkpt>
      <trkpt lat="44.24794" lon="6.15269">
        <ele>1399.34</ele>
        <time>2013-05-09T08:47:18Z</time>
      </trkpt>
      <trkpt lat="44.24793" lon="6.15274">
        <ele>1402.22</ele>
        <time>2013-05-09T08:47:26Z</time>
      </trkpt>
      <trkpt lat="44.2479" lon="6.15278">
        <ele>1403.66</ele>
        <time>2013-05-09T08:47:44Z</time>
      </trkpt>
      <trkpt lat="44.24789" lon="6.1527">
        <ele>1407.03</ele>
        <time>2013-05-09T08:47:54Z</time>
      </trkpt>
      <trkpt lat="44.24783" lon="6.15256">
        <ele>1408.95</ele>
        <time>2013-05-09T08:48:12Z</time>
      </trkpt>
      <trkpt lat="44.24776" lon="6.15246">
        <ele>1411.35</ele>
        <time>2013-05-09T08:48:25Z</time>
      </trkpt>
      <trkpt lat="44.2477" lon="6.15236">
        <ele>1414.72</ele>
        <time>2013-05-09T08:48:39Z</time>
      </trkpt>
      <trkpt lat="44.24765" lon="6.15226">
        <ele>1416.64</ele>
        <time>2013-05-09T08:48:55Z</time>
      </trkpt>
      <trkpt lat="44.24759" lon="6.15216">
        <ele>1420.97</ele>
        <time>2013-05-09T08:49:11Z</time>
      </trkpt>
      <trkpt lat="44.24755" lon="6.15205">
        <ele>1421.93</ele>
        <time>2013-05-09T08:49:25Z</time>
      </trkpt>
      <trkpt lat="44.2475" lon="6.15196">
        <ele>1425.29</ele>
        <time>2013-05-09T08:49:38Z</time>
      </trkpt>
      <trkpt lat="44.24744" lon="6.15183">
        <ele>1427.7</ele>
        <time>2013-05-09T08:49:52Z</time>
      </trkpt>
      <trkpt lat="44.24739" lon="6.15175">
        <ele>1430.1</ele>
        <time>2013-05-09T08:50:08Z</time>
      </trkpt>
      <trkpt lat="44.24735" lon="6.15166">
        <ele>1432.98</ele>
        <time>2013-05-09T08:50:23Z</time>
      </trkpt>
      <trkpt lat="44.24733" lon="6.15154">
        <ele>1435.87</ele>
        <time>2013-05-09T08:50:39Z</time>
      </trkpt>
      <trkpt lat="44.24731" lon="6.1514">
        <ele>1437.31</ele>
        <time>2013-05-09T08:50:53Z</time>
      </trkpt>
      <trkpt lat="44.24727" lon="6.15121">
        <ele>1439.71</ele>
        <time>2013-05-09T08:51:11Z</time>
      </trkpt>
      <trkpt lat="44.24727" lon="6.15116">
        <ele>1439.71</ele>
        <time>2013-05-09T08:51:26Z</time>
      </trkpt>
      <trkpt lat="44.2473" lon="6.15115">
        <ele>1439.71</ele>
        <time>2013-05-09T08:52:07Z</time>
      </trkpt>
      <trkpt lat="44.24731" lon="6.15117">
        <ele>1439.71</ele>
        <time>2013-05-09T08:52:36Z</time>
      </trkpt>
      <trkpt lat="44.24725" lon="6.15116">
        <ele>1439.23</ele>
        <time>2013-05-09T08:53:18Z</time>
      </trkpt>
      <trkpt lat="44.24724" lon="6.15117">
        <ele>1439.71</ele>
        <time>2013-05-09T08:53:49Z</time>
      </trkpt>
      <trkpt lat="44.24724" lon="6.15117">
        <ele>1439.71</ele>
        <time>2013-05-09T08:54:26Z</time>
      </trkpt>
      <trkpt lat="44.2472" lon="6.15119">
        <ele>1439.71</ele>
        <time>2013-05-09T08:55:04Z</time>
      </trkpt>
      <trkpt lat="44.24723" lon="6.15115">
        <ele>1439.71</ele>
        <time>2013-05-09T08:55:34Z</time>
      </trkpt>
      <trkpt lat="44.24718" lon="6.15112">
        <ele>1439.71</ele>
        <time>2013-05-09T08:56:06Z</time>
      </trkpt>
      <trkpt lat="44.24726" lon="6.15117">
        <ele>1439.71</ele>
        <time>2013-05-09T08:56:38Z</time>
      </trkpt>
      <trkpt lat="44.24723" lon="6.15105">
        <ele>1441.63</ele>
        <time>2013-05-09T08:56:59Z</time>
      </trkpt>
      <trkpt lat="44.24721" lon="6.1512">
        <ele>1442.6</ele>
        <time>2013-05-09T08:57:17Z</time>
      </trkpt>
      <trkpt lat="44.24717" lon="6.15113">
        <ele>1445</ele>
        <time>2013-05-09T08:57:36Z</time>
      </trkpt>
      <trkpt lat="44.24712" lon="6.15094">
        <ele>1446.92</ele>
        <time>2013-05-09T08:57:56Z</time>
      </trkpt>
      <trkpt lat="44.24699" lon="6.15087">
        <ele>1450.29</ele>
        <time>2013-05-09T08:58:12Z</time>
      </trkpt>
      <trkpt lat="44.24686" lon="6.15081">
        <ele>1451.73</ele>
        <time>2013-05-09T08:58:32Z</time>
      </trkpt>
      <trkpt lat="44.24679" lon="6.15072">
        <ele>1455.57</ele>
        <time>2013-05-09T08:58:51Z</time>
      </trkpt>
      <trkpt lat="44.2467" lon="6.15072">
        <ele>1458.94</ele>
        <time>2013-05-09T08:59:07Z</time>
      </trkpt>
      <trkpt lat="44.24658" lon="6.15078">
        <ele>1461.34</ele>
        <time>2013-05-09T08:59:27Z</time>
      </trkpt>
      <trkpt lat="44.24651" lon="6.15078">
        <ele>1463.74</ele>
        <time>2013-05-09T08:59:43Z</time>
      </trkpt>
      <trkpt lat="44.24636" lon="6.15082">
        <ele>1464.23</ele>
        <time>2013-05-09T09:00:02Z</time>
      </trkpt>
      <trkpt lat="44.24633" lon="6.15103">
        <ele>1466.15</ele>
        <time>2013-05-09T09:00:19Z</time>
      </trkpt>
      <trkpt lat="44.24633" lon="6.15123">
        <ele>1466.15</ele>
        <time>2013-05-09T09:00:35Z</time>
      </trkpt>
      <trkpt lat="44.24634" lon="6.15142">
        <ele>1467.59</ele>
        <time>2013-05-09T09:00:52Z</time>
      </trkpt>
      <trkpt lat="44.2464" lon="6.15157">
        <ele>1471.44</ele>
        <time>2013-05-09T09:01:08Z</time>
      </trkpt>
      <trkpt lat="44.24639" lon="6.15171">
        <ele>1473.84</ele>
        <time>2013-05-09T09:01:27Z</time>
      </trkpt>
      <trkpt lat="44.24646" lon="6.15184">
        <ele>1475.28</ele>
        <time>2013-05-09T09:01:44Z</time>
      </trkpt>
      <trkpt lat="44.24661" lon="6.15201">
        <ele>1476.24</ele>
        <time>2013-05-09T09:02:04Z</time>
      </trkpt>
      <trkpt lat="44.24656" lon="6.1521">
        <ele>1478.65</ele>
        <time>2013-05-09T09:02:22Z</time>
      </trkpt>
      <trkpt lat="44.24655" lon="6.15207">
        <ele>1478.65</ele>
        <time>2013-05-09T09:02:52Z</time>
      </trkpt>
      <trkpt lat="44.24657" lon="6.15208">
        <ele>1479.13</ele>
        <time>2013-05-09T09:03:19Z</time>
      </trkpt>
      <trkpt lat="44.24653" lon="6.15223">
        <ele>1482.01</ele>
        <time>2013-05-09T09:03:42Z</time>
      </trkpt>
      <trkpt lat="44.24649" lon="6.1523">
        <ele>1482.97</ele>
        <time>2013-05-09T09:04:02Z</time>
      </trkpt>
      <trkpt lat="44.24645" lon="6.15235">
        <ele>1486.34</ele>
        <time>2013-05-09T09:04:14Z</time>
      </trkpt>
      <trkpt lat="44.24645" lon="6.1525">
        <ele>1490.18</ele>
        <time>2013-05-09T09:04:34Z</time>
      </trkpt>
      <trkpt lat="44.24644" lon="6.15261">
        <ele>1490.66</ele>
        <time>2013-05-09T09:04:51Z</time>
      </trkpt>
      <trkpt lat="44.24644" lon="6.15268">
        <ele>1493.55</ele>
        <time>2013-05-09T09:05:02Z</time>
      </trkpt>
      <trkpt lat="44.24644" lon="6.15275">
        <ele>1494.51</ele>
        <time>2013-05-09T09:05:20Z</time>
      </trkpt>
      <trkpt lat="44.24644" lon="6.15281">
        <ele>1497.87</ele>
        <time>2013-05-09T09:05:30Z</time>
      </trkpt>
      <trkpt lat="44.24649" lon="6.15287">
        <ele>1499.31</ele>
        <time>2013-05-09T09:05:48Z</time>
      </trkpt>
      <trkpt lat="44.24651" lon="6.15295">
        <ele>1501.72</ele>
        <time>2013-05-09T09:06:06Z</time>
      </trkpt>
      <trkpt lat="44.24651" lon="6.15296">
        <ele>1502.68</ele>
        <time>2013-05-09T09:06:32Z</time>
      </trkpt>
      <trkpt lat="44.24658" lon="6.153">
        <ele>1504.12</ele>
        <time>2013-05-09T09:06:47Z</time>
      </trkpt>
      <trkpt lat="44.2466" lon="6.15305">
        <ele>1507.48</ele>
        <time>2013-05-09T09:06:57Z</time>
      </trkpt>
      <trkpt lat="44.24664" lon="6.15313">
        <ele>1508.93</ele>
        <time>2013-05-09T09:07:14Z</time>
      </trkpt>
      <trkpt lat="44.24667" lon="6.15319">
        <ele>1513.73</ele>
        <time>2013-05-09T09:07:30Z</time>
      </trkpt>
      <trkpt lat="44.24669" lon="6.15321">
        <ele>1513.25</ele>
        <time>2013-05-09T09:07:34Z</time>
      </trkpt>
      <trkpt lat="44.24672" lon="6.15335">
        <ele>1515.66</ele>
        <time>2013-05-09T09:07:50Z</time>
      </trkpt>
      <trkpt lat="44.24672" lon="6.15347">
        <ele>1519.5</ele>
        <time>2013-05-09T09:08:03Z</time>
      </trkpt>
      <trkpt lat="44.24675" lon="6.15357">
        <ele>1523.35</ele>
        <time>2013-05-09T09:08:17Z</time>
      </trkpt>
      <trkpt lat="44.24677" lon="6.15367">
        <ele>1524.31</ele>
        <time>2013-05-09T09:08:31Z</time>
      </trkpt>
      <trkpt lat="44.24677" lon="6.15375">
        <ele>1526.23</ele>
        <time>2013-05-09T09:08:45Z</time>
      </trkpt>
      <trkpt lat="44.24674" lon="6.15375">
        <ele>1526.23</ele>
        <time>2013-05-09T09:09:14Z</time>
      </trkpt>
      <trkpt lat="44.24677" lon="6.15375">
        <ele>1526.23</ele>
        <time>2013-05-09T09:09:41Z</time>
      </trkpt>
      <trkpt lat="44.24678" lon="6.15373">
        <ele>1526.23</ele>
        <time>2013-05-09T09:10:07Z</time>
      </trkpt>
      <trkpt lat="44.24676" lon="6.15372">
        <ele>1526.23</ele>
        <time>2013-05-09T09:10:50Z</time>
      </trkpt>
      <trkpt lat="44.24676" lon="6.15374">
        <ele>1526.23</ele>
        <time>2013-05-09T09:11:20Z</time>
      </trkpt>
      <trkpt lat="44.24678" lon="6.15373">
        <ele>1526.23</ele>
        <time>2013-05-09T09:11:53Z</time>
      </trkpt>
      <trkpt lat="44.24674" lon="6.15378">
        <ele>1526.23</ele>
        <time>2013-05-09T09:12:23Z</time>
      </trkpt>
      <trkpt lat="44.24677" lon="6.15375">
        <ele>1526.23</ele>
        <time>2013-05-09T09:12:56Z</time>
      </trkpt>
      <trkpt lat="44.24677" lon="6.15372">
        <ele>1526.71</ele>
        <time>2013-05-09T09:13:27Z</time>
      </trkpt>
      <trkpt lat="44.2468" lon="6.15371">
        <ele>1526.71</ele>
        <time>2013-05-09T09:13:58Z</time>
      </trkpt>
      <trkpt lat="44.24678" lon="6.15373">
        <ele>1526.71</ele>
        <time>2013-05-09T09:14:26Z</time>
      </trkpt>
      <trkpt lat="44.24677" lon="6.15373">
        <ele>1526.71</ele>
        <time>2013-05-09T09:14:49Z</time>
      </trkpt>
      <trkpt lat="44.24676" lon="6.15373">
        <ele>1526.71</ele>
        <time>2013-05-09T09:15:19Z</time>
      </trkpt>
      <trkpt lat="44.24673" lon="6.15377">
        <ele>1526.71</ele>
        <time>2013-05-09T09:15:47Z</time>
      </trkpt>
      <trkpt lat="44.24677" lon="6.15386">
        <ele>1526.71</ele>
        <time>2013-05-09T09:16:04Z</time>
      </trkpt>
      <trkpt lat="44.24679" lon="6.15387">
        <ele>1526.71</ele>
        <time>2013-05-09T09:16:31Z</time>
      </trkpt>
      <trkpt lat="44.24678" lon="6.1539">
        <ele>1526.23</ele>
        <time>2013-05-09T09:16:34Z</time>
      </trkpt>
      <trkpt lat="44.24679" lon="6.15401">
        <ele>1527.19</ele>
        <time>2013-05-09T09:16:49Z</time>
      </trkpt>
      <trkpt lat="44.24678" lon="6.15408">
        <ele>1526.71</ele>
        <time>2013-05-09T09:17:13Z</time>
      </trkpt>
      <trkpt lat="44.24681" lon="6.15418">
        <ele>1525.27</ele>
        <time>2013-05-09T09:17:26Z</time>
      </trkpt>
      <trkpt lat="44.24682" lon="6.15425">
        <ele>1524.79</ele>
        <time>2013-05-09T09:17:33Z</time>
      </trkpt>
      <trkpt lat="44.24683" lon="6.15433">
        <ele>1523.83</ele>
        <time>2013-05-09T09:17:39Z</time>
      </trkpt>
      <trkpt lat="44.24684" lon="6.15451">
        <ele>1525.75</ele>
        <time>2013-05-09T09:17:54Z</time>
      </trkpt>
      <trkpt lat="44.24686" lon="6.15454">
        <ele>1524.79</ele>
        <time>2013-05-09T09:17:59Z</time>
      </trkpt>
      <trkpt lat="44.24688" lon="6.15451">
        <ele>1524.79</ele>
        <time>2013-05-09T09:18:26Z</time>
      </trkpt>
      <trkpt lat="44.24689" lon="6.1545">
        <ele>1521.42</ele>
        <time>2013-05-09T09:18:36Z</time>
      </trkpt>
      <trkpt lat="44.24689" lon="6.15451">
        <ele>1527.67</ele>
        <time>2013-05-09T09:18:37Z</time>
      </trkpt>
      <trkpt lat="44.2469" lon="6.15455">
        <ele>1523.83</ele>
        <time>2013-05-09T09:18:40Z</time>
      </trkpt>
      <trkpt lat="44.24692" lon="6.15468">
        <ele>1524.79</ele>
        <time>2013-05-09T09:18:50Z</time>
      </trkpt>
      <trkpt lat="44.24698" lon="6.15488">
        <ele>1522.39</ele>
        <time>2013-05-09T09:19:05Z</time>
      </trkpt>
      <trkpt lat="44.24698" lon="6.15492">
        <ele>1523.83</ele>
        <time>2013-05-09T09:19:08Z</time>
      </trkpt>
      <trkpt lat="44.24698" lon="6.15504">
        <ele>1525.75</ele>
        <time>2013-05-09T09:19:22Z</time>
      </trkpt>
      <trkpt lat="44.247" lon="6.15512">
        <ele>1529.59</ele>
        <time>2013-05-09T09:19:33Z</time>
      </trkpt>
      <trkpt lat="44.24699" lon="6.15517">
        <ele>1526.71</ele>
        <time>2013-05-09T09:19:39Z</time>
      </trkpt>
      <trkpt lat="44.247" lon="6.15532">
        <ele>1527.19</ele>
        <time>2013-05-09T09:19:51Z</time>
      </trkpt>
      <trkpt lat="44.24699" lon="6.15543">
        <ele>1529.59</ele>
        <time>2013-05-09T09:19:59Z</time>
      </trkpt>
      <trkpt lat="44.24699" lon="6.15556">
        <ele>1526.23</ele>
        <time>2013-05-09T09:20:12Z</time>
      </trkpt>
      <trkpt lat="44.24699" lon="6.15557">
        <ele>1532</ele>
        <time>2013-05-09T09:20:13Z</time>
      </trkpt>
      <trkpt lat="44.24699" lon="6.15557">
        <ele>1528.15</ele>
        <time>2013-05-09T09:20:14Z</time>
      </trkpt>
      <trkpt lat="44.24701" lon="6.15561">
        <ele>1529.59</ele>
        <time>2013-05-09T09:20:41Z</time>
      </trkpt>
      <trkpt lat="44.24704" lon="6.15569">
        <ele>1533.44</ele>
        <time>2013-05-09T09:20:51Z</time>
      </trkpt>
      <trkpt lat="44.24704" lon="6.15571">
        <ele>1529.59</ele>
        <time>2013-05-09T09:20:54Z</time>
      </trkpt>
      <trkpt lat="44.247" lon="6.15576">
        <ele>1530.56</ele>
        <time>2013-05-09T09:21:04Z</time>
      </trkpt>
      <trkpt lat="44.24695" lon="6.15578">
        <ele>1531.52</ele>
        <time>2013-05-09T09:21:09Z</time>
      </trkpt>
      <trkpt lat="44.24686" lon="6.15591">
        <ele>1529.59</ele>
        <time>2013-05-09T09:21:20Z</time>
      </trkpt>
      <trkpt lat="44.24679" lon="6.15597">
        <ele>1532.48</ele>
        <time>2013-05-09T09:21:28Z</time>
      </trkpt>
      <trkpt lat="44.24675" lon="6.15608">
        <ele>1533.92</ele>
        <time>2013-05-09T09:21:36Z</time>
      </trkpt>
      <trkpt lat="44.24675" lon="6.15615">
        <ele>1533.44</ele>
        <time>2013-05-09T09:21:40Z</time>
      </trkpt>
      <trkpt lat="44.24674" lon="6.15628">
        <ele>1533.44</ele>
        <time>2013-05-09T09:21:58Z</time>
      </trkpt>
      <trkpt lat="44.24676" lon="6.15628">
        <ele>1533.44</ele>
        <time>2013-05-09T09:22:23Z</time>
      </trkpt>
      <trkpt lat="44.24678" lon="6.15643">
        <ele>1533.44</ele>
        <time>2013-05-09T09:22:48Z</time>
      </trkpt>
      <trkpt lat="44.24679" lon="6.15664">
        <ele>1535.36</ele>
        <time>2013-05-09T09:23:03Z</time>
      </trkpt>
      <trkpt lat="44.2468" lon="6.15675">
        <ele>1538.25</ele>
        <time>2013-05-09T09:23:11Z</time>
      </trkpt>
      <trkpt lat="44.24682" lon="6.15679">
        <ele>1539.21</ele>
        <time>2013-05-09T09:23:14Z</time>
      </trkpt>
      <trkpt lat="44.2469" lon="6.15681">
        <ele>1537.77</ele>
        <time>2013-05-09T09:23:31Z</time>
      </trkpt>
      <trkpt lat="44.24691" lon="6.1569">
        <ele>1538.25</ele>
        <time>2013-05-09T09:23:52Z</time>
      </trkpt>
      <trkpt lat="44.24694" lon="6.15712">
        <ele>1540.65</ele>
        <time>2013-05-09T09:24:08Z</time>
      </trkpt>
      <trkpt lat="44.24695" lon="6.1572">
        <ele>1539.21</ele>
        <time>2013-05-09T09:24:14Z</time>
      </trkpt>
      <trkpt lat="44.24699" lon="6.1574">
        <ele>1541.13</ele>
        <time>2013-05-09T09:24:28Z</time>
      </trkpt>
      <trkpt lat="44.24703" lon="6.15757">
        <ele>1543.53</ele>
        <time>2013-05-09T09:24:44Z</time>
      </trkpt>
      <trkpt lat="44.24704" lon="6.15774">
        <ele>1545.94</ele>
        <time>2013-05-09T09:24:57Z</time>
      </trkpt>
      <trkpt lat="44.24699" lon="6.1579">
        <ele>1547.86</ele>
        <time>2013-05-09T09:25:15Z</time>
      </trkpt>
      <trkpt lat="44.24696" lon="6.15802">
        <ele>1551.22</ele>
        <time>2013-05-09T09:25:28Z</time>
      </trkpt>
      <trkpt lat="44.24698" lon="6.15815">
        <ele>1554.59</ele>
        <time>2013-05-09T09:25:44Z</time>
      </trkpt>
      <trkpt lat="44.24696" lon="6.15828">
        <ele>1556.51</ele>
        <time>2013-05-09T09:25:58Z</time>
      </trkpt>
      <trkpt lat="44.24697" lon="6.15835">
        <ele>1558.43</ele>
        <time>2013-05-09T09:26:05Z</time>
      </trkpt>
      <trkpt lat="44.24698" lon="6.15849">
        <ele>1561.8</ele>
        <time>2013-05-09T09:26:23Z</time>
      </trkpt>
      <trkpt lat="44.247" lon="6.15865">
        <ele>1562.76</ele>
        <time>2013-05-09T09:26:40Z</time>
      </trkpt>
      <trkpt lat="44.24699" lon="6.15878">
        <ele>1566.12</ele>
        <time>2013-05-09T09:26:55Z</time>
      </trkpt>
      <trkpt lat="44.247" lon="6.15891">
        <ele>1567.57</ele>
        <time>2013-05-09T09:27:10Z</time>
      </trkpt>
      <trkpt lat="44.247" lon="6.15898">
        <ele>1570.45</ele>
        <time>2013-05-09T09:27:18Z</time>
      </trkpt>
      <trkpt lat="44.24702" lon="6.15909">
        <ele>1571.89</ele>
        <time>2013-05-09T09:27:33Z</time>
      </trkpt>
      <trkpt lat="44.247" lon="6.15917">
        <ele>1574.78</ele>
        <time>2013-05-09T09:27:43Z</time>
      </trkpt>
      <trkpt lat="44.247" lon="6.15928">
        <ele>1576.22</ele>
        <time>2013-05-09T09:27:57Z</time>
      </trkpt>
      <trkpt lat="44.247" lon="6.1594">
        <ele>1579.58</ele>
        <time>2013-05-09T09:28:11Z</time>
      </trkpt>
      <trkpt lat="44.247" lon="6.15944">
        <ele>1581.03</ele>
        <time>2013-05-09T09:28:16Z</time>
      </trkpt>
      <trkpt lat="44.24699" lon="6.15953">
        <ele>1582.47</ele>
        <time>2013-05-09T09:28:28Z</time>
      </trkpt>
      <trkpt lat="44.24696" lon="6.15959">
        <ele>1584.87</ele>
        <time>2013-05-09T09:28:40Z</time>
      </trkpt>
      <trkpt lat="44.24696" lon="6.15959">
        <ele>1584.87</ele>
        <time>2013-05-09T09:28:41Z</time>
      </trkpt>
      <trkpt lat="44.24696" lon="6.15961">
        <ele>1584.87</ele>
        <time>2013-05-09T09:28:44Z</time>
      </trkpt>
      <trkpt lat="44.24697" lon="6.15968">
        <ele>1586.79</ele>
        <time>2013-05-09T09:28:52Z</time>
      </trkpt>
      <trkpt lat="44.24694" lon="6.15974">
        <ele>1590.16</ele>
        <time>2013-05-09T09:29:06Z</time>
      </trkpt>
      <trkpt lat="44.24693" lon="6.15975">
        <ele>1590.64</ele>
        <time>2013-05-09T09:29:07Z</time>
      </trkpt>
      <trkpt lat="44.24691" lon="6.15984">
        <ele>1593.52</ele>
        <time>2013-05-09T09:29:21Z</time>
      </trkpt>
      <trkpt lat="44.2469" lon="6.15993">
        <ele>1594.96</ele>
        <time>2013-05-09T09:29:34Z</time>
      </trkpt>
      <trkpt lat="44.24689" lon="6.16001">
        <ele>1598.33</ele>
        <time>2013-05-09T09:29:47Z</time>
      </trkpt>
      <trkpt lat="44.24688" lon="6.16009">
        <ele>1597.37</ele>
        <time>2013-05-09T09:29:56Z</time>
      </trkpt>
      <trkpt lat="44.24686" lon="6.16024">
        <ele>1600.73</ele>
        <time>2013-05-09T09:30:11Z</time>
      </trkpt>
      <trkpt lat="44.24687" lon="6.16038">
        <ele>1602.66</ele>
        <time>2013-05-09T09:30:25Z</time>
      </trkpt>
      <trkpt lat="44.24687" lon="6.16042">
        <ele>1601.69</ele>
        <time>2013-05-09T09:30:28Z</time>
      </trkpt>
      <trkpt lat="44.24686" lon="6.16057">
        <ele>1604.1</ele>
        <time>2013-05-09T09:30:42Z</time>
      </trkpt>
      <trkpt lat="44.24686" lon="6.16059">
        <ele>1604.58</ele>
        <time>2013-05-09T09:30:44Z</time>
      </trkpt>
      <trkpt lat="44.24687" lon="6.16066">
        <ele>1605.06</ele>
        <time>2013-05-09T09:30:49Z</time>
      </trkpt>
      <trkpt lat="44.24687" lon="6.16074">
        <ele>1605.06</ele>
        <time>2013-05-09T09:30:57Z</time>
      </trkpt>
      <trkpt lat="44.24684" lon="6.16089">
        <ele>1607.46</ele>
        <time>2013-05-09T09:31:11Z</time>
      </trkpt>
      <trkpt lat="44.24686" lon="6.16095">
        <ele>1610.35</ele>
        <time>2013-05-09T09:31:17Z</time>
      </trkpt>
      <trkpt lat="44.24685" lon="6.161">
        <ele>1609.38</ele>
        <time>2013-05-09T09:31:21Z</time>
      </trkpt>
      <trkpt lat="44.24687" lon="6.16115">
        <ele>1612.27</ele>
        <time>2013-05-09T09:31:34Z</time>
      </trkpt>
      <trkpt lat="44.24687" lon="6.1613">
        <ele>1614.19</ele>
        <time>2013-05-09T09:31:47Z</time>
      </trkpt>
      <trkpt lat="44.24687" lon="6.16134">
        <ele>1611.31</ele>
        <time>2013-05-09T09:32:02Z</time>
      </trkpt>
      <trkpt lat="44.2469" lon="6.1615">
        <ele>1614.19</ele>
        <time>2013-05-09T09:32:15Z</time>
      </trkpt>
      <trkpt lat="44.24691" lon="6.16159">
        <ele>1616.11</ele>
        <time>2013-05-09T09:32:23Z</time>
      </trkpt>
      <trkpt lat="44.24693" lon="6.1617">
        <ele>1617.07</ele>
        <time>2013-05-09T09:32:34Z</time>
      </trkpt>
      <trkpt lat="44.2469" lon="6.16182">
        <ele>1618.04</ele>
        <time>2013-05-09T09:32:47Z</time>
      </trkpt>
      <trkpt lat="44.2469" lon="6.16183">
        <ele>1619</ele>
        <time>2013-05-09T09:32:48Z</time>
      </trkpt>
      <trkpt lat="44.24691" lon="6.16191">
        <ele>1619</ele>
        <time>2013-05-09T09:32:55Z</time>
      </trkpt>
      <trkpt lat="44.24691" lon="6.16201">
        <ele>1620.44</ele>
        <time>2013-05-09T09:33:03Z</time>
      </trkpt>
      <trkpt lat="44.24695" lon="6.16212">
        <ele>1620.44</ele>
        <time>2013-05-09T09:33:11Z</time>
      </trkpt>
      <trkpt lat="44.24696" lon="6.16215">
        <ele>1621.88</ele>
        <time>2013-05-09T09:33:14Z</time>
      </trkpt>
      <trkpt lat="44.24695" lon="6.16218">
        <ele>1621.4</ele>
        <time>2013-05-09T09:33:30Z</time>
      </trkpt>
      <trkpt lat="44.24696" lon="6.16219">
        <ele>1621.4</ele>
        <time>2013-05-09T09:34:01Z</time>
      </trkpt>
      <trkpt lat="44.24692" lon="6.1622">
        <ele>1623.8</ele>
        <time>2013-05-09T09:34:16Z</time>
      </trkpt>
      <trkpt lat="44.24691" lon="6.1622">
        <ele>1622.36</ele>
        <time>2013-05-09T09:34:17Z</time>
      </trkpt>
      <trkpt lat="44.24689" lon="6.16221">
        <ele>1623.32</ele>
        <time>2013-05-09T09:34:20Z</time>
      </trkpt>
      <trkpt lat="44.24686" lon="6.16225">
        <ele>1625.25</ele>
        <time>2013-05-09T09:34:25Z</time>
      </trkpt>
      <trkpt lat="44.24683" lon="6.16232">
        <ele>1626.69</ele>
        <time>2013-05-09T09:34:33Z</time>
      </trkpt>
      <trkpt lat="44.24682" lon="6.16233">
        <ele>1626.69</ele>
        <time>2013-05-09T09:34:34Z</time>
      </trkpt>
      <trkpt lat="44.24681" lon="6.16242">
        <ele>1628.61</ele>
        <time>2013-05-09T09:34:43Z</time>
      </trkpt>
      <trkpt lat="44.24674" lon="6.16248">
        <ele>1630.05</ele>
        <time>2013-05-09T09:34:56Z</time>
      </trkpt>
      <trkpt lat="44.2467" lon="6.16245">
        <ele>1631.01</ele>
        <time>2013-05-09T09:35:13Z</time>
      </trkpt>
      <trkpt lat="44.24667" lon="6.16245">
        <ele>1631.49</ele>
        <time>2013-05-09T09:35:41Z</time>
      </trkpt>
      <trkpt lat="44.24666" lon="6.16246">
        <ele>1631.49</ele>
        <time>2013-05-09T09:36:20Z</time>
      </trkpt>
      <trkpt lat="44.24666" lon="6.16246">
        <ele>1631.98</ele>
        <time>2013-05-09T09:36:52Z</time>
      </trkpt>
      <trkpt lat="44.24667" lon="6.16246">
        <ele>1631.98</ele>
        <time>2013-05-09T09:37:21Z</time>
      </trkpt>
      <trkpt lat="44.24668" lon="6.16246">
        <ele>1632.46</ele>
        <time>2013-05-09T09:37:54Z</time>
      </trkpt>
      <trkpt lat="44.24669" lon="6.16246">
        <ele>1632.46</ele>
        <time>2013-05-09T09:38:25Z</time>
      </trkpt>
      <trkpt lat="44.24669" lon="6.16248">
        <ele>1632.94</ele>
        <time>2013-05-09T09:38:54Z</time>
      </trkpt>
      <trkpt lat="44.24669" lon="6.16247">
        <ele>1632.46</ele>
        <time>2013-05-09T09:39:18Z</time>
      </trkpt>
      <trkpt lat="44.24669" lon="6.16245">
        <ele>1632.46</ele>
        <time>2013-05-09T09:39:55Z</time>
      </trkpt>
      <trkpt lat="44.2467" lon="6.16246">
        <ele>1632.94</ele>
        <time>2013-05-09T09:40:23Z</time>
      </trkpt>
      <trkpt lat="44.2467" lon="6.16246">
        <ele>1632.94</ele>
        <time>2013-05-09T09:40:56Z</time>
      </trkpt>
      <trkpt lat="44.24669" lon="6.16246">
        <ele>1632.94</ele>
        <time>2013-05-09T09:41:22Z</time>
      </trkpt>
      <trkpt lat="44.2467" lon="6.16246">
        <ele>1632.94</ele>
        <time>2013-05-09T09:41:47Z</time>
      </trkpt>
      <trkpt lat="44.24669" lon="6.16246">
        <ele>1632.94</ele>
        <time>2013-05-09T09:42:21Z</time>
      </trkpt>
      <trkpt lat="44.24669" lon="6.16246">
        <ele>1633.42</ele>
        <time>2013-05-09T09:42:53Z</time>
      </trkpt>
      <trkpt lat="44.24668" lon="6.16247">
        <ele>1633.9</ele>
        <time>2013-05-09T09:43:21Z</time>
      </trkpt>
      <trkpt lat="44.24668" lon="6.16248">
        <ele>1634.38</ele>
        <time>2013-05-09T09:43:32Z</time>
      </trkpt>
      <trkpt lat="44.24668" lon="6.16246">
        <ele>1634.38</ele>
        <time>2013-05-09T09:43:51Z</time>
      </trkpt>
      <trkpt lat="44.24669" lon="6.16246">
        <ele>1634.38</ele>
        <time>2013-05-09T09:44:14Z</time>
      </trkpt>
      <trkpt lat="44.24668" lon="6.16247">
        <ele>1633.9</ele>
        <time>2013-05-09T09:44:38Z</time>
      </trkpt>
      <trkpt lat="44.24669" lon="6.16248">
        <ele>1634.38</ele>
        <time>2013-05-09T09:45:13Z</time>
      </trkpt>
      <trkpt lat="44.24669" lon="6.16248">
        <ele>1634.38</ele>
        <time>2013-05-09T09:45:45Z</time>
      </trkpt>
      <trkpt lat="44.24668" lon="6.16249">
        <ele>1634.86</ele>
        <time>2013-05-09T09:46:28Z</time>
      </trkpt>
      <trkpt lat="44.24668" lon="6.16248">
        <ele>1634.38</ele>
        <time>2013-05-09T09:47:00Z</time>
      </trkpt>
      <trkpt lat="44.24669" lon="6.16257">
        <ele>1636.3</ele>
        <time>2013-05-09T09:47:15Z</time>
      </trkpt>
      <trkpt lat="44.2467" lon="6.16269">
        <ele>1636.78</ele>
        <time>2013-05-09T09:47:29Z</time>
      </trkpt>
      <trkpt lat="44.24672" lon="6.16276">
        <ele>1638.22</ele>
        <time>2013-05-09T09:47:50Z</time>
      </trkpt>
      <trkpt lat="44.24672" lon="6.16277">
        <ele>1637.26</ele>
        <time>2013-05-09T09:47:51Z</time>
      </trkpt>
      <trkpt lat="44.24677" lon="6.16292">
        <ele>1638.22</ele>
        <time>2013-05-09T09:48:04Z</time>
      </trkpt>
      <trkpt lat="44.24678" lon="6.16298">
        <ele>1637.74</ele>
        <time>2013-05-09T09:48:08Z</time>
      </trkpt>
      <trkpt lat="44.24689" lon="6.16315">
        <ele>1638.7</ele>
        <time>2013-05-09T09:48:22Z</time>
      </trkpt>
      <trkpt lat="44.24695" lon="6.16329">
        <ele>1640.15</ele>
        <time>2013-05-09T09:48:33Z</time>
      </trkpt>
      <trkpt lat="44.24696" lon="6.16334">
        <ele>1638.22</ele>
        <time>2013-05-09T09:48:36Z</time>
      </trkpt>
      <trkpt lat="44.24697" lon="6.1634">
        <ele>1638.7</ele>
        <time>2013-05-09T09:48:42Z</time>
      </trkpt>
      <trkpt lat="44.24697" lon="6.16342">
        <ele>1638.22</ele>
        <time>2013-05-09T09:48:44Z</time>
      </trkpt>
      <trkpt lat="44.24697" lon="6.16351">
        <ele>1640.15</ele>
        <time>2013-05-09T09:48:49Z</time>
      </trkpt>
      <trkpt lat="44.24699" lon="6.16356">
        <ele>1640.15</ele>
        <time>2013-05-09T09:48:53Z</time>
      </trkpt>
      <trkpt lat="44.24698" lon="6.16375">
        <ele>1640.63</ele>
        <time>2013-05-09T09:49:06Z</time>
      </trkpt>
      <trkpt lat="44.24698" lon="6.1639">
        <ele>1642.55</ele>
        <time>2013-05-09T09:49:18Z</time>
      </trkpt>
      <trkpt lat="44.24696" lon="6.16397">
        <ele>1642.55</ele>
        <time>2013-05-09T09:49:23Z</time>
      </trkpt>
      <trkpt lat="44.24695" lon="6.16401">
        <ele>1643.03</ele>
        <time>2013-05-09T09:49:26Z</time>
      </trkpt>
      <trkpt lat="44.24694" lon="6.16416">
        <ele>1645.43</ele>
        <time>2013-05-09T09:49:38Z</time>
      </trkpt>
      <trkpt lat="44.24693" lon="6.16419">
        <ele>1646.4</ele>
        <time>2013-05-09T09:49:41Z</time>
      </trkpt>
      <trkpt lat="44.24693" lon="6.16431">
        <ele>1647.84</ele>
        <time>2013-05-09T09:49:50Z</time>
      </trkpt>
      <trkpt lat="44.24693" lon="6.16432">
        <ele>1647.36</ele>
        <time>2013-05-09T09:49:51Z</time>
      </trkpt>
      <trkpt lat="44.24695" lon="6.16439">
        <ele>1647.36</ele>
        <time>2013-05-09T09:49:57Z</time>
      </trkpt>
      <trkpt lat="44.24699" lon="6.16454">
        <ele>1647.84</ele>
        <time>2013-05-09T09:50:11Z</time>
      </trkpt>
      <trkpt lat="44.24703" lon="6.1647">
        <ele>1648.8</ele>
        <time>2013-05-09T09:50:22Z</time>
      </trkpt>
      <trkpt lat="44.24707" lon="6.16483">
        <ele>1650.72</ele>
        <time>2013-05-09T09:50:34Z</time>
      </trkpt>
      <trkpt lat="44.24708" lon="6.16493">
        <ele>1651.2</ele>
        <time>2013-05-09T09:50:45Z</time>
      </trkpt>
      <trkpt lat="44.24707" lon="6.16498">
        <ele>1653.12</ele>
        <time>2013-05-09T09:51:01Z</time>
      </trkpt>
      <trkpt lat="44.24704" lon="6.16499">
        <ele>1654.57</ele>
        <time>2013-05-09T09:51:05Z</time>
      </trkpt>
      <trkpt lat="44.24705" lon="6.16501">
        <ele>1655.53</ele>
        <time>2013-05-09T09:51:07Z</time>
      </trkpt>
      <trkpt lat="44.24703" lon="6.16503">
        <ele>1655.05</ele>
        <time>2013-05-09T09:51:10Z</time>
      </trkpt>
      <trkpt lat="44.24705" lon="6.16511">
        <ele>1657.93</ele>
        <time>2013-05-09T09:51:19Z</time>
      </trkpt>
      <trkpt lat="44.24707" lon="6.16516">
        <ele>1657.45</ele>
        <time>2013-05-09T09:51:27Z</time>
      </trkpt>
      <trkpt lat="44.24709" lon="6.16524">
        <ele>1661.3</ele>
        <time>2013-05-09T09:51:41Z</time>
      </trkpt>
      <trkpt lat="44.2471" lon="6.1653">
        <ele>1662.74</ele>
        <time>2013-05-09T09:51:48Z</time>
      </trkpt>
      <trkpt lat="44.2471" lon="6.16533">
        <ele>1662.74</ele>
        <time>2013-05-09T09:51:50Z</time>
      </trkpt>
      <trkpt lat="44.24709" lon="6.16543">
        <ele>1665.14</ele>
        <time>2013-05-09T09:52:01Z</time>
      </trkpt>
      <trkpt lat="44.24706" lon="6.16547">
        <ele>1665.62</ele>
        <time>2013-05-09T09:52:15Z</time>
      </trkpt>
      <trkpt lat="44.24707" lon="6.1655">
        <ele>1664.66</ele>
        <time>2013-05-09T09:52:29Z</time>
      </trkpt>
      <trkpt lat="44.24717" lon="6.16561">
        <ele>1666.58</ele>
        <time>2013-05-09T09:52:43Z</time>
      </trkpt>
      <trkpt lat="44.24715" lon="6.1656">
        <ele>1666.58</ele>
        <time>2013-05-09T09:53:03Z</time>
      </trkpt>
      <trkpt lat="44.24712" lon="6.16559">
        <ele>1666.58</ele>
        <time>2013-05-09T09:53:13Z</time>
      </trkpt>
      <trkpt lat="44.2471" lon="6.16562">
        <ele>1667.06</ele>
        <time>2013-05-09T09:53:27Z</time>
      </trkpt>
      <trkpt lat="44.24711" lon="6.16564">
        <ele>1668.99</ele>
        <time>2013-05-09T09:53:59Z</time>
      </trkpt>
      <trkpt lat="44.24711" lon="6.16574">
        <ele>1668.99</ele>
        <time>2013-05-09T09:54:11Z</time>
      </trkpt>
      <trkpt lat="44.24715" lon="6.16586">
        <ele>1670.43</ele>
        <time>2013-05-09T09:54:24Z</time>
      </trkpt>
      <trkpt lat="44.24714" lon="6.16591">
        <ele>1670.91</ele>
        <time>2013-05-09T09:54:28Z</time>
      </trkpt>
      <trkpt lat="44.24716" lon="6.16598">
        <ele>1672.35</ele>
        <time>2013-05-09T09:54:34Z</time>
      </trkpt>
      <trkpt lat="44.24719" lon="6.16611">
        <ele>1673.79</ele>
        <time>2013-05-09T09:54:44Z</time>
      </trkpt>
      <trkpt lat="44.24721" lon="6.16623">
        <ele>1674.75</ele>
        <time>2013-05-09T09:54:57Z</time>
      </trkpt>
      <trkpt lat="44.24721" lon="6.16629">
        <ele>1677.16</ele>
        <time>2013-05-09T09:55:03Z</time>
      </trkpt>
      <trkpt lat="44.24722" lon="6.16637">
        <ele>1677.64</ele>
        <time>2013-05-09T09:55:08Z</time>
      </trkpt>
      <trkpt lat="44.24722" lon="6.16644">
        <ele>1678.12</ele>
        <time>2013-05-09T09:55:14Z</time>
      </trkpt>
      <trkpt lat="44.24725" lon="6.16658">
        <ele>1679.08</ele>
        <time>2013-05-09T09:55:27Z</time>
      </trkpt>
      <trkpt lat="44.24727" lon="6.16667">
        <ele>1682.44</ele>
        <time>2013-05-09T09:55:39Z</time>
      </trkpt>
      <trkpt lat="44.24731" lon="6.1668">
        <ele>1682.44</ele>
        <time>2013-05-09T09:55:54Z</time>
      </trkpt>
      <trkpt lat="44.24731" lon="6.16681">
        <ele>1685.81</ele>
        <time>2013-05-09T09:55:55Z</time>
      </trkpt>
      <trkpt lat="44.24735" lon="6.16693">
        <ele>1686.29</ele>
        <time>2013-05-09T09:56:09Z</time>
      </trkpt>
      <trkpt lat="44.24738" lon="6.16703">
        <ele>1689.17</ele>
        <time>2013-05-09T09:56:19Z</time>
      </trkpt>
      <trkpt lat="44.24742" lon="6.16712">
        <ele>1692.54</ele>
        <time>2013-05-09T09:56:34Z</time>
      </trkpt>
      <trkpt lat="44.24743" lon="6.16726">
        <ele>1694.46</ele>
        <time>2013-05-09T09:56:48Z</time>
      </trkpt>
      <trkpt lat="44.24745" lon="6.1674">
        <ele>1695.9</ele>
        <time>2013-05-09T09:57:03Z</time>
      </trkpt>
      <trkpt lat="44.24748" lon="6.16751">
        <ele>1699.27</ele>
        <time>2013-05-09T09:57:17Z</time>
      </trkpt>
      <trkpt lat="44.24752" lon="6.16761">
        <ele>1702.63</ele>
        <time>2013-05-09T09:57:31Z</time>
      </trkpt>
      <trkpt lat="44.24754" lon="6.16771">
        <ele>1704.55</ele>
        <time>2013-05-09T09:57:45Z</time>
      </trkpt>
      <trkpt lat="44.24756" lon="6.1678">
        <ele>1707.44</ele>
        <time>2013-05-09T09:57:56Z</time>
      </trkpt>
      <trkpt lat="44.24761" lon="6.16791">
        <ele>1708.88</ele>
        <time>2013-05-09T09:58:09Z</time>
      </trkpt>
      <trkpt lat="44.24761" lon="6.168">
        <ele>1710.8</ele>
        <time>2013-05-09T09:58:18Z</time>
      </trkpt>
      <trkpt lat="44.24763" lon="6.1681">
        <ele>1713.69</ele>
        <time>2013-05-09T09:58:28Z</time>
      </trkpt>
      <trkpt lat="44.24768" lon="6.1682">
        <ele>1714.17</ele>
        <time>2013-05-09T09:58:40Z</time>
      </trkpt>
      <trkpt lat="44.24769" lon="6.16831">
        <ele>1718.01</ele>
        <time>2013-05-09T09:58:51Z</time>
      </trkpt>
      <trkpt lat="44.24771" lon="6.16842">
        <ele>1718.97</ele>
        <time>2013-05-09T09:59:03Z</time>
      </trkpt>
      <trkpt lat="44.24775" lon="6.16849">
        <ele>1723.3</ele>
        <time>2013-05-09T09:59:14Z</time>
      </trkpt>
      <trkpt lat="44.24777" lon="6.16859">
        <ele>1722.82</ele>
        <time>2013-05-09T09:59:24Z</time>
      </trkpt>
      <trkpt lat="44.2478" lon="6.16871">
        <ele>1724.74</ele>
        <time>2013-05-09T09:59:38Z</time>
      </trkpt>
      <trkpt lat="44.24781" lon="6.16889">
        <ele>1727.15</ele>
        <time>2013-05-09T09:59:51Z</time>
      </trkpt>
      <trkpt lat="44.24783" lon="6.16901">
        <ele>1730.51</ele>
        <time>2013-05-09T10:00:01Z</time>
      </trkpt>
      <trkpt lat="44.24787" lon="6.16912">
        <ele>1731.47</ele>
        <time>2013-05-09T10:00:13Z</time>
      </trkpt>
      <trkpt lat="44.24789" lon="6.16925">
        <ele>1732.91</ele>
        <time>2013-05-09T10:00:27Z</time>
      </trkpt>
      <trkpt lat="44.24792" lon="6.16937">
        <ele>1735.8</ele>
        <time>2013-05-09T10:00:38Z</time>
      </trkpt>
      <trkpt lat="44.24792" lon="6.16941">
        <ele>1736.28</ele>
        <time>2013-05-09T10:00:41Z</time>
      </trkpt>
      <trkpt lat="44.24794" lon="6.16953">
        <ele>1740.12</ele>
        <time>2013-05-09T10:00:57Z</time>
      </trkpt>
      <trkpt lat="44.24793" lon="6.16964">
        <ele>1739.16</ele>
        <time>2013-05-09T10:01:09Z</time>
      </trkpt>
      <trkpt lat="44.24793" lon="6.16965">
        <ele>1740.12</ele>
        <time>2013-05-09T10:01:28Z</time>
      </trkpt>
      <trkpt lat="44.24793" lon="6.16965">
        <ele>1739.64</ele>
        <time>2013-05-09T10:01:54Z</time>
      </trkpt>
      <trkpt lat="44.24793" lon="6.16964">
        <ele>1740.12</ele>
        <time>2013-05-09T10:02:22Z</time>
      </trkpt>
      <trkpt lat="44.24794" lon="6.16964">
        <ele>1740.12</ele>
        <time>2013-05-09T10:02:42Z</time>
      </trkpt>
      <trkpt lat="44.24794" lon="6.16965">
        <ele>1740.12</ele>
        <time>2013-05-09T10:03:13Z</time>
      </trkpt>
      <trkpt lat="44.24794" lon="6.16966">
        <ele>1740.12</ele>
        <time>2013-05-09T10:03:29Z</time>
      </trkpt>
      <trkpt lat="44.24796" lon="6.16963">
        <ele>1740.12</ele>
        <time>2013-05-09T10:03:50Z</time>
      </trkpt>
      <trkpt lat="44.24796" lon="6.16964">
        <ele>1740.6</ele>
        <time>2013-05-09T10:04:20Z</time>
      </trkpt>
      <trkpt lat="44.24796" lon="6.16962">
        <ele>1740.6</ele>
        <time>2013-05-09T10:04:50Z</time>
      </trkpt>
      <trkpt lat="44.24795" lon="6.16964">
        <ele>1740.6</ele>
        <time>2013-05-09T10:05:16Z</time>
      </trkpt>
      <trkpt lat="44.24794" lon="6.16963">
        <ele>1740.6</ele>
        <time>2013-05-09T10:05:33Z</time>
      </trkpt>
      <trkpt lat="44.24795" lon="6.16963">
        <ele>1740.6</ele>
        <time>2013-05-09T10:05:58Z</time>
      </trkpt>
      <trkpt lat="44.24794" lon="6.16963">
        <ele>1741.08</ele>
        <time>2013-05-09T10:06:20Z</time>
      </trkpt>
      <trkpt lat="44.24794" lon="6.16963">
        <ele>1740.6</ele>
        <time>2013-05-09T10:06:51Z</time>
      </trkpt>
      <trkpt lat="44.24794" lon="6.16963">
        <ele>1740.6</ele>
        <time>2013-05-09T10:07:19Z</time>
      </trkpt>
      <trkpt lat="44.24795" lon="6.16964">
        <ele>1740.6</ele>
        <time>2013-05-09T10:07:48Z</time>
      </trkpt>
      <trkpt lat="44.24795" lon="6.16964">
        <ele>1740.6</ele>
        <time>2013-05-09T10:08:11Z</time>
      </trkpt>
      <trkpt lat="44.24795" lon="6.16963">
        <ele>1740.6</ele>
        <time>2013-05-09T10:08:40Z</time>
      </trkpt>
      <trkpt lat="44.24795" lon="6.16963">
        <ele>1740.6</ele>
        <time>2013-05-09T10:09:16Z</time>
      </trkpt>
      <trkpt lat="44.24796" lon="6.16963">
        <ele>1737.72</ele>
        <time>2013-05-09T10:09:34Z</time>
      </trkpt>
      <trkpt lat="44.24796" lon="6.16963">
        <ele>1742.53</ele>
        <time>2013-05-09T10:09:35Z</time>
      </trkpt>
      <trkpt lat="44.24796" lon="6.16964">
        <ele>1741.08</ele>
        <time>2013-05-09T10:09:38Z</time>
      </trkpt>
      <trkpt lat="44.24797" lon="6.16965">
        <ele>1741.57</ele>
        <time>2013-05-09T10:10:01Z</time>
      </trkpt>
      <trkpt lat="44.24807" lon="6.16981">
        <ele>1742.53</ele>
        <time>2013-05-09T10:10:15Z</time>
      </trkpt>
      <trkpt lat="44.24814" lon="6.16998">
        <ele>1744.45</ele>
        <time>2013-05-09T10:10:29Z</time>
      </trkpt>
      <trkpt lat="44.24821" lon="6.17014">
        <ele>1746.37</ele>
        <time>2013-05-09T10:10:43Z</time>
      </trkpt>
      <trkpt lat="44.24827" lon="6.17029">
        <ele>1748.29</ele>
        <time>2013-05-09T10:10:57Z</time>
      </trkpt>
      <trkpt lat="44.24829" lon="6.1703">
        <ele>1748.29</ele>
        <time>2013-05-09T10:10:59Z</time>
      </trkpt>
      <trkpt lat="44.24831" lon="6.17032">
        <ele>1748.78</ele>
        <time>2013-05-09T10:11:02Z</time>
      </trkpt>
      <trkpt lat="44.24834" lon="6.17036">
        <ele>1748.29</ele>
        <time>2013-05-09T10:11:07Z</time>
      </trkpt>
      <trkpt lat="44.24839" lon="6.17049">
        <ele>1751.18</ele>
        <time>2013-05-09T10:11:21Z</time>
      </trkpt>
      <trkpt lat="44.24843" lon="6.17063">
        <ele>1753.58</ele>
        <time>2013-05-09T10:11:34Z</time>
      </trkpt>
      <trkpt lat="44.24843" lon="6.17077">
        <ele>1754.06</ele>
        <time>2013-05-09T10:11:46Z</time>
      </trkpt>
      <trkpt lat="44.24843" lon="6.17096">
        <ele>1755.02</ele>
        <time>2013-05-09T10:12:01Z</time>
      </trkpt>
      <trkpt lat="44.24843" lon="6.17115">
        <ele>1755.99</ele>
        <time>2013-05-09T10:12:14Z</time>
      </trkpt>
      <trkpt lat="44.24844" lon="6.17136">
        <ele>1756.95</ele>
        <time>2013-05-09T10:12:28Z</time>
      </trkpt>
      <trkpt lat="44.24845" lon="6.1715">
        <ele>1755.99</ele>
        <time>2013-05-09T10:12:39Z</time>
      </trkpt>
      <trkpt lat="44.24847" lon="6.17166">
        <ele>1755.99</ele>
        <time>2013-05-09T10:12:50Z</time>
      </trkpt>
      <trkpt lat="44.24848" lon="6.17184">
        <ele>1755.99</ele>
        <time>2013-05-09T10:13:02Z</time>
      </trkpt>
      <trkpt lat="44.24851" lon="6.17202">
        <ele>1757.43</ele>
        <time>2013-05-09T10:13:16Z</time>
      </trkpt>
      <trkpt lat="44.24853" lon="6.1721">
        <ele>1758.39</ele>
        <time>2013-05-09T10:13:22Z</time>
      </trkpt>
      <trkpt lat="44.24855" lon="6.17229">
        <ele>1757.91</ele>
        <time>2013-05-09T10:13:35Z</time>
      </trkpt>
      <trkpt lat="44.24858" lon="6.17247">
        <ele>1760.79</ele>
        <time>2013-05-09T10:13:50Z</time>
      </trkpt>
      <trkpt lat="44.24858" lon="6.17263">
        <ele>1762.23</ele>
        <time>2013-05-09T10:14:03Z</time>
      </trkpt>
      <trkpt lat="44.24862" lon="6.17274">
        <ele>1765.12</ele>
        <time>2013-05-09T10:14:15Z</time>
      </trkpt>
      <trkpt lat="44.24862" lon="6.17288">
        <ele>1763.68</ele>
        <time>2013-05-09T10:14:29Z</time>
      </trkpt>
      <trkpt lat="44.24866" lon="6.17305">
        <ele>1766.56</ele>
        <time>2013-05-09T10:14:44Z</time>
      </trkpt>
      <trkpt lat="44.24869" lon="6.17312">
        <ele>1768.48</ele>
        <time>2013-05-09T10:14:56Z</time>
      </trkpt>
      <trkpt lat="44.2487" lon="6.17315">
        <ele>1768.96</ele>
        <time>2013-05-09T10:15:00Z</time>
      </trkpt>
      <trkpt lat="44.2487" lon="6.17322">
        <ele>1769.44</ele>
        <time>2013-05-09T10:15:10Z</time>
      </trkpt>
      <trkpt lat="44.24877" lon="6.17337">
        <ele>1768</ele>
        <time>2013-05-09T10:15:24Z</time>
      </trkpt>
      <trkpt lat="44.24877" lon="6.17338">
        <ele>1771.37</ele>
        <time>2013-05-09T10:15:25Z</time>
      </trkpt>
      <trkpt lat="44.24878" lon="6.17357">
        <ele>1770.89</ele>
        <time>2013-05-09T10:15:40Z</time>
      </trkpt>
      <trkpt lat="44.24882" lon="6.17366">
        <ele>1772.81</ele>
        <time>2013-05-09T10:15:50Z</time>
      </trkpt>
      <trkpt lat="44.24883" lon="6.17373">
        <ele>1774.73</ele>
        <time>2013-05-09T10:15:57Z</time>
      </trkpt>
      <trkpt lat="44.24885" lon="6.17376">
        <ele>1774.73</ele>
        <time>2013-05-09T10:16:00Z</time>
      </trkpt>
      <trkpt lat="44.24886" lon="6.17383">
        <ele>1777.61</ele>
        <time>2013-05-09T10:16:05Z</time>
      </trkpt>
      <trkpt lat="44.24889" lon="6.17401">
        <ele>1778.1</ele>
        <time>2013-05-09T10:16:20Z</time>
      </trkpt>
      <trkpt lat="44.24894" lon="6.17416">
        <ele>1780.02</ele>
        <time>2013-05-09T10:16:35Z</time>
      </trkpt>
      <trkpt lat="44.24897" lon="6.17431">
        <ele>1781.94</ele>
        <time>2013-05-09T10:16:49Z</time>
      </trkpt>
      <trkpt lat="44.24898" lon="6.17434">
        <ele>1781.46</ele>
        <time>2013-05-09T10:16:52Z</time>
      </trkpt>
      <trkpt lat="44.24902" lon="6.17451">
        <ele>1784.82</ele>
        <time>2013-05-09T10:17:06Z</time>
      </trkpt>
      <trkpt lat="44.24904" lon="6.17468">
        <ele>1784.34</ele>
        <time>2013-05-09T10:17:19Z</time>
      </trkpt>
      <trkpt lat="44.24908" lon="6.17487">
        <ele>1785.79</ele>
        <time>2013-05-09T10:17:33Z</time>
      </trkpt>
      <trkpt lat="44.24912" lon="6.17506">
        <ele>1787.71</ele>
        <time>2013-05-09T10:17:48Z</time>
      </trkpt>
      <trkpt lat="44.24914" lon="6.17525">
        <ele>1787.23</ele>
        <time>2013-05-09T10:18:01Z</time>
      </trkpt>
      <trkpt lat="44.24915" lon="6.17539">
        <ele>1789.63</ele>
        <time>2013-05-09T10:18:12Z</time>
      </trkpt>
      <trkpt lat="44.24918" lon="6.17559">
        <ele>1792.03</ele>
        <time>2013-05-09T10:18:27Z</time>
      </trkpt>
      <trkpt lat="44.24919" lon="6.17578">
        <ele>1792.03</ele>
        <time>2013-05-09T10:18:41Z</time>
      </trkpt>
      <trkpt lat="44.24921" lon="6.17592">
        <ele>1794.92</ele>
        <time>2013-05-09T10:18:51Z</time>
      </trkpt>
      <trkpt lat="44.24923" lon="6.17609">
        <ele>1797.32</ele>
        <time>2013-05-09T10:19:05Z</time>
      </trkpt>
      <trkpt lat="44.24923" lon="6.17624">
        <ele>1799.24</ele>
        <time>2013-05-09T10:19:18Z</time>
      </trkpt>
      <trkpt lat="44.24924" lon="6.1764">
        <ele>1801.17</ele>
        <time>2013-05-09T10:19:31Z</time>
      </trkpt>
      <trkpt lat="44.24924" lon="6.17657">
        <ele>1803.57</ele>
        <time>2013-05-09T10:19:43Z</time>
      </trkpt>
      <trkpt lat="44.24925" lon="6.17675">
        <ele>1803.57</ele>
        <time>2013-05-09T10:19:58Z</time>
      </trkpt>
      <trkpt lat="44.24926" lon="6.1768">
        <ele>1806.45</ele>
        <time>2013-05-09T10:20:02Z</time>
      </trkpt>
      <trkpt lat="44.24928" lon="6.17689">
        <ele>1807.9</ele>
        <time>2013-05-09T10:20:16Z</time>
      </trkpt>
      <trkpt lat="44.24928" lon="6.17693">
        <ele>1808.86</ele>
        <time>2013-05-09T10:20:27Z</time>
      </trkpt>
      <trkpt lat="44.24928" lon="6.17693">
        <ele>1808.38</ele>
        <time>2013-05-09T10:20:45Z</time>
      </trkpt>
      <trkpt lat="44.24928" lon="6.17693">
        <ele>1808.38</ele>
        <time>2013-05-09T10:21:12Z</time>
      </trkpt>
      <trkpt lat="44.24928" lon="6.17693">
        <ele>1808.38</ele>
        <time>2013-05-09T10:21:33Z</time>
      </trkpt>
      <trkpt lat="44.24928" lon="6.17694">
        <ele>1808.86</ele>
        <time>2013-05-09T10:22:07Z</time>
      </trkpt>
      <trkpt lat="44.24927" lon="6.17694">
        <ele>1808.38</ele>
        <time>2013-05-09T10:22:30Z</time>
      </trkpt>
      <trkpt lat="44.24927" lon="6.17692">
        <ele>1807.9</ele>
        <time>2013-05-09T10:22:54Z</time>
      </trkpt>
      <trkpt lat="44.24927" lon="6.17693">
        <ele>1808.38</ele>
        <time>2013-05-09T10:23:09Z</time>
      </trkpt>
      <trkpt lat="44.24927" lon="6.17694">
        <ele>1808.86</ele>
        <time>2013-05-09T10:23:35Z</time>
      </trkpt>
      <trkpt lat="44.24927" lon="6.17693">
        <ele>1808.86</ele>
        <time>2013-05-09T10:24:00Z</time>
      </trkpt>
      <trkpt lat="44.24931" lon="6.17699">
        <ele>1809.82</ele>
        <time>2013-05-09T10:24:25Z</time>
      </trkpt>
      <trkpt lat="44.24937" lon="6.1771">
        <ele>1812.22</ele>
        <time>2013-05-09T10:24:39Z</time>
      </trkpt>
      <trkpt lat="44.24938" lon="6.17719">
        <ele>1813.66</ele>
        <time>2013-05-09T10:24:50Z</time>
      </trkpt>
      <trkpt lat="44.24943" lon="6.17731">
        <ele>1816.07</ele>
        <time>2013-05-09T10:25:05Z</time>
      </trkpt>
      <trkpt lat="44.24946" lon="6.17742">
        <ele>1818.47</ele>
        <time>2013-05-09T10:25:17Z</time>
      </trkpt>
      <trkpt lat="44.24951" lon="6.17757">
        <ele>1820.39</ele>
        <time>2013-05-09T10:25:33Z</time>
      </trkpt>
      <trkpt lat="44.24954" lon="6.17764">
        <ele>1824.72</ele>
        <time>2013-05-09T10:25:45Z</time>
      </trkpt>
      <trkpt lat="44.24958" lon="6.17775">
        <ele>1824.72</ele>
        <time>2013-05-09T10:25:58Z</time>
      </trkpt>
      <trkpt lat="44.24959" lon="6.17782">
        <ele>1825.68</ele>
        <time>2013-05-09T10:26:04Z</time>
      </trkpt>
      <trkpt lat="44.24962" lon="6.1779">
        <ele>1826.64</ele>
        <time>2013-05-09T10:26:10Z</time>
      </trkpt>
      <trkpt lat="44.24963" lon="6.17793">
        <ele>1828.56</ele>
        <time>2013-05-09T10:26:13Z</time>
      </trkpt>
      <trkpt lat="44.24967" lon="6.178">
        <ele>1830.01</ele>
        <time>2013-05-09T10:26:22Z</time>
      </trkpt>
      <trkpt lat="44.24967" lon="6.17801">
        <ele>1827.12</ele>
        <time>2013-05-09T10:26:27Z</time>
      </trkpt>
      <trkpt lat="44.24969" lon="6.17805">
        <ele>1829.05</ele>
        <time>2013-05-09T10:26:32Z</time>
      </trkpt>
      <trkpt lat="44.24975" lon="6.17821">
        <ele>1830.01</ele>
        <time>2013-05-09T10:26:46Z</time>
      </trkpt>
      <trkpt lat="44.24978" lon="6.17828">
        <ele>1832.89</ele>
        <time>2013-05-09T10:26:52Z</time>
      </trkpt>
      <trkpt lat="44.24983" lon="6.17843">
        <ele>1834.33</ele>
        <time>2013-05-09T10:27:04Z</time>
      </trkpt>
      <trkpt lat="44.24987" lon="6.17864">
        <ele>1834.33</ele>
        <time>2013-05-09T10:27:19Z</time>
      </trkpt>
      <trkpt lat="44.24989" lon="6.17871">
        <ele>1835.77</ele>
        <time>2013-05-09T10:27:25Z</time>
      </trkpt>
      <trkpt lat="44.24992" lon="6.17889">
        <ele>1836.74</ele>
        <time>2013-05-09T10:27:39Z</time>
      </trkpt>
      <trkpt lat="44.24998" lon="6.17909">
        <ele>1837.7</ele>
        <time>2013-05-09T10:27:54Z</time>
      </trkpt>
      <trkpt lat="44.25002" lon="6.17921">
        <ele>1841.06</ele>
        <time>2013-05-09T10:28:02Z</time>
      </trkpt>
      <trkpt lat="44.25007" lon="6.17937">
        <ele>1841.06</ele>
        <time>2013-05-09T10:28:15Z</time>
      </trkpt>
      <trkpt lat="44.25012" lon="6.17954">
        <ele>1844.43</ele>
        <time>2013-05-09T10:28:26Z</time>
      </trkpt>
      <trkpt lat="44.25018" lon="6.17973">
        <ele>1843.95</ele>
        <time>2013-05-09T10:28:41Z</time>
      </trkpt>
      <trkpt lat="44.25022" lon="6.17989">
        <ele>1845.87</ele>
        <time>2013-05-09T10:28:54Z</time>
      </trkpt>
      <trkpt lat="44.25025" lon="6.18">
        <ele>1846.35</ele>
        <time>2013-05-09T10:29:05Z</time>
      </trkpt>
      <trkpt lat="44.25029" lon="6.18016">
        <ele>1845.87</ele>
        <time>2013-05-09T10:29:15Z</time>
      </trkpt>
      <trkpt lat="44.25035" lon="6.18026">
        <ele>1847.79</ele>
        <time>2013-05-09T10:29:23Z</time>
      </trkpt>
      <trkpt lat="44.25045" lon="6.18041">
        <ele>1847.79</ele>
        <time>2013-05-09T10:29:35Z</time>
      </trkpt>
      <trkpt lat="44.25053" lon="6.18056">
        <ele>1846.83</ele>
        <time>2013-05-09T10:29:48Z</time>
      </trkpt>
      <trkpt lat="44.25055" lon="6.18074">
        <ele>1847.79</ele>
        <time>2013-05-09T10:30:01Z</time>
      </trkpt>
      <trkpt lat="44.25058" lon="6.1809">
        <ele>1847.31</ele>
        <time>2013-05-09T10:30:13Z</time>
      </trkpt>
      <trkpt lat="44.25062" lon="6.18104">
        <ele>1849.23</ele>
        <time>2013-05-09T10:30:24Z</time>
      </trkpt>
      <trkpt lat="44.25063" lon="6.18111">
        <ele>1849.71</ele>
        <time>2013-05-09T10:30:35Z</time>
      </trkpt>
      <trkpt lat="44.25062" lon="6.18118">
        <ele>1851.64</ele>
        <time>2013-05-09T10:30:46Z</time>
      </trkpt>
      <trkpt lat="44.25063" lon="6.18123">
        <ele>1853.08</ele>
        <time>2013-05-09T10:30:52Z</time>
      </trkpt>
      <trkpt lat="44.25064" lon="6.18129">
        <ele>1853.56</ele>
        <time>2013-05-09T10:30:57Z</time>
      </trkpt>
      <trkpt lat="44.25066" lon="6.18136">
        <ele>1853.56</ele>
        <time>2013-05-09T10:31:10Z</time>
      </trkpt>
      <trkpt lat="44.25067" lon="6.1814">
        <ele>1853.56</ele>
        <time>2013-05-09T10:31:16Z</time>
      </trkpt>
      <trkpt lat="44.25072" lon="6.18151">
        <ele>1853.08</ele>
        <time>2013-05-09T10:31:29Z</time>
      </trkpt>
      <trkpt lat="44.25072" lon="6.18164">
        <ele>1855.48</ele>
        <time>2013-05-09T10:31:44Z</time>
      </trkpt>
      <trkpt lat="44.25071" lon="6.18174">
        <ele>1856.44</ele>
        <time>2013-05-09T10:31:55Z</time>
      </trkpt>
      <trkpt lat="44.2507" lon="6.18181">
        <ele>1857.4</ele>
        <time>2013-05-09T10:32:02Z</time>
      </trkpt>
      <trkpt lat="44.25069" lon="6.18189">
        <ele>1856.92</ele>
        <time>2013-05-09T10:32:18Z</time>
      </trkpt>
      <trkpt lat="44.25069" lon="6.18199">
        <ele>1859.81</ele>
        <time>2013-05-09T10:32:30Z</time>
      </trkpt>
      <trkpt lat="44.25071" lon="6.18211">
        <ele>1860.29</ele>
        <time>2013-05-09T10:32:43Z</time>
      </trkpt>
      <trkpt lat="44.25072" lon="6.18222">
        <ele>1861.25</ele>
        <time>2013-05-09T10:32:55Z</time>
      </trkpt>
      <trkpt lat="44.25072" lon="6.18224">
        <ele>1860.77</ele>
        <time>2013-05-09T10:32:57Z</time>
      </trkpt>
      <trkpt lat="44.25071" lon="6.1823">
        <ele>1861.25</ele>
        <time>2013-05-09T10:33:02Z</time>
      </trkpt>
      <trkpt lat="44.25073" lon="6.18249">
        <ele>1863.17</ele>
        <time>2013-05-09T10:33:17Z</time>
      </trkpt>
      <trkpt lat="44.25077" lon="6.18264">
        <ele>1865.09</ele>
        <time>2013-05-09T10:33:30Z</time>
      </trkpt>
      <trkpt lat="44.2508" lon="6.18281">
        <ele>1867.02</ele>
        <time>2013-05-09T10:33:43Z</time>
      </trkpt>
      <trkpt lat="44.2508" lon="6.18282">
        <ele>1865.09</ele>
        <time>2013-05-09T10:33:44Z</time>
      </trkpt>
      <trkpt lat="44.25081" lon="6.18287">
        <ele>1867.02</ele>
        <time>2013-05-09T10:33:59Z</time>
      </trkpt>
      <trkpt lat="44.2508" lon="6.18286">
        <ele>1867.02</ele>
        <time>2013-05-09T10:34:29Z</time>
      </trkpt>
      <trkpt lat="44.2508" lon="6.18287">
        <ele>1866.54</ele>
        <time>2013-05-09T10:34:55Z</time>
      </trkpt>
      <trkpt lat="44.2508" lon="6.18287">
        <ele>1867.02</ele>
        <time>2013-05-09T10:35:20Z</time>
      </trkpt>
      <trkpt lat="44.25079" lon="6.18284">
        <ele>1867.02</ele>
        <time>2013-05-09T10:35:47Z</time>
      </trkpt>
      <trkpt lat="44.25079" lon="6.18286">
        <ele>1866.54</ele>
        <time>2013-05-09T10:36:25Z</time>
      </trkpt>
      <trkpt lat="44.25078" lon="6.18285">
        <ele>1867.02</ele>
        <time>2013-05-09T10:37:00Z</time>
      </trkpt>
      <trkpt lat="44.2508" lon="6.18284">
        <ele>1867.5</ele>
        <time>2013-05-09T10:37:39Z</time>
      </trkpt>
      <trkpt lat="44.25081" lon="6.18286">
        <ele>1867.5</ele>
        <time>2013-05-09T10:38:10Z</time>
      </trkpt>
      <trkpt lat="44.25079" lon="6.18284">
        <ele>1867.5</ele>
        <time>2013-05-09T10:38:38Z</time>
      </trkpt>
      <trkpt lat="44.2508" lon="6.18287">
        <ele>1867.5</ele>
        <time>2013-05-09T10:38:52Z</time>
      </trkpt>
      <trkpt lat="44.25076" lon="6.18284">
        <ele>1867.98</ele>
        <time>2013-05-09T10:39:07Z</time>
      </trkpt>
      <trkpt lat="44.25079" lon="6.1828">
        <ele>1867.5</ele>
        <time>2013-05-09T10:39:28Z</time>
      </trkpt>
      <trkpt lat="44.25079" lon="6.18282">
        <ele>1867.02</ele>
        <time>2013-05-09T10:39:33Z</time>
      </trkpt>
      <trkpt lat="44.25079" lon="6.1829">
        <ele>1868.94</ele>
        <time>2013-05-09T10:39:46Z</time>
      </trkpt>
      <trkpt lat="44.2508" lon="6.1829">
        <ele>1868.94</ele>
        <time>2013-05-09T10:39:47Z</time>
      </trkpt>
      <trkpt lat="44.25081" lon="6.18301">
        <ele>1869.42</ele>
        <time>2013-05-09T10:40:00Z</time>
      </trkpt>
      <trkpt lat="44.25083" lon="6.18308">
        <ele>1869.9</ele>
        <time>2013-05-09T10:40:07Z</time>
      </trkpt>
      <trkpt lat="44.25085" lon="6.18323">
        <ele>1870.38</ele>
        <time>2013-05-09T10:40:17Z</time>
      </trkpt>
      <trkpt lat="44.25088" lon="6.18344">
        <ele>1870.86</ele>
        <time>2013-05-09T10:40:32Z</time>
      </trkpt>
      <trkpt lat="44.25093" lon="6.18363">
        <ele>1872.3</ele>
        <time>2013-05-09T10:40:45Z</time>
      </trkpt>
      <trkpt lat="44.25104" lon="6.18375">
        <ele>1874.23</ele>
        <time>2013-05-09T10:41:01Z</time>
      </trkpt>
      <trkpt lat="44.2511" lon="6.18386">
        <ele>1876.15</ele>
        <time>2013-05-09T10:41:14Z</time>
      </trkpt>
      <trkpt lat="44.25117" lon="6.18395">
        <ele>1879.51</ele>
        <time>2013-05-09T10:41:26Z</time>
      </trkpt>
      <trkpt lat="44.25127" lon="6.18397">
        <ele>1881.92</ele>
        <time>2013-05-09T10:41:40Z</time>
      </trkpt>
      <trkpt lat="44.2514" lon="6.18403">
        <ele>1881.92</ele>
        <time>2013-05-09T10:41:53Z</time>
      </trkpt>
      <trkpt lat="44.25148" lon="6.18405">
        <ele>1882.88</ele>
        <time>2013-05-09T10:42:05Z</time>
      </trkpt>
      <trkpt lat="44.25156" lon="6.18415">
        <ele>1885.76</ele>
        <time>2013-05-09T10:42:17Z</time>
      </trkpt>
      <trkpt lat="44.25157" lon="6.18415">
        <ele>1886.24</ele>
        <time>2013-05-09T10:42:18Z</time>
      </trkpt>
      <trkpt lat="44.2516" lon="6.18417">
        <ele>1884.8</ele>
        <time>2013-05-09T10:42:21Z</time>
      </trkpt>
      <trkpt lat="44.25161" lon="6.18423">
        <ele>1885.28</ele>
        <time>2013-05-09T10:42:26Z</time>
      </trkpt>
      <trkpt lat="44.25165" lon="6.18427">
        <ele>1887.21</ele>
        <time>2013-05-09T10:42:32Z</time>
      </trkpt>
      <trkpt lat="44.25169" lon="6.18428">
        <ele>1888.17</ele>
        <time>2013-05-09T10:42:36Z</time>
      </trkpt>
      <trkpt lat="44.25178" lon="6.18436">
        <ele>1890.57</ele>
        <time>2013-05-09T10:42:48Z</time>
      </trkpt>
      <trkpt lat="44.25182" lon="6.1844">
        <ele>1889.13</ele>
        <time>2013-05-09T10:42:54Z</time>
      </trkpt>
      <trkpt lat="44.25192" lon="6.18447">
        <ele>1891.53</ele>
        <time>2013-05-09T10:43:07Z</time>
      </trkpt>
      <trkpt lat="44.25194" lon="6.18448">
        <ele>1892.01</ele>
        <time>2013-05-09T10:43:09Z</time>
      </trkpt>
      <trkpt lat="44.25201" lon="6.18453">
        <ele>1893.45</ele>
        <time>2013-05-09T10:43:22Z</time>
      </trkpt>
      <trkpt lat="44.25207" lon="6.18455">
        <ele>1892.97</ele>
        <time>2013-05-09T10:43:30Z</time>
      </trkpt>
      <trkpt lat="44.25209" lon="6.18456">
        <ele>1893.93</ele>
        <time>2013-05-09T10:43:32Z</time>
      </trkpt>
      <trkpt lat="44.25219" lon="6.18464">
        <ele>1894.9</ele>
        <time>2013-05-09T10:43:44Z</time>
      </trkpt>
      <trkpt lat="44.25228" lon="6.18464">
        <ele>1897.78</ele>
        <time>2013-05-09T10:43:57Z</time>
      </trkpt>
      <trkpt lat="44.25234" lon="6.18468">
        <ele>1898.74</ele>
        <time>2013-05-09T10:44:08Z</time>
      </trkpt>
      <trkpt lat="44.25241" lon="6.18473">
        <ele>1901.63</ele>
        <time>2013-05-09T10:44:21Z</time>
      </trkpt>
      <trkpt lat="44.25246" lon="6.18473">
        <ele>1903.07</ele>
        <time>2013-05-09T10:44:34Z</time>
      </trkpt>
      <trkpt lat="44.2525" lon="6.18472">
        <ele>1906.43</ele>
        <time>2013-05-09T10:44:40Z</time>
      </trkpt>
      <trkpt lat="44.25258" lon="6.18472">
        <ele>1906.91</ele>
        <time>2013-05-09T10:44:52Z</time>
      </trkpt>
      <trkpt lat="44.25265" lon="6.18476">
        <ele>1908.83</ele>
        <time>2013-05-09T10:45:04Z</time>
      </trkpt>
      <trkpt lat="44.25265" lon="6.18477">
        <ele>1909.32</ele>
        <time>2013-05-09T10:45:05Z</time>
      </trkpt>
      <trkpt lat="44.25269" lon="6.1849">
        <ele>1912.2</ele>
        <time>2013-05-09T10:45:19Z</time>
      </trkpt>
      <trkpt lat="44.25275" lon="6.18499">
        <ele>1913.16</ele>
        <time>2013-05-09T10:45:31Z</time>
      </trkpt>
      <trkpt lat="44.25278" lon="6.18503">
        <ele>1913.64</ele>
        <time>2013-05-09T10:45:38Z</time>
      </trkpt>
      <trkpt lat="44.2528" lon="6.18505">
        <ele>1915.08</ele>
        <time>2013-05-09T10:45:41Z</time>
      </trkpt>
      <trkpt lat="44.2529" lon="6.18509">
        <ele>1917.49</ele>
        <time>2013-05-09T10:45:55Z</time>
      </trkpt>
      <trkpt lat="44.25293" lon="6.1851">
        <ele>1916.53</ele>
        <time>2013-05-09T10:46:08Z</time>
      </trkpt>
      <trkpt lat="44.25289" lon="6.18504">
        <ele>1917.01</ele>
        <time>2013-05-09T10:46:39Z</time>
      </trkpt>
      <trkpt lat="44.25292" lon="6.18504">
        <ele>1917.49</ele>
        <time>2013-05-09T10:47:08Z</time>
      </trkpt>
      <trkpt lat="44.25308" lon="6.18497">
        <ele>1915.08</ele>
        <time>2013-05-09T10:47:24Z</time>
      </trkpt>
      <trkpt lat="44.25314" lon="6.18496">
        <ele>1915.08</ele>
        <time>2013-05-09T10:47:37Z</time>
      </trkpt>
      <trkpt lat="44.25325" lon="6.18491">
        <ele>1914.12</ele>
        <time>2013-05-09T10:47:52Z</time>
      </trkpt>
      <trkpt lat="44.25332" lon="6.18482">
        <ele>1912.68</ele>
        <time>2013-05-09T10:48:01Z</time>
      </trkpt>
      <trkpt lat="44.25339" lon="6.18481">
        <ele>1910.76</ele>
        <time>2013-05-09T10:48:07Z</time>
      </trkpt>
      <trkpt lat="44.25344" lon="6.18477">
        <ele>1911.24</ele>
        <time>2013-05-09T10:48:22Z</time>
      </trkpt>
      <trkpt lat="44.25344" lon="6.18477">
        <ele>1906.91</ele>
        <time>2013-05-09T10:48:30Z</time>
      </trkpt>
      <trkpt lat="44.25343" lon="6.18476">
        <ele>1914.6</ele>
        <time>2013-05-09T10:48:31Z</time>
      </trkpt>
      <trkpt lat="44.25344" lon="6.18477">
        <ele>1910.76</ele>
        <time>2013-05-09T10:48:32Z</time>
      </trkpt>
      <trkpt lat="44.25343" lon="6.1848">
        <ele>1910.76</ele>
        <time>2013-05-09T10:49:06Z</time>
      </trkpt>
      <trkpt lat="44.25344" lon="6.18477">
        <ele>1910.76</ele>
        <time>2013-05-09T10:49:35Z</time>
      </trkpt>
      <trkpt lat="44.25341" lon="6.18476">
        <ele>1911.24</ele>
        <time>2013-05-09T10:50:13Z</time>
      </trkpt>
      <trkpt lat="44.25344" lon="6.18479">
        <ele>1911.24</ele>
        <time>2013-05-09T10:50:46Z</time>
      </trkpt>
      <trkpt lat="44.25344" lon="6.18478">
        <ele>1906.91</ele>
        <time>2013-05-09T10:51:04Z</time>
      </trkpt>
      <trkpt lat="44.25344" lon="6.18478">
        <ele>1911.72</ele>
        <time>2013-05-09T10:51:05Z</time>
      </trkpt>
      <trkpt lat="44.25344" lon="6.1848">
        <ele>1911.24</ele>
        <time>2013-05-09T10:51:37Z</time>
      </trkpt>
      <trkpt lat="44.25343" lon="6.1848">
        <ele>1911.72</ele>
        <time>2013-05-09T10:52:07Z</time>
      </trkpt>
      <trkpt lat="44.25345" lon="6.1848">
        <ele>1912.68</ele>
        <time>2013-05-09T10:52:28Z</time>
      </trkpt>
      <trkpt lat="44.25343" lon="6.18478">
        <ele>1911.72</ele>
        <time>2013-05-09T10:52:54Z</time>
      </trkpt>
      <trkpt lat="44.25344" lon="6.18478">
        <ele>1911.72</ele>
        <time>2013-05-09T10:53:33Z</time>
      </trkpt>
      <trkpt lat="44.25345" lon="6.18478">
        <ele>1912.68</ele>
        <time>2013-05-09T10:54:11Z</time>
      </trkpt>
      <trkpt lat="44.25344" lon="6.18477">
        <ele>1912.68</ele>
        <time>2013-05-09T10:54:57Z</time>
      </trkpt>
      <trkpt lat="44.25343" lon="6.18478">
        <ele>1912.68</ele>
        <time>2013-05-09T10:55:36Z</time>
      </trkpt>
      <trkpt lat="44.25342" lon="6.18479">
        <ele>1912.68</ele>
        <time>2013-05-09T10:56:17Z</time>
      </trkpt>
      <trkpt lat="44.25344" lon="6.1848">
        <ele>1913.16</ele>
        <time>2013-05-09T10:56:50Z</time>
      </trkpt>
      <trkpt lat="44.25344" lon="6.1848">
        <ele>1912.68</ele>
        <time>2013-05-09T10:57:21Z</time>
      </trkpt>
      <trkpt lat="44.25344" lon="6.18481">
        <ele>1913.16</ele>
        <time>2013-05-09T10:57:55Z</time>
      </trkpt>
      <trkpt lat="44.25344" lon="6.18481">
        <ele>1913.64</ele>
        <time>2013-05-09T10:58:24Z</time>
      </trkpt>
      <trkpt lat="44.25343" lon="6.18479">
        <ele>1913.64</ele>
        <time>2013-05-09T10:58:57Z</time>
      </trkpt>
      <trkpt lat="44.25343" lon="6.18479">
        <ele>1913.64</ele>
        <time>2013-05-09T10:59:28Z</time>
      </trkpt>
      <trkpt lat="44.25343" lon="6.18477">
        <ele>1914.12</ele>
        <time>2013-05-09T11:00:03Z</time>
      </trkpt>
      <trkpt lat="44.25344" lon="6.18478">
        <ele>1914.12</ele>
        <time>2013-05-09T11:00:42Z</time>
      </trkpt>
      <trkpt lat="44.25344" lon="6.18476">
        <ele>1914.12</ele>
        <time>2013-05-09T11:01:18Z</time>
      </trkpt>
      <trkpt lat="44.25344" lon="6.18477">
        <ele>1914.6</ele>
        <time>2013-05-09T11:01:47Z</time>
      </trkpt>
      <trkpt lat="44.25343" lon="6.18479">
        <ele>1910.28</ele>
        <time>2013-05-09T11:02:05Z</time>
      </trkpt>
      <trkpt lat="44.25342" lon="6.18479">
        <ele>1917.97</ele>
        <time>2013-05-09T11:02:06Z</time>
      </trkpt>
      <trkpt lat="44.25342" lon="6.18479">
        <ele>1914.12</ele>
        <time>2013-05-09T11:02:07Z</time>
      </trkpt>
      <trkpt lat="44.25342" lon="6.18491">
        <ele>1914.6</ele>
        <time>2013-05-09T11:02:32Z</time>
      </trkpt>
      <trkpt lat="44.25344" lon="6.18492">
        <ele>1914.12</ele>
        <time>2013-05-09T11:02:58Z</time>
      </trkpt>
      <trkpt lat="44.25345" lon="6.18482">
        <ele>1914.6</ele>
        <time>2013-05-09T11:03:27Z</time>
      </trkpt>
      <trkpt lat="44.25342" lon="6.18479">
        <ele>1914.6</ele>
        <time>2013-05-09T11:03:52Z</time>
      </trkpt>
      <trkpt lat="44.25343" lon="6.18487">
        <ele>1914.6</ele>
        <time>2013-05-09T11:04:18Z</time>
      </trkpt>
      <trkpt lat="44.25344" lon="6.18484">
        <ele>1914.6</ele>
        <time>2013-05-09T11:04:58Z</time>
      </trkpt>
      <trkpt lat="44.25343" lon="6.1848">
        <ele>1914.6</ele>
        <time>2013-05-09T11:05:29Z</time>
      </trkpt>
      <trkpt lat="44.25343" lon="6.18476">
        <ele>1910.76</ele>
        <time>2013-05-09T11:05:31Z</time>
      </trkpt>
      <trkpt lat="44.25343" lon="6.18476">
        <ele>1911.72</ele>
        <time>2013-05-09T11:05:32Z</time>
      </trkpt>
      <trkpt lat="44.25343" lon="6.18476">
        <ele>1917.49</ele>
        <time>2013-05-09T11:05:33Z</time>
      </trkpt>
      <trkpt lat="44.25342" lon="6.18474">
        <ele>1917.49</ele>
        <time>2013-05-09T11:05:34Z</time>
      </trkpt>
      <trkpt lat="44.25341" lon="6.18474">
        <ele>1913.64</ele>
        <time>2013-05-09T11:05:35Z</time>
      </trkpt>
      <trkpt lat="44.25341" lon="6.18475">
        <ele>1916.04</ele>
        <time>2013-05-09T11:05:36Z</time>
      </trkpt>
      <trkpt lat="44.25343" lon="6.18488">
        <ele>1915.08</ele>
        <time>2013-05-09T11:11:06Z</time>
      </trkpt>
      <trkpt lat="44.25323" lon="6.18464">
        <ele>1914.6</ele>
        <time>2013-05-09T11:11:45Z</time>
      </trkpt>
      <trkpt lat="44.25343" lon="6.18469">
        <ele>1915.08</ele>
        <time>2013-05-09T11:17:47Z</time>
      </trkpt>
      <trkpt lat="44.25341" lon="6.1847">
        <ele>1913.64</ele>
        <time>2013-05-09T11:18:04Z</time>
      </trkpt>
      <trkpt lat="44.2534" lon="6.1847">
        <ele>1916.04</ele>
        <time>2013-05-09T11:18:05Z</time>
      </trkpt>
      <trkpt lat="44.25341" lon="6.1847">
        <ele>1915.08</ele>
        <time>2013-05-09T11:18:35Z</time>
      </trkpt>
      <trkpt lat="44.25345" lon="6.18477">
        <ele>1915.08</ele>
        <time>2013-05-09T11:19:00Z</time>
      </trkpt>
      <trkpt lat="44.25345" lon="6.1848">
        <ele>1915.08</ele>
        <time>2013-05-09T11:19:26Z</time>
      </trkpt>
      <trkpt lat="44.25346" lon="6.18479">
        <ele>1914.6</ele>
        <time>2013-05-09T11:19:49Z</time>
      </trkpt>
      <trkpt lat="44.25345" lon="6.18478">
        <ele>1916.04</ele>
        <time>2013-05-09T11:19:53Z</time>
      </trkpt>
      <trkpt lat="44.25339" lon="6.18479">
        <ele>1915.56</ele>
        <time>2013-05-09T11:20:13Z</time>
      </trkpt>
      <trkpt lat="44.2534" lon="6.18479">
        <ele>1914.12</ele>
        <time>2013-05-09T11:20:31Z</time>
      </trkpt>
      <trkpt lat="44.2534" lon="6.18479">
        <ele>1918.45</ele>
        <time>2013-05-09T11:20:33Z</time>
      </trkpt>
      <trkpt lat="44.25341" lon="6.18479">
        <ele>1914.12</ele>
        <time>2013-05-09T11:20:34Z</time>
      </trkpt>
      <trkpt lat="44.25342" lon="6.18478">
        <ele>1915.08</ele>
        <time>2013-05-09T11:21:02Z</time>
      </trkpt>
      <trkpt lat="44.25342" lon="6.18478">
        <ele>1914.6</ele>
        <time>2013-05-09T11:21:41Z</time>
      </trkpt>
      <trkpt lat="44.25342" lon="6.18479">
        <ele>1914.6</ele>
        <time>2013-05-09T11:22:10Z</time>
      </trkpt>
      <trkpt lat="44.25343" lon="6.1848">
        <ele>1915.08</ele>
        <time>2013-05-09T11:22:41Z</time>
      </trkpt>
      <trkpt lat="44.25343" lon="6.1848">
        <ele>1915.56</ele>
        <time>2013-05-09T11:22:59Z</time>
      </trkpt>
      <trkpt lat="44.25342" lon="6.18477">
        <ele>1915.56</ele>
        <time>2013-05-09T11:23:21Z</time>
      </trkpt>
      <trkpt lat="44.25343" lon="6.18475">
        <ele>1915.56</ele>
        <time>2013-05-09T11:23:46Z</time>
      </trkpt>
      <trkpt lat="44.25344" lon="6.18477">
        <ele>1915.56</ele>
        <time>2013-05-09T11:24:08Z</time>
      </trkpt>
      <trkpt lat="44.25348" lon="6.18478">
        <ele>1915.08</ele>
        <time>2013-05-09T11:24:27Z</time>
      </trkpt>
      <trkpt lat="44.2536" lon="6.18477">
        <ele>1916.04</ele>
        <time>2013-05-09T11:24:41Z</time>
      </trkpt>
      <trkpt lat="44.2537" lon="6.18476">
        <ele>1916.53</ele>
        <time>2013-05-09T11:24:51Z</time>
      </trkpt>
      <trkpt lat="44.25387" lon="6.18479">
        <ele>1917.49</ele>
        <time>2013-05-09T11:25:08Z</time>
      </trkpt>
      <trkpt lat="44.25402" lon="6.18484">
        <ele>1917.97</ele>
        <time>2013-05-09T11:25:23Z</time>
      </trkpt>
      <trkpt lat="44.25417" lon="6.18489">
        <ele>1918.93</ele>
        <time>2013-05-09T11:25:39Z</time>
      </trkpt>
      <trkpt lat="44.25433" lon="6.18494">
        <ele>1922.29</ele>
        <time>2013-05-09T11:25:57Z</time>
      </trkpt>
      <trkpt lat="44.25446" lon="6.18495">
        <ele>1923.74</ele>
        <time>2013-05-09T11:26:14Z</time>
      </trkpt>
      <trkpt lat="44.25459" lon="6.18497">
        <ele>1925.66</ele>
        <time>2013-05-09T11:26:30Z</time>
      </trkpt>
      <trkpt lat="44.25471" lon="6.18501">
        <ele>1927.1</ele>
        <time>2013-05-09T11:26:46Z</time>
      </trkpt>
      <trkpt lat="44.25479" lon="6.18507">
        <ele>1928.54</ele>
        <time>2013-05-09T11:26:58Z</time>
      </trkpt>
      <trkpt lat="44.25482" lon="6.18511">
        <ele>1929.02</ele>
        <time>2013-05-09T11:27:03Z</time>
      </trkpt>
      <trkpt lat="44.25484" lon="6.18512">
        <ele>1929.5</ele>
        <time>2013-05-09T11:27:05Z</time>
      </trkpt>
      <trkpt lat="44.25489" lon="6.18517">
        <ele>1931.43</ele>
        <time>2013-05-09T11:27:13Z</time>
      </trkpt>
      <trkpt lat="44.25492" lon="6.18516">
        <ele>1933.83</ele>
        <time>2013-05-09T11:27:18Z</time>
      </trkpt>
      <trkpt lat="44.255" lon="6.18509">
        <ele>1933.83</ele>
        <time>2013-05-09T11:27:32Z</time>
      </trkpt>
      <trkpt lat="44.25506" lon="6.18509">
        <ele>1937.67</ele>
        <time>2013-05-09T11:27:41Z</time>
      </trkpt>
      <trkpt lat="44.25507" lon="6.18514">
        <ele>1937.19</ele>
        <time>2013-05-09T11:27:49Z</time>
      </trkpt>
      <trkpt lat="44.25507" lon="6.1852">
        <ele>1936.71</ele>
        <time>2013-05-09T11:27:53Z</time>
      </trkpt>
      <trkpt lat="44.25513" lon="6.18536">
        <ele>1938.64</ele>
        <time>2013-05-09T11:28:07Z</time>
      </trkpt>
      <trkpt lat="44.2552" lon="6.18552">
        <ele>1941.52</ele>
        <time>2013-05-09T11:28:24Z</time>
      </trkpt>
      <trkpt lat="44.25527" lon="6.1856">
        <ele>1943.44</ele>
        <time>2013-05-09T11:28:39Z</time>
      </trkpt>
      <trkpt lat="44.25532" lon="6.18567">
        <ele>1946.33</ele>
        <time>2013-05-09T11:28:52Z</time>
      </trkpt>
      <trkpt lat="44.25536" lon="6.18576">
        <ele>1947.77</ele>
        <time>2013-05-09T11:29:06Z</time>
      </trkpt>
      <trkpt lat="44.25538" lon="6.18582">
        <ele>1950.17</ele>
        <time>2013-05-09T11:29:33Z</time>
      </trkpt>
      <trkpt lat="44.25543" lon="6.18596">
        <ele>1952.57</ele>
        <time>2013-05-09T11:29:48Z</time>
      </trkpt>
      <trkpt lat="44.25548" lon="6.18606">
        <ele>1953.06</ele>
        <time>2013-05-09T11:30:03Z</time>
      </trkpt>
      <trkpt lat="44.25548" lon="6.18608">
        <ele>1956.42</ele>
        <time>2013-05-09T11:30:05Z</time>
      </trkpt>
      <trkpt lat="44.25552" lon="6.18615">
        <ele>1956.42</ele>
        <time>2013-05-09T11:30:15Z</time>
      </trkpt>
      <trkpt lat="44.25556" lon="6.18624">
        <ele>1958.82</ele>
        <time>2013-05-09T11:30:25Z</time>
      </trkpt>
      <trkpt lat="44.25561" lon="6.18632">
        <ele>1961.71</ele>
        <time>2013-05-09T11:30:38Z</time>
      </trkpt>
      <trkpt lat="44.25561" lon="6.18636">
        <ele>1961.71</ele>
        <time>2013-05-09T11:31:00Z</time>
      </trkpt>
      <trkpt lat="44.2557" lon="6.18644">
        <ele>1963.15</ele>
        <time>2013-05-09T11:31:16Z</time>
      </trkpt>
      <trkpt lat="44.25573" lon="6.1865">
        <ele>1966.51</ele>
        <time>2013-05-09T11:31:23Z</time>
      </trkpt>
      <trkpt lat="44.25573" lon="6.18651">
        <ele>1965.07</ele>
        <time>2013-05-09T11:31:24Z</time>
      </trkpt>
      <trkpt lat="44.25581" lon="6.18659">
        <ele>1968.44</ele>
        <time>2013-05-09T11:31:37Z</time>
      </trkpt>
      <trkpt lat="44.25584" lon="6.18664">
        <ele>1967.48</ele>
        <time>2013-05-09T11:31:44Z</time>
      </trkpt>
      <trkpt lat="44.25586" lon="6.18667">
        <ele>1967.48</ele>
        <time>2013-05-09T11:31:47Z</time>
      </trkpt>
      <trkpt lat="44.25596" lon="6.18675">
        <ele>1970.84</ele>
        <time>2013-05-09T11:32:02Z</time>
      </trkpt>
      <trkpt lat="44.25601" lon="6.1868">
        <ele>1970.36</ele>
        <time>2013-05-09T11:32:08Z</time>
      </trkpt>
      <trkpt lat="44.25611" lon="6.18692">
        <ele>1970.36</ele>
        <time>2013-05-09T11:32:21Z</time>
      </trkpt>
      <trkpt lat="44.25623" lon="6.18702">
        <ele>1972.28</ele>
        <time>2013-05-09T11:32:34Z</time>
      </trkpt>
      <trkpt lat="44.25634" lon="6.18712">
        <ele>1974.2</ele>
        <time>2013-05-09T11:32:48Z</time>
      </trkpt>
      <trkpt lat="44.25639" lon="6.18726">
        <ele>1975.17</ele>
        <time>2013-05-09T11:33:01Z</time>
      </trkpt>
      <trkpt lat="44.25645" lon="6.18735">
        <ele>1977.09</ele>
        <time>2013-05-09T11:33:13Z</time>
      </trkpt>
      <trkpt lat="44.2565" lon="6.18748">
        <ele>1977.57</ele>
        <time>2013-05-09T11:33:26Z</time>
      </trkpt>
      <trkpt lat="44.25653" lon="6.18754">
        <ele>1979.49</ele>
        <time>2013-05-09T11:33:31Z</time>
      </trkpt>
      <trkpt lat="44.25657" lon="6.1876">
        <ele>1979.49</ele>
        <time>2013-05-09T11:33:37Z</time>
      </trkpt>
      <trkpt lat="44.25665" lon="6.18763">
        <ele>1981.41</ele>
        <time>2013-05-09T11:33:47Z</time>
      </trkpt>
      <trkpt lat="44.25668" lon="6.18781">
        <ele>1982.86</ele>
        <time>2013-05-09T11:34:01Z</time>
      </trkpt>
      <trkpt lat="44.25676" lon="6.18798">
        <ele>1985.26</ele>
        <time>2013-05-09T11:34:15Z</time>
      </trkpt>
      <trkpt lat="44.25684" lon="6.18814">
        <ele>1986.7</ele>
        <time>2013-05-09T11:34:29Z</time>
      </trkpt>
      <trkpt lat="44.2569" lon="6.18826">
        <ele>1988.62</ele>
        <time>2013-05-09T11:34:42Z</time>
      </trkpt>
      <trkpt lat="44.25688" lon="6.18828">
        <ele>1988.62</ele>
        <time>2013-05-09T11:35:05Z</time>
      </trkpt>
      <trkpt lat="44.25689" lon="6.1883">
        <ele>1988.62</ele>
        <time>2013-05-09T11:35:28Z</time>
      </trkpt>
      <trkpt lat="44.25692" lon="6.18835">
        <ele>1989.59</ele>
        <time>2013-05-09T11:35:33Z</time>
      </trkpt>
      <trkpt lat="44.25694" lon="6.18838">
        <ele>1989.1</ele>
        <time>2013-05-09T11:35:36Z</time>
      </trkpt>
      <trkpt lat="44.25704" lon="6.18852">
        <ele>1991.99</ele>
        <time>2013-05-09T11:35:48Z</time>
      </trkpt>
      <trkpt lat="44.25711" lon="6.1886">
        <ele>1992.95</ele>
        <time>2013-05-09T11:35:58Z</time>
      </trkpt>
      <trkpt lat="44.25715" lon="6.18863">
        <ele>1992.47</ele>
        <time>2013-05-09T11:36:02Z</time>
      </trkpt>
      <trkpt lat="44.25718" lon="6.18867">
        <ele>1993.43</ele>
        <time>2013-05-09T11:36:06Z</time>
      </trkpt>
      <trkpt lat="44.2572" lon="6.18869">
        <ele>1994.39</ele>
        <time>2013-05-09T11:36:09Z</time>
      </trkpt>
      <trkpt lat="44.2573" lon="6.18876">
        <ele>1996.8</ele>
        <time>2013-05-09T11:36:22Z</time>
      </trkpt>
      <trkpt lat="44.25743" lon="6.18885">
        <ele>1998.24</ele>
        <time>2013-05-09T11:36:36Z</time>
      </trkpt>
      <trkpt lat="44.25757" lon="6.18896">
        <ele>1999.68</ele>
        <time>2013-05-09T11:36:50Z</time>
      </trkpt>
      <trkpt lat="44.25769" lon="6.18907">
        <ele>2001.6</ele>
        <time>2013-05-09T11:37:03Z</time>
      </trkpt>
      <trkpt lat="44.25782" lon="6.18916">
        <ele>2002.08</ele>
        <time>2013-05-09T11:37:17Z</time>
      </trkpt>
      <trkpt lat="44.25786" lon="6.18917">
        <ele>2001.12</ele>
        <time>2013-05-09T11:37:20Z</time>
      </trkpt>
      <trkpt lat="44.2579" lon="6.18912">
        <ele>2003.04</ele>
        <time>2013-05-09T11:37:35Z</time>
      </trkpt>
      <trkpt lat="44.2579" lon="6.18913">
        <ele>2002.56</ele>
        <time>2013-05-09T11:38:06Z</time>
      </trkpt>
      <trkpt lat="44.2579" lon="6.18912">
        <ele>2003.04</ele>
        <time>2013-05-09T11:38:39Z</time>
      </trkpt>
      <trkpt lat="44.25791" lon="6.18912">
        <ele>2003.04</ele>
        <time>2013-05-09T11:39:03Z</time>
      </trkpt>
      <trkpt lat="44.25793" lon="6.18912">
        <ele>2003.04</ele>
        <time>2013-05-09T11:39:36Z</time>
      </trkpt>
      <trkpt lat="44.25794" lon="6.18912">
        <ele>2003.52</ele>
        <time>2013-05-09T11:40:00Z</time>
      </trkpt>
      <trkpt lat="44.25795" lon="6.18913">
        <ele>2003.04</ele>
        <time>2013-05-09T11:40:37Z</time>
      </trkpt>
      <trkpt lat="44.25804" lon="6.1892">
        <ele>2003.52</ele>
        <time>2013-05-09T11:40:50Z</time>
      </trkpt>
      <trkpt lat="44.25818" lon="6.18929">
        <ele>2004.01</ele>
        <time>2013-05-09T11:41:06Z</time>
      </trkpt>
      <trkpt lat="44.25827" lon="6.18934">
        <ele>2004.49</ele>
        <time>2013-05-09T11:41:19Z</time>
      </trkpt>
      <trkpt lat="44.25829" lon="6.18936">
        <ele>2004.01</ele>
        <time>2013-05-09T11:41:21Z</time>
      </trkpt>
      <trkpt lat="44.2584" lon="6.18943">
        <ele>2003.52</ele>
        <time>2013-05-09T11:41:36Z</time>
      </trkpt>
      <trkpt lat="44.25841" lon="6.18944">
        <ele>2003.52</ele>
        <time>2013-05-09T11:41:37Z</time>
      </trkpt>
      <trkpt lat="44.25854" lon="6.18959">
        <ele>2003.52</ele>
        <time>2013-05-09T11:41:54Z</time>
      </trkpt>
      <trkpt lat="44.25863" lon="6.18971">
        <ele>2002.08</ele>
        <time>2013-05-09T11:42:07Z</time>
      </trkpt>
      <trkpt lat="44.25874" lon="6.18983">
        <ele>2001.6</ele>
        <time>2013-05-09T11:42:21Z</time>
      </trkpt>
      <trkpt lat="44.25878" lon="6.18988">
        <ele>2004.01</ele>
        <time>2013-05-09T11:42:25Z</time>
      </trkpt>
      <trkpt lat="44.2588" lon="6.1899">
        <ele>2003.52</ele>
        <time>2013-05-09T11:42:28Z</time>
      </trkpt>
      <trkpt lat="44.25888" lon="6.19004">
        <ele>2005.45</ele>
        <time>2013-05-09T11:42:42Z</time>
      </trkpt>
      <trkpt lat="44.25894" lon="6.19017">
        <ele>2006.41</ele>
        <time>2013-05-09T11:42:55Z</time>
      </trkpt>
      <trkpt lat="44.25897" lon="6.19021">
        <ele>2009.29</ele>
        <time>2013-05-09T11:43:01Z</time>
      </trkpt>
      <trkpt lat="44.25903" lon="6.19032">
        <ele>2010.73</ele>
        <time>2013-05-09T11:43:15Z</time>
      </trkpt>
      <trkpt lat="44.25906" lon="6.19036">
        <ele>2013.62</ele>
        <time>2013-05-09T11:43:20Z</time>
      </trkpt>
      <trkpt lat="44.25911" lon="6.19047">
        <ele>2015.06</ele>
        <time>2013-05-09T11:43:32Z</time>
      </trkpt>
      <trkpt lat="44.25916" lon="6.19057">
        <ele>2016.5</ele>
        <time>2013-05-09T11:43:44Z</time>
      </trkpt>
      <trkpt lat="44.25921" lon="6.19067">
        <ele>2018.91</ele>
        <time>2013-05-09T11:43:56Z</time>
      </trkpt>
      <trkpt lat="44.25929" lon="6.19081">
        <ele>2020.35</ele>
        <time>2013-05-09T11:44:10Z</time>
      </trkpt>
      <trkpt lat="44.25933" lon="6.19091">
        <ele>2019.87</ele>
        <time>2013-05-09T11:44:20Z</time>
      </trkpt>
      <trkpt lat="44.25936" lon="6.19094">
        <ele>2021.79</ele>
        <time>2013-05-09T11:44:23Z</time>
      </trkpt>
      <trkpt lat="44.25947" lon="6.19107">
        <ele>2022.75</ele>
        <time>2013-05-09T11:44:37Z</time>
      </trkpt>
      <trkpt lat="44.25958" lon="6.19118">
        <ele>2022.75</ele>
        <time>2013-05-09T11:44:49Z</time>
      </trkpt>
      <trkpt lat="44.25961" lon="6.19119">
        <ele>2024.19</ele>
        <time>2013-05-09T11:44:52Z</time>
      </trkpt>
      <trkpt lat="44.25967" lon="6.1912">
        <ele>2026.12</ele>
        <time>2013-05-09T11:45:02Z</time>
      </trkpt>
      <trkpt lat="44.25974" lon="6.19113">
        <ele>2024.67</ele>
        <time>2013-05-09T11:45:14Z</time>
      </trkpt>
      <trkpt lat="44.25983" lon="6.1912">
        <ele>2027.56</ele>
        <time>2013-05-09T11:45:29Z</time>
      </trkpt>
      <trkpt lat="44.2599" lon="6.19128">
        <ele>2029.48</ele>
        <time>2013-05-09T11:45:43Z</time>
      </trkpt>
      <trkpt lat="44.25991" lon="6.19131">
        <ele>2032.36</ele>
        <time>2013-05-09T11:45:47Z</time>
      </trkpt>
      <trkpt lat="44.25995" lon="6.19141">
        <ele>2029.96</ele>
        <time>2013-05-09T11:45:56Z</time>
      </trkpt>
      <trkpt lat="44.25998" lon="6.19146">
        <ele>2031.88</ele>
        <time>2013-05-09T11:46:02Z</time>
      </trkpt>
      <trkpt lat="44.26001" lon="6.19152">
        <ele>2031.4</ele>
        <time>2013-05-09T11:46:07Z</time>
      </trkpt>
      <trkpt lat="44.26004" lon="6.19159">
        <ele>2032.36</ele>
        <time>2013-05-09T11:46:14Z</time>
      </trkpt>
      <trkpt lat="44.26012" lon="6.19169">
        <ele>2034.77</ele>
        <time>2013-05-09T11:46:27Z</time>
      </trkpt>
      <trkpt lat="44.26021" lon="6.1918">
        <ele>2037.17</ele>
        <time>2013-05-09T11:46:39Z</time>
      </trkpt>
      <trkpt lat="44.26024" lon="6.19184">
        <ele>2037.17</ele>
        <time>2013-05-09T11:46:45Z</time>
      </trkpt>
      <trkpt lat="44.26027" lon="6.19185">
        <ele>2038.13</ele>
        <time>2013-05-09T11:46:48Z</time>
      </trkpt>
      <trkpt lat="44.26037" lon="6.19195">
        <ele>2038.61</ele>
        <time>2013-05-09T11:47:02Z</time>
      </trkpt>
      <trkpt lat="44.26043" lon="6.192">
        <ele>2037.65</ele>
        <time>2013-05-09T11:47:09Z</time>
      </trkpt>
      <trkpt lat="44.26054" lon="6.19215">
        <ele>2038.13</ele>
        <time>2013-05-09T11:47:24Z</time>
      </trkpt>
      <trkpt lat="44.26059" lon="6.19225">
        <ele>2041.02</ele>
        <time>2013-05-09T11:47:38Z</time>
      </trkpt>
      <trkpt lat="44.26061" lon="6.19225">
        <ele>2040.54</ele>
        <time>2013-05-09T11:47:40Z</time>
      </trkpt>
      <trkpt lat="44.26063" lon="6.19225">
        <ele>2041.5</ele>
        <time>2013-05-09T11:47:58Z</time>
      </trkpt>
      <trkpt lat="44.26062" lon="6.19224">
        <ele>2041.5</ele>
        <time>2013-05-09T11:48:16Z</time>
      </trkpt>
      <trkpt lat="44.26062" lon="6.19226">
        <ele>2041.5</ele>
        <time>2013-05-09T11:48:49Z</time>
      </trkpt>
      <trkpt lat="44.26062" lon="6.19226">
        <ele>2041.98</ele>
        <time>2013-05-09T11:49:23Z</time>
      </trkpt>
      <trkpt lat="44.26061" lon="6.19225">
        <ele>2041.5</ele>
        <time>2013-05-09T11:49:50Z</time>
      </trkpt>
      <trkpt lat="44.26061" lon="6.19225">
        <ele>2041.5</ele>
        <time>2013-05-09T11:50:25Z</time>
      </trkpt>
      <trkpt lat="44.2606" lon="6.19226">
        <ele>2041.5</ele>
        <time>2013-05-09T11:50:54Z</time>
      </trkpt>
      <trkpt lat="44.2606" lon="6.19227">
        <ele>2041.5</ele>
        <time>2013-05-09T11:51:22Z</time>
      </trkpt>
      <trkpt lat="44.2606" lon="6.19227">
        <ele>2041.5</ele>
        <time>2013-05-09T11:51:38Z</time>
      </trkpt>
      <trkpt lat="44.2606" lon="6.19227">
        <ele>2041.5</ele>
        <time>2013-05-09T11:51:53Z</time>
      </trkpt>
      <trkpt lat="44.2606" lon="6.19227">
        <ele>2041.5</ele>
        <time>2013-05-09T11:52:14Z</time>
      </trkpt>
      <trkpt lat="44.2606" lon="6.19228">
        <ele>2041.5</ele>
        <time>2013-05-09T11:52:47Z</time>
      </trkpt>
      <trkpt lat="44.26061" lon="6.19227">
        <ele>2041.5</ele>
        <time>2013-05-09T11:53:18Z</time>
      </trkpt>
      <trkpt lat="44.26061" lon="6.19227">
        <ele>2036.69</ele>
        <time>2013-05-09T11:53:26Z</time>
      </trkpt>
      <trkpt lat="44.26061" lon="6.19227">
        <ele>2047.26</ele>
        <time>2013-05-09T11:53:27Z</time>
      </trkpt>
      <trkpt lat="44.2606" lon="6.19227">
        <ele>2041.5</ele>
        <time>2013-05-09T11:53:28Z</time>
      </trkpt>
      <trkpt lat="44.26061" lon="6.19237">
        <ele>2041.02</ele>
        <time>2013-05-09T11:53:42Z</time>
      </trkpt>
      <trkpt lat="44.26061" lon="6.1925">
        <ele>2043.9</ele>
        <time>2013-05-09T11:53:56Z</time>
      </trkpt>
      <trkpt lat="44.26061" lon="6.19262">
        <ele>2044.86</ele>
        <time>2013-05-09T11:54:09Z</time>
      </trkpt>
      <trkpt lat="44.26064" lon="6.19271">
        <ele>2047.75</ele>
        <time>2013-05-09T11:54:19Z</time>
      </trkpt>
      <trkpt lat="44.26065" lon="6.1929">
        <ele>2045.82</ele>
        <time>2013-05-09T11:54:35Z</time>
      </trkpt>
      <trkpt lat="44.26066" lon="6.19292">
        <ele>2045.34</ele>
        <time>2013-05-09T11:54:38Z</time>
      </trkpt>
      <trkpt lat="44.26073" lon="6.19313">
        <ele>2045.34</ele>
        <time>2013-05-09T11:54:54Z</time>
      </trkpt>
      <trkpt lat="44.26079" lon="6.19329">
        <ele>2046.78</ele>
        <time>2013-05-09T11:55:10Z</time>
      </trkpt>
      <trkpt lat="44.26085" lon="6.19343">
        <ele>2049.67</ele>
        <time>2013-05-09T11:55:25Z</time>
      </trkpt>
      <trkpt lat="44.2609" lon="6.19353">
        <ele>2049.67</ele>
        <time>2013-05-09T11:55:38Z</time>
      </trkpt>
      <trkpt lat="44.26091" lon="6.19354">
        <ele>2050.63</ele>
        <time>2013-05-09T11:55:40Z</time>
      </trkpt>
      <trkpt lat="44.26097" lon="6.19358">
        <ele>2050.63</ele>
        <time>2013-05-09T11:55:48Z</time>
      </trkpt>
      <trkpt lat="44.26108" lon="6.19363">
        <ele>2051.59</ele>
        <time>2013-05-09T11:56:02Z</time>
      </trkpt>
      <trkpt lat="44.26122" lon="6.19363">
        <ele>2053.51</ele>
        <time>2013-05-09T11:56:17Z</time>
      </trkpt>
      <trkpt lat="44.2613" lon="6.19361">
        <ele>2053.03</ele>
        <time>2013-05-09T11:56:32Z</time>
      </trkpt>
      <trkpt lat="44.26141" lon="6.19362">
        <ele>2055.44</ele>
        <time>2013-05-09T11:56:51Z</time>
      </trkpt>
      <trkpt lat="44.26147" lon="6.1937">
        <ele>2055.92</ele>
        <time>2013-05-09T11:57:04Z</time>
      </trkpt>
      <trkpt lat="44.26149" lon="6.19384">
        <ele>2055.92</ele>
        <time>2013-05-09T11:57:17Z</time>
      </trkpt>
      <trkpt lat="44.26155" lon="6.19382">
        <ele>2060.72</ele>
        <time>2013-05-09T11:57:29Z</time>
      </trkpt>
      <trkpt lat="44.26156" lon="6.19382">
        <ele>2059.76</ele>
        <time>2013-05-09T11:57:50Z</time>
      </trkpt>
      <trkpt lat="44.26156" lon="6.19381">
        <ele>2059.76</ele>
        <time>2013-05-09T11:58:09Z</time>
      </trkpt>
      <trkpt lat="44.26162" lon="6.19375">
        <ele>2062.17</ele>
        <time>2013-05-09T11:58:29Z</time>
      </trkpt>
      <trkpt lat="44.26164" lon="6.19386">
        <ele>2064.57</ele>
        <time>2013-05-09T11:58:46Z</time>
      </trkpt>
      <trkpt lat="44.26168" lon="6.19386">
        <ele>2064.57</ele>
        <time>2013-05-09T11:59:01Z</time>
      </trkpt>
      <trkpt lat="44.2617" lon="6.19394">
        <ele>2067.93</ele>
        <time>2013-05-09T11:59:17Z</time>
      </trkpt>
      <trkpt lat="44.26171" lon="6.19397">
        <ele>2067.93</ele>
        <time>2013-05-09T11:59:21Z</time>
      </trkpt>
      <trkpt lat="44.26172" lon="6.194">
        <ele>2071.3</ele>
        <time>2013-05-09T11:59:30Z</time>
      </trkpt>
      <trkpt lat="44.26172" lon="6.19401">
        <ele>2068.41</ele>
        <time>2013-05-09T11:59:32Z</time>
      </trkpt>
      <trkpt lat="44.26172" lon="6.19407">
        <ele>2072.26</ele>
        <time>2013-05-09T11:59:46Z</time>
      </trkpt>
      <trkpt lat="44.26173" lon="6.19413">
        <ele>2071.3</ele>
        <time>2013-05-09T12:00:01Z</time>
      </trkpt>
      <trkpt lat="44.26175" lon="6.19416">
        <ele>2076.1</ele>
        <time>2013-05-09T12:00:10Z</time>
      </trkpt>
      <trkpt lat="44.26175" lon="6.19416">
        <ele>2073.22</ele>
        <time>2013-05-09T12:00:14Z</time>
      </trkpt>
      <trkpt lat="44.26177" lon="6.19415">
        <ele>2074.66</ele>
        <time>2013-05-09T12:00:34Z</time>
      </trkpt>
      <trkpt lat="44.26179" lon="6.1942">
        <ele>2076.59</ele>
        <time>2013-05-09T12:00:58Z</time>
      </trkpt>
      <trkpt lat="44.26181" lon="6.19426">
        <ele>2078.51</ele>
        <time>2013-05-09T12:01:16Z</time>
      </trkpt>
      <trkpt lat="44.26184" lon="6.19432">
        <ele>2081.87</ele>
        <time>2013-05-09T12:01:31Z</time>
      </trkpt>
      <trkpt lat="44.26188" lon="6.1944">
        <ele>2083.31</ele>
        <time>2013-05-09T12:01:50Z</time>
      </trkpt>
      <trkpt lat="44.26191" lon="6.19444">
        <ele>2085.24</ele>
        <time>2013-05-09T12:02:09Z</time>
      </trkpt>
      <trkpt lat="44.26195" lon="6.19452">
        <ele>2087.16</ele>
        <time>2013-05-09T12:02:24Z</time>
      </trkpt>
      <trkpt lat="44.26198" lon="6.19457">
        <ele>2088.6</ele>
        <time>2013-05-09T12:02:42Z</time>
      </trkpt>
      <trkpt lat="44.26204" lon="6.19464">
        <ele>2091.97</ele>
        <time>2013-05-09T12:02:56Z</time>
      </trkpt>
      <trkpt lat="44.26208" lon="6.19468">
        <ele>2091.97</ele>
        <time>2013-05-09T12:03:11Z</time>
      </trkpt>
      <trkpt lat="44.26213" lon="6.19464">
        <ele>2095.81</ele>
        <time>2013-05-09T12:03:28Z</time>
      </trkpt>
      <trkpt lat="44.26222" lon="6.19467">
        <ele>2095.81</ele>
        <time>2013-05-09T12:03:44Z</time>
      </trkpt>
      <trkpt lat="44.26224" lon="6.19464">
        <ele>2099.18</ele>
        <time>2013-05-09T12:03:56Z</time>
      </trkpt>
      <trkpt lat="44.26225" lon="6.19454">
        <ele>2099.66</ele>
        <time>2013-05-09T12:04:10Z</time>
      </trkpt>
      <trkpt lat="44.26235" lon="6.19456">
        <ele>2100.62</ele>
        <time>2013-05-09T12:04:25Z</time>
      </trkpt>
      <trkpt lat="44.26237" lon="6.19449">
        <ele>2102.54</ele>
        <time>2013-05-09T12:04:42Z</time>
      </trkpt>
      <trkpt lat="44.2624" lon="6.1944">
        <ele>2103.98</ele>
        <time>2013-05-09T12:04:58Z</time>
      </trkpt>
      <trkpt lat="44.26249" lon="6.19445">
        <ele>2105.91</ele>
        <time>2013-05-09T12:05:13Z</time>
      </trkpt>
      <trkpt lat="44.26248" lon="6.19434">
        <ele>2107.83</ele>
        <time>2013-05-09T12:05:29Z</time>
      </trkpt>
      <trkpt lat="44.26259" lon="6.19439">
        <ele>2110.23</ele>
        <time>2013-05-09T12:05:48Z</time>
      </trkpt>
      <trkpt lat="44.26266" lon="6.19431">
        <ele>2112.63</ele>
        <time>2013-05-09T12:06:06Z</time>
      </trkpt>
      <trkpt lat="44.26276" lon="6.19429">
        <ele>2113.6</ele>
        <time>2013-05-09T12:06:20Z</time>
      </trkpt>
      <trkpt lat="44.2628" lon="6.19427">
        <ele>2113.6</ele>
        <time>2013-05-09T12:06:33Z</time>
      </trkpt>
      <trkpt lat="44.26281" lon="6.19427">
        <ele>2114.08</ele>
        <time>2013-05-09T12:06:43Z</time>
      </trkpt>
      <trkpt lat="44.26281" lon="6.19426">
        <ele>2113.6</ele>
        <time>2013-05-09T12:07:06Z</time>
      </trkpt>
      <trkpt lat="44.26281" lon="6.19425">
        <ele>2114.08</ele>
        <time>2013-05-09T12:07:31Z</time>
      </trkpt>
      <trkpt lat="44.26281" lon="6.19425">
        <ele>2113.6</ele>
        <time>2013-05-09T12:08:05Z</time>
      </trkpt>
      <trkpt lat="44.26282" lon="6.19425">
        <ele>2113.6</ele>
        <time>2013-05-09T12:08:08Z</time>
      </trkpt>
      <trkpt lat="44.26283" lon="6.19427">
        <ele>2113.12</ele>
        <time>2013-05-09T12:08:19Z</time>
      </trkpt>
      <trkpt lat="44.26282" lon="6.19426">
        <ele>2113.12</ele>
        <time>2013-05-09T12:08:44Z</time>
      </trkpt>
      <trkpt lat="44.26283" lon="6.19419">
        <ele>2114.56</ele>
        <time>2013-05-09T12:09:03Z</time>
      </trkpt>
      <trkpt lat="44.26284" lon="6.19421">
        <ele>2114.08</ele>
        <time>2013-05-09T12:09:25Z</time>
      </trkpt>
      <trkpt lat="44.26284" lon="6.19422">
        <ele>2113.12</ele>
        <time>2013-05-09T12:09:46Z</time>
      </trkpt>
      <trkpt lat="44.26284" lon="6.19424">
        <ele>2113.6</ele>
        <time>2013-05-09T12:10:02Z</time>
      </trkpt>
      <trkpt lat="44.26283" lon="6.19427">
        <ele>2113.12</ele>
        <time>2013-05-09T12:10:17Z</time>
      </trkpt>
      <trkpt lat="44.26282" lon="6.19427">
        <ele>2113.12</ele>
        <time>2013-05-09T12:10:39Z</time>
      </trkpt>
      <trkpt lat="44.26285" lon="6.1943">
        <ele>2113.6</ele>
        <time>2013-05-09T12:11:03Z</time>
      </trkpt>
      <trkpt lat="44.26285" lon="6.1943">
        <ele>2113.12</ele>
        <time>2013-05-09T12:11:24Z</time>
      </trkpt>
      <trkpt lat="44.2629" lon="6.19434">
        <ele>2113.12</ele>
        <time>2013-05-09T12:11:38Z</time>
      </trkpt>
      <trkpt lat="44.26292" lon="6.19434">
        <ele>2112.15</ele>
        <time>2013-05-09T12:11:41Z</time>
      </trkpt>
      <trkpt lat="44.26303" lon="6.19432">
        <ele>2113.6</ele>
        <time>2013-05-09T12:11:56Z</time>
      </trkpt>
      <trkpt lat="44.26306" lon="6.19432">
        <ele>2114.56</ele>
        <time>2013-05-09T12:12:00Z</time>
      </trkpt>
      <trkpt lat="44.26309" lon="6.19431">
        <ele>2114.08</ele>
        <time>2013-05-09T12:12:03Z</time>
      </trkpt>
      <trkpt lat="44.26311" lon="6.19428">
        <ele>2113.12</ele>
        <time>2013-05-09T12:12:17Z</time>
      </trkpt>
      <trkpt lat="44.26306" lon="6.19428">
        <ele>2114.08</ele>
        <time>2013-05-09T12:12:33Z</time>
      </trkpt>
      <trkpt lat="44.26307" lon="6.19428">
        <ele>2114.08</ele>
        <time>2013-05-09T12:12:51Z</time>
      </trkpt>
      <trkpt lat="44.26309" lon="6.1943">
        <ele>2113.6</ele>
        <time>2013-05-09T12:13:08Z</time>
      </trkpt>
      <trkpt lat="44.26311" lon="6.19429">
        <ele>2114.08</ele>
        <time>2013-05-09T12:13:23Z</time>
      </trkpt>
      <trkpt lat="44.2631" lon="6.1943">
        <ele>2114.08</ele>
        <time>2013-05-09T12:13:44Z</time>
      </trkpt>
      <trkpt lat="44.2631" lon="6.19431">
        <ele>2114.08</ele>
        <time>2013-05-09T12:14:06Z</time>
      </trkpt>
      <trkpt lat="44.26311" lon="6.19431">
        <ele>2114.08</ele>
        <time>2013-05-09T12:14:27Z</time>
      </trkpt>
      <trkpt lat="44.2632" lon="6.19434">
        <ele>2114.08</ele>
        <time>2013-05-09T12:14:44Z</time>
      </trkpt>
      <trkpt lat="44.2633" lon="6.19436">
        <ele>2113.12</ele>
        <time>2013-05-09T12:14:56Z</time>
      </trkpt>
      <trkpt lat="44.26338" lon="6.1944">
        <ele>2114.08</ele>
        <time>2013-05-09T12:15:10Z</time>
      </trkpt>
      <trkpt lat="44.2635" lon="6.19442">
        <ele>2111.67</ele>
        <time>2013-05-09T12:15:23Z</time>
      </trkpt>
      <trkpt lat="44.26359" lon="6.19445">
        <ele>2110.71</ele>
        <time>2013-05-09T12:15:35Z</time>
      </trkpt>
      <trkpt lat="44.26367" lon="6.19452">
        <ele>2110.23</ele>
        <time>2013-05-09T12:15:45Z</time>
      </trkpt>
      <trkpt lat="44.26371" lon="6.19455">
        <ele>2109.27</ele>
        <time>2013-05-09T12:15:49Z</time>
      </trkpt>
      <trkpt lat="44.26385" lon="6.19448">
        <ele>2106.87</ele>
        <time>2013-05-09T12:16:03Z</time>
      </trkpt>
      <trkpt lat="44.26386" lon="6.19447">
        <ele>2106.87</ele>
        <time>2013-05-09T12:16:05Z</time>
      </trkpt>
      <trkpt lat="44.26391" lon="6.19446">
        <ele>2104.94</ele>
        <time>2013-05-09T12:16:11Z</time>
      </trkpt>
      <trkpt lat="44.26398" lon="6.19442">
        <ele>2102.06</ele>
        <time>2013-05-09T12:16:24Z</time>
      </trkpt>
      <trkpt lat="44.26405" lon="6.19435">
        <ele>2098.21</ele>
        <time>2013-05-09T12:16:38Z</time>
      </trkpt>
      <trkpt lat="44.26411" lon="6.1943">
        <ele>2097.25</ele>
        <time>2013-05-09T12:16:51Z</time>
      </trkpt>
      <trkpt lat="44.26419" lon="6.19426">
        <ele>2096.29</ele>
        <time>2013-05-09T12:17:03Z</time>
      </trkpt>
      <trkpt lat="44.26427" lon="6.19427">
        <ele>2095.81</ele>
        <time>2013-05-09T12:17:17Z</time>
      </trkpt>
      <trkpt lat="44.2643" lon="6.19427">
        <ele>2095.81</ele>
        <time>2013-05-09T12:17:22Z</time>
      </trkpt>
      <trkpt lat="44.26434" lon="6.19427">
        <ele>2095.33</ele>
        <time>2013-05-09T12:17:27Z</time>
      </trkpt>
      <trkpt lat="44.26447" lon="6.19428">
        <ele>2095.81</ele>
        <time>2013-05-09T12:17:39Z</time>
      </trkpt>
      <trkpt lat="44.26462" lon="6.19433">
        <ele>2096.77</ele>
        <time>2013-05-09T12:17:53Z</time>
      </trkpt>
      <trkpt lat="44.26477" lon="6.1944">
        <ele>2097.73</ele>
        <time>2013-05-09T12:18:08Z</time>
      </trkpt>
      <trkpt lat="44.26489" lon="6.19445">
        <ele>2097.73</ele>
        <time>2013-05-09T12:18:20Z</time>
      </trkpt>
      <trkpt lat="44.26503" lon="6.19449">
        <ele>2098.7</ele>
        <time>2013-05-09T12:18:33Z</time>
      </trkpt>
      <trkpt lat="44.26513" lon="6.19449">
        <ele>2098.7</ele>
        <time>2013-05-09T12:18:46Z</time>
      </trkpt>
      <trkpt lat="44.26518" lon="6.19447">
        <ele>2099.66</ele>
        <time>2013-05-09T12:18:59Z</time>
      </trkpt>
      <trkpt lat="44.26527" lon="6.19442">
        <ele>2101.58</ele>
        <time>2013-05-09T12:19:15Z</time>
      </trkpt>
      <trkpt lat="44.2653" lon="6.19443">
        <ele>2101.58</ele>
        <time>2013-05-09T12:19:20Z</time>
      </trkpt>
      <trkpt lat="44.26535" lon="6.19452">
        <ele>2103.5</ele>
        <time>2013-05-09T12:19:34Z</time>
      </trkpt>
      <trkpt lat="44.26542" lon="6.19449">
        <ele>2106.87</ele>
        <time>2013-05-09T12:19:46Z</time>
      </trkpt>
      <trkpt lat="44.26549" lon="6.19454">
        <ele>2107.35</ele>
        <time>2013-05-09T12:19:57Z</time>
      </trkpt>
      <trkpt lat="44.26551" lon="6.19453">
        <ele>2107.35</ele>
        <time>2013-05-09T12:19:59Z</time>
      </trkpt>
      <trkpt lat="44.26559" lon="6.19445">
        <ele>2109.27</ele>
        <time>2013-05-09T12:20:14Z</time>
      </trkpt>
      <trkpt lat="44.26561" lon="6.19442">
        <ele>2108.79</ele>
        <time>2013-05-09T12:20:25Z</time>
      </trkpt>
      <trkpt lat="44.26561" lon="6.19445">
        <ele>2108.31</ele>
        <time>2013-05-09T12:20:51Z</time>
      </trkpt>
      <trkpt lat="44.26559" lon="6.19444">
        <ele>2109.27</ele>
        <time>2013-05-09T12:21:10Z</time>
      </trkpt>
      <trkpt lat="44.2656" lon="6.19445">
        <ele>2109.27</ele>
        <time>2013-05-09T12:21:35Z</time>
      </trkpt>
      <trkpt lat="44.26562" lon="6.19442">
        <ele>2108.31</ele>
        <time>2013-05-09T12:21:39Z</time>
      </trkpt>
      <trkpt lat="44.26564" lon="6.1944">
        <ele>2108.31</ele>
        <time>2013-05-09T12:21:41Z</time>
      </trkpt>
      <trkpt lat="44.2657" lon="6.19434">
        <ele>2107.83</ele>
        <time>2013-05-09T12:21:51Z</time>
      </trkpt>
      <trkpt lat="44.26572" lon="6.19437">
        <ele>2106.87</ele>
        <time>2013-05-09T12:21:53Z</time>
      </trkpt>
      <trkpt lat="44.26575" lon="6.19456">
        <ele>2105.42</ele>
        <time>2013-05-09T12:22:04Z</time>
      </trkpt>
      <trkpt lat="44.26576" lon="6.19463">
        <ele>2105.42</ele>
        <time>2013-05-09T12:22:20Z</time>
      </trkpt>
      <trkpt lat="44.26575" lon="6.19461">
        <ele>2105.42</ele>
        <time>2013-05-09T12:22:51Z</time>
      </trkpt>
      <trkpt lat="44.26576" lon="6.1946">
        <ele>2103.98</ele>
        <time>2013-05-09T12:23:14Z</time>
      </trkpt>
      <trkpt lat="44.26575" lon="6.19459">
        <ele>2105.42</ele>
        <time>2013-05-09T12:23:20Z</time>
      </trkpt>
      <trkpt lat="44.26576" lon="6.19459">
        <ele>2104.94</ele>
        <time>2013-05-09T12:23:48Z</time>
      </trkpt>
      <trkpt lat="44.26577" lon="6.19459">
        <ele>2104.94</ele>
        <time>2013-05-09T12:24:17Z</time>
      </trkpt>
      <trkpt lat="44.26576" lon="6.1946">
        <ele>2106.39</ele>
        <time>2013-05-09T12:24:43Z</time>
      </trkpt>
      <trkpt lat="44.26576" lon="6.19462">
        <ele>2105.42</ele>
        <time>2013-05-09T12:25:07Z</time>
      </trkpt>
      <trkpt lat="44.26577" lon="6.19462">
        <ele>2105.42</ele>
        <time>2013-05-09T12:25:40Z</time>
      </trkpt>
      <trkpt lat="44.26577" lon="6.19461">
        <ele>2105.91</ele>
        <time>2013-05-09T12:26:14Z</time>
      </trkpt>
      <trkpt lat="44.26576" lon="6.19461">
        <ele>2105.91</ele>
        <time>2013-05-09T12:26:34Z</time>
      </trkpt>
      <trkpt lat="44.26577" lon="6.19461">
        <ele>2105.42</ele>
        <time>2013-05-09T12:26:54Z</time>
      </trkpt>
      <trkpt lat="44.26576" lon="6.19463">
        <ele>2105.42</ele>
        <time>2013-05-09T12:27:21Z</time>
      </trkpt>
      <trkpt lat="44.26576" lon="6.1946">
        <ele>2105.42</ele>
        <time>2013-05-09T12:27:42Z</time>
      </trkpt>
      <trkpt lat="44.26576" lon="6.19459">
        <ele>2105.42</ele>
        <time>2013-05-09T12:28:00Z</time>
      </trkpt>
      <trkpt lat="44.26574" lon="6.19439">
        <ele>2107.83</ele>
        <time>2013-05-09T12:28:14Z</time>
      </trkpt>
      <trkpt lat="44.26578" lon="6.19424">
        <ele>2106.39</ele>
        <time>2013-05-09T12:28:28Z</time>
      </trkpt>
      <trkpt lat="44.26579" lon="6.19423">
        <ele>2106.87</ele>
        <time>2013-05-09T12:28:30Z</time>
      </trkpt>
      <trkpt lat="44.26581" lon="6.1941">
        <ele>2105.42</ele>
        <time>2013-05-09T12:28:46Z</time>
      </trkpt>
      <trkpt lat="44.26584" lon="6.19399">
        <ele>2103.5</ele>
        <time>2013-05-09T12:29:00Z</time>
      </trkpt>
      <trkpt lat="44.26584" lon="6.19398">
        <ele>2103.98</ele>
        <time>2013-05-09T12:29:24Z</time>
      </trkpt>
      <trkpt lat="44.26586" lon="6.19395">
        <ele>2103.02</ele>
        <time>2013-05-09T12:29:43Z</time>
      </trkpt>
      <trkpt lat="44.26588" lon="6.19392">
        <ele>2103.02</ele>
        <time>2013-05-09T12:30:09Z</time>
      </trkpt>
      <trkpt lat="44.26594" lon="6.19387">
        <ele>2102.06</ele>
        <time>2013-05-09T12:30:18Z</time>
      </trkpt>
      <trkpt lat="44.26598" lon="6.19386">
        <ele>2100.14</ele>
        <time>2013-05-09T12:30:22Z</time>
      </trkpt>
      <trkpt lat="44.26601" lon="6.19386">
        <ele>2102.06</ele>
        <time>2013-05-09T12:30:25Z</time>
      </trkpt>
      <trkpt lat="44.26603" lon="6.19385">
        <ele>2100.62</ele>
        <time>2013-05-09T12:30:27Z</time>
      </trkpt>
      <trkpt lat="44.26609" lon="6.19374">
        <ele>2099.66</ele>
        <time>2013-05-09T12:30:37Z</time>
      </trkpt>
      <trkpt lat="44.26615" lon="6.19361">
        <ele>2096.77</ele>
        <time>2013-05-09T12:30:49Z</time>
      </trkpt>
      <trkpt lat="44.26621" lon="6.19352">
        <ele>2093.41</ele>
        <time>2013-05-09T12:31:00Z</time>
      </trkpt>
      <trkpt lat="44.26627" lon="6.19351">
        <ele>2091.49</ele>
        <time>2013-05-09T12:31:13Z</time>
      </trkpt>
      <trkpt lat="44.26627" lon="6.19352">
        <ele>2091</ele>
        <time>2013-05-09T12:31:17Z</time>
      </trkpt>
      <trkpt lat="44.26633" lon="6.19353">
        <ele>2088.6</ele>
        <time>2013-05-09T12:31:30Z</time>
      </trkpt>
      <trkpt lat="44.26635" lon="6.19346">
        <ele>2085.72</ele>
        <time>2013-05-09T12:31:40Z</time>
      </trkpt>
      <trkpt lat="44.26636" lon="6.19343">
        <ele>2085.24</ele>
        <time>2013-05-09T12:31:57Z</time>
      </trkpt>
      <trkpt lat="44.26638" lon="6.19341">
        <ele>2084.28</ele>
        <time>2013-05-09T12:31:59Z</time>
      </trkpt>
      <trkpt lat="44.26644" lon="6.19336">
        <ele>2081.87</ele>
        <time>2013-05-09T12:32:15Z</time>
      </trkpt>
      <trkpt lat="44.26646" lon="6.19334">
        <ele>2080.43</ele>
        <time>2013-05-09T12:32:36Z</time>
      </trkpt>
      <trkpt lat="44.26642" lon="6.19327">
        <ele>2079.47</ele>
        <time>2013-05-09T12:32:52Z</time>
      </trkpt>
      <trkpt lat="44.26643" lon="6.19319">
        <ele>2077.55</ele>
        <time>2013-05-09T12:33:10Z</time>
      </trkpt>
      <trkpt lat="44.26643" lon="6.19312">
        <ele>2074.18</ele>
        <time>2013-05-09T12:33:20Z</time>
      </trkpt>
      <trkpt lat="44.26646" lon="6.1931">
        <ele>2073.22</ele>
        <time>2013-05-09T12:33:36Z</time>
      </trkpt>
      <trkpt lat="44.26647" lon="6.19312">
        <ele>2073.22</ele>
        <time>2013-05-09T12:33:58Z</time>
      </trkpt>
      <trkpt lat="44.26649" lon="6.19303">
        <ele>2070.82</ele>
        <time>2013-05-09T12:34:15Z</time>
      </trkpt>
      <trkpt lat="44.26654" lon="6.19297">
        <ele>2068.89</ele>
        <time>2013-05-09T12:34:29Z</time>
      </trkpt>
      <trkpt lat="44.26657" lon="6.19288">
        <ele>2066.97</ele>
        <time>2013-05-09T12:34:46Z</time>
      </trkpt>
      <trkpt lat="44.26664" lon="6.19279">
        <ele>2065.05</ele>
        <time>2013-05-09T12:34:59Z</time>
      </trkpt>
      <trkpt lat="44.26667" lon="6.19272">
        <ele>2064.57</ele>
        <time>2013-05-09T12:35:06Z</time>
      </trkpt>
      <trkpt lat="44.26675" lon="6.19262">
        <ele>2066.01</ele>
        <time>2013-05-09T12:35:20Z</time>
      </trkpt>
      <trkpt lat="44.26677" lon="6.19253">
        <ele>2065.53</ele>
        <time>2013-05-09T12:35:34Z</time>
      </trkpt>
      <trkpt lat="44.26679" lon="6.1925">
        <ele>2064.09</ele>
        <time>2013-05-09T12:35:49Z</time>
      </trkpt>
      <trkpt lat="44.2668" lon="6.19248">
        <ele>2060.24</ele>
        <time>2013-05-09T12:36:00Z</time>
      </trkpt>
      <trkpt lat="44.2668" lon="6.19248">
        <ele>2063.61</ele>
        <time>2013-05-09T12:36:01Z</time>
      </trkpt>
      <trkpt lat="44.26682" lon="6.19249">
        <ele>2061.68</ele>
        <time>2013-05-09T12:36:04Z</time>
      </trkpt>
      <trkpt lat="44.26685" lon="6.19245">
        <ele>2059.76</ele>
        <time>2013-05-09T12:36:20Z</time>
      </trkpt>
      <trkpt lat="44.26689" lon="6.19237">
        <ele>2057.84</ele>
        <time>2013-05-09T12:36:36Z</time>
      </trkpt>
      <trkpt lat="44.26693" lon="6.19232">
        <ele>2054.96</ele>
        <time>2013-05-09T12:36:49Z</time>
      </trkpt>
      <trkpt lat="44.26698" lon="6.19229">
        <ele>2053.51</ele>
        <time>2013-05-09T12:37:01Z</time>
      </trkpt>
      <trkpt lat="44.26702" lon="6.19228">
        <ele>2050.63</ele>
        <time>2013-05-09T12:37:09Z</time>
      </trkpt>
      <trkpt lat="44.26705" lon="6.19224">
        <ele>2049.19</ele>
        <time>2013-05-09T12:37:21Z</time>
      </trkpt>
      <trkpt lat="44.26706" lon="6.19222">
        <ele>2048.71</ele>
        <time>2013-05-09T12:37:42Z</time>
      </trkpt>
      <trkpt lat="44.26707" lon="6.1922">
        <ele>2048.23</ele>
        <time>2013-05-09T12:38:01Z</time>
      </trkpt>
      <trkpt lat="44.26709" lon="6.19219">
        <ele>2046.78</ele>
        <time>2013-05-09T12:38:17Z</time>
      </trkpt>
      <trkpt lat="44.26709" lon="6.19221">
        <ele>2047.26</ele>
        <time>2013-05-09T12:38:33Z</time>
      </trkpt>
      <trkpt lat="44.26707" lon="6.19221">
        <ele>2047.26</ele>
        <time>2013-05-09T12:39:01Z</time>
      </trkpt>
      <trkpt lat="44.26706" lon="6.19224">
        <ele>2048.23</ele>
        <time>2013-05-09T12:39:16Z</time>
      </trkpt>
      <trkpt lat="44.26708" lon="6.19227">
        <ele>2047.75</ele>
        <time>2013-05-09T12:39:47Z</time>
      </trkpt>
      <trkpt lat="44.26708" lon="6.19224">
        <ele>2046.78</ele>
        <time>2013-05-09T12:40:12Z</time>
      </trkpt>
      <trkpt lat="44.26714" lon="6.19212">
        <ele>2045.82</ele>
        <time>2013-05-09T12:40:23Z</time>
      </trkpt>
      <trkpt lat="44.26718" lon="6.19207">
        <ele>2044.38</ele>
        <time>2013-05-09T12:40:29Z</time>
      </trkpt>
      <trkpt lat="44.26722" lon="6.19204">
        <ele>2043.42</ele>
        <time>2013-05-09T12:40:36Z</time>
      </trkpt>
      <trkpt lat="44.26722" lon="6.19199">
        <ele>2043.9</ele>
        <time>2013-05-09T12:40:39Z</time>
      </trkpt>
      <trkpt lat="44.26726" lon="6.19194">
        <ele>2043.42</ele>
        <time>2013-05-09T12:40:44Z</time>
      </trkpt>
      <trkpt lat="44.26729" lon="6.19193">
        <ele>2041.98</ele>
        <time>2013-05-09T12:40:47Z</time>
      </trkpt>
      <trkpt lat="44.26737" lon="6.19188">
        <ele>2040.54</ele>
        <time>2013-05-09T12:40:55Z</time>
      </trkpt>
      <trkpt lat="44.26741" lon="6.19175">
        <ele>2038.61</ele>
        <time>2013-05-09T12:41:07Z</time>
      </trkpt>
      <trkpt lat="44.26744" lon="6.19174">
        <ele>2038.13</ele>
        <time>2013-05-09T12:41:11Z</time>
      </trkpt>
      <trkpt lat="44.26748" lon="6.19169">
        <ele>2036.21</ele>
        <time>2013-05-09T12:41:17Z</time>
      </trkpt>
      <trkpt lat="44.26755" lon="6.19155">
        <ele>2034.29</ele>
        <time>2013-05-09T12:41:30Z</time>
      </trkpt>
      <trkpt lat="44.26757" lon="6.19146">
        <ele>2033.33</ele>
        <time>2013-05-09T12:41:43Z</time>
      </trkpt>
      <trkpt lat="44.2676" lon="6.19139">
        <ele>2031.88</ele>
        <time>2013-05-09T12:41:58Z</time>
      </trkpt>
      <trkpt lat="44.26766" lon="6.19127">
        <ele>2030.92</ele>
        <time>2013-05-09T12:42:11Z</time>
      </trkpt>
      <trkpt lat="44.26767" lon="6.19119">
        <ele>2029.48</ele>
        <time>2013-05-09T12:42:19Z</time>
      </trkpt>
      <trkpt lat="44.26765" lon="6.19105">
        <ele>2029.96</ele>
        <time>2013-05-09T12:42:33Z</time>
      </trkpt>
      <trkpt lat="44.26765" lon="6.19099">
        <ele>2030.44</ele>
        <time>2013-05-09T12:42:48Z</time>
      </trkpt>
      <trkpt lat="44.26769" lon="6.19091">
        <ele>2028.04</ele>
        <time>2013-05-09T12:43:03Z</time>
      </trkpt>
      <trkpt lat="44.26772" lon="6.19085">
        <ele>2026.6</ele>
        <time>2013-05-09T12:43:17Z</time>
      </trkpt>
      <trkpt lat="44.26775" lon="6.19083">
        <ele>2026.12</ele>
        <time>2013-05-09T12:43:34Z</time>
      </trkpt>
      <trkpt lat="44.2678" lon="6.19079">
        <ele>2024.19</ele>
        <time>2013-05-09T12:43:48Z</time>
      </trkpt>
      <trkpt lat="44.26782" lon="6.19078">
        <ele>2023.71</ele>
        <time>2013-05-09T12:43:56Z</time>
      </trkpt>
      <trkpt lat="44.26783" lon="6.19076">
        <ele>2023.71</ele>
        <time>2013-05-09T12:43:58Z</time>
      </trkpt>
      <trkpt lat="44.26788" lon="6.19067">
        <ele>2022.27</ele>
        <time>2013-05-09T12:44:09Z</time>
      </trkpt>
      <trkpt lat="44.26795" lon="6.19054">
        <ele>2021.79</ele>
        <time>2013-05-09T12:44:23Z</time>
      </trkpt>
      <trkpt lat="44.26799" lon="6.19049">
        <ele>2018.43</ele>
        <time>2013-05-09T12:44:38Z</time>
      </trkpt>
      <trkpt lat="44.26799" lon="6.19049">
        <ele>2021.79</ele>
        <time>2013-05-09T12:44:39Z</time>
      </trkpt>
      <trkpt lat="44.26799" lon="6.19045">
        <ele>2020.83</ele>
        <time>2013-05-09T12:44:55Z</time>
      </trkpt>
      <trkpt lat="44.26805" lon="6.19036">
        <ele>2021.79</ele>
        <time>2013-05-09T12:45:06Z</time>
      </trkpt>
      <trkpt lat="44.2681" lon="6.19023">
        <ele>2023.71</ele>
        <time>2013-05-09T12:45:17Z</time>
      </trkpt>
      <trkpt lat="44.26809" lon="6.19016">
        <ele>2022.75</ele>
        <time>2013-05-09T12:45:27Z</time>
      </trkpt>
      <trkpt lat="44.26806" lon="6.19013">
        <ele>2022.75</ele>
        <time>2013-05-09T12:45:30Z</time>
      </trkpt>
      <trkpt lat="44.26806" lon="6.19003">
        <ele>2020.35</ele>
        <time>2013-05-09T12:45:43Z</time>
      </trkpt>
      <trkpt lat="44.26807" lon="6.18989">
        <ele>2016.98</ele>
        <time>2013-05-09T12:45:54Z</time>
      </trkpt>
      <trkpt lat="44.26811" lon="6.18978">
        <ele>2014.58</ele>
        <time>2013-05-09T12:46:05Z</time>
      </trkpt>
      <trkpt lat="44.26813" lon="6.18968">
        <ele>2013.14</ele>
        <time>2013-05-09T12:46:13Z</time>
      </trkpt>
      <trkpt lat="44.26817" lon="6.18962">
        <ele>2013.14</ele>
        <time>2013-05-09T12:46:21Z</time>
      </trkpt>
      <trkpt lat="44.26825" lon="6.18958">
        <ele>2011.22</ele>
        <time>2013-05-09T12:46:35Z</time>
      </trkpt>
      <trkpt lat="44.26829" lon="6.18949">
        <ele>2009.77</ele>
        <time>2013-05-09T12:46:47Z</time>
      </trkpt>
      <trkpt lat="44.2683" lon="6.18948">
        <ele>2009.29</ele>
        <time>2013-05-09T12:46:48Z</time>
      </trkpt>
      <trkpt lat="44.26833" lon="6.18944">
        <ele>2008.81</ele>
        <time>2013-05-09T12:47:04Z</time>
      </trkpt>
      <trkpt lat="44.26833" lon="6.18942">
        <ele>2008.33</ele>
        <time>2013-05-09T12:47:27Z</time>
      </trkpt>
      <trkpt lat="44.26836" lon="6.18937">
        <ele>2007.37</ele>
        <time>2013-05-09T12:47:50Z</time>
      </trkpt>
      <trkpt lat="44.26833" lon="6.1893">
        <ele>2005.93</ele>
        <time>2013-05-09T12:48:02Z</time>
      </trkpt>
      <trkpt lat="44.26836" lon="6.18926">
        <ele>2003.04</ele>
        <time>2013-05-09T12:48:15Z</time>
      </trkpt>
      <trkpt lat="44.26833" lon="6.18914">
        <ele>2003.52</ele>
        <time>2013-05-09T12:48:30Z</time>
      </trkpt>
      <trkpt lat="44.26835" lon="6.18902">
        <ele>2004.49</ele>
        <time>2013-05-09T12:48:43Z</time>
      </trkpt>
      <trkpt lat="44.26836" lon="6.189">
        <ele>2004.49</ele>
        <time>2013-05-09T12:48:45Z</time>
      </trkpt>
      <trkpt lat="44.26835" lon="6.18893">
        <ele>2004.01</ele>
        <time>2013-05-09T12:49:00Z</time>
      </trkpt>
      <trkpt lat="44.26836" lon="6.18887">
        <ele>2003.52</ele>
        <time>2013-05-09T12:49:22Z</time>
      </trkpt>
      <trkpt lat="44.26839" lon="6.18876">
        <ele>2001.6</ele>
        <time>2013-05-09T12:49:30Z</time>
      </trkpt>
      <trkpt lat="44.26843" lon="6.18856">
        <ele>2001.12</ele>
        <time>2013-05-09T12:49:43Z</time>
      </trkpt>
      <trkpt lat="44.26845" lon="6.18841">
        <ele>1997.76</ele>
        <time>2013-05-09T12:49:54Z</time>
      </trkpt>
      <trkpt lat="44.26847" lon="6.1884">
        <ele>1997.28</ele>
        <time>2013-05-09T12:50:04Z</time>
      </trkpt>
      <trkpt lat="44.2685" lon="6.18833">
        <ele>1995.83</ele>
        <time>2013-05-09T12:50:21Z</time>
      </trkpt>
      <trkpt lat="44.26848" lon="6.18833">
        <ele>1994.39</ele>
        <time>2013-05-09T12:50:44Z</time>
      </trkpt>
      <trkpt lat="44.26852" lon="6.18826">
        <ele>1993.43</ele>
        <time>2013-05-09T12:51:12Z</time>
      </trkpt>
      <trkpt lat="44.26856" lon="6.18816">
        <ele>1991.99</ele>
        <time>2013-05-09T12:51:26Z</time>
      </trkpt>
      <trkpt lat="44.26859" lon="6.18814">
        <ele>1991.03</ele>
        <time>2013-05-09T12:51:34Z</time>
      </trkpt>
      <trkpt lat="44.26862" lon="6.18807">
        <ele>1990.07</ele>
        <time>2013-05-09T12:51:49Z</time>
      </trkpt>
      <trkpt lat="44.26865" lon="6.18804">
        <ele>1989.1</ele>
        <time>2013-05-09T12:52:08Z</time>
      </trkpt>
      <trkpt lat="44.26867" lon="6.18792">
        <ele>1986.22</ele>
        <time>2013-05-09T12:52:22Z</time>
      </trkpt>
      <trkpt lat="44.26868" lon="6.18783">
        <ele>1986.22</ele>
        <time>2013-05-09T12:52:33Z</time>
      </trkpt>
      <trkpt lat="44.26866" lon="6.18764">
        <ele>1983.34</ele>
        <time>2013-05-09T12:52:49Z</time>
      </trkpt>
      <trkpt lat="44.26867" lon="6.18756">
        <ele>1982.86</ele>
        <time>2013-05-09T12:53:02Z</time>
      </trkpt>
      <trkpt lat="44.26869" lon="6.18752">
        <ele>1982.38</ele>
        <time>2013-05-09T12:53:06Z</time>
      </trkpt>
      <trkpt lat="44.26876" lon="6.1873">
        <ele>1979.49</ele>
        <time>2013-05-09T12:53:23Z</time>
      </trkpt>
      <trkpt lat="44.26881" lon="6.18713">
        <ele>1977.57</ele>
        <time>2013-05-09T12:53:37Z</time>
      </trkpt>
      <trkpt lat="44.26885" lon="6.18702">
        <ele>1974.2</ele>
        <time>2013-05-09T12:53:51Z</time>
      </trkpt>
      <trkpt lat="44.2689" lon="6.18703">
        <ele>1971.8</ele>
        <time>2013-05-09T12:53:59Z</time>
      </trkpt>
      <trkpt lat="44.26898" lon="6.18702">
        <ele>1969.88</ele>
        <time>2013-05-09T12:54:11Z</time>
      </trkpt>
      <trkpt lat="44.26902" lon="6.18697">
        <ele>1966.99</ele>
        <time>2013-05-09T12:54:18Z</time>
      </trkpt>
      <trkpt lat="44.26907" lon="6.18693">
        <ele>1964.59</ele>
        <time>2013-05-09T12:54:30Z</time>
      </trkpt>
      <trkpt lat="44.26912" lon="6.18687">
        <ele>1961.23</ele>
        <time>2013-05-09T12:54:41Z</time>
      </trkpt>
      <trkpt lat="44.2692" lon="6.18684">
        <ele>1957.86</ele>
        <time>2013-05-09T12:54:53Z</time>
      </trkpt>
      <trkpt lat="44.26928" lon="6.18679">
        <ele>1954.98</ele>
        <time>2013-05-09T12:55:08Z</time>
      </trkpt>
      <trkpt lat="44.26934" lon="6.18674">
        <ele>1952.09</ele>
        <time>2013-05-09T12:55:19Z</time>
      </trkpt>
      <trkpt lat="44.26942" lon="6.18668">
        <ele>1948.25</ele>
        <time>2013-05-09T12:55:32Z</time>
      </trkpt>
      <trkpt lat="44.26942" lon="6.18668">
        <ele>1947.77</ele>
        <time>2013-05-09T12:55:33Z</time>
      </trkpt>
      <trkpt lat="44.26946" lon="6.18663">
        <ele>1946.81</ele>
        <time>2013-05-09T12:55:39Z</time>
      </trkpt>
      <trkpt lat="44.26955" lon="6.18653">
        <ele>1943.44</ele>
        <time>2013-05-09T12:55:53Z</time>
      </trkpt>
      <trkpt lat="44.26958" lon="6.18647">
        <ele>1941.04</ele>
        <time>2013-05-09T12:56:00Z</time>
      </trkpt>
      <trkpt lat="44.26964" lon="6.18639">
        <ele>1938.16</ele>
        <time>2013-05-09T12:56:12Z</time>
      </trkpt>
      <trkpt lat="44.2697" lon="6.18633">
        <ele>1936.71</ele>
        <time>2013-05-09T12:56:29Z</time>
      </trkpt>
      <trkpt lat="44.26976" lon="6.18625">
        <ele>1934.79</ele>
        <time>2013-05-09T12:56:44Z</time>
      </trkpt>
      <trkpt lat="44.2698" lon="6.1862">
        <ele>1933.83</ele>
        <time>2013-05-09T12:56:51Z</time>
      </trkpt>
      <trkpt lat="44.26988" lon="6.18613">
        <ele>1930.95</ele>
        <time>2013-05-09T12:57:05Z</time>
      </trkpt>
      <trkpt lat="44.26993" lon="6.18615">
        <ele>1929.02</ele>
        <time>2013-05-09T12:57:22Z</time>
      </trkpt>
      <trkpt lat="44.26994" lon="6.18613">
        <ele>1929.02</ele>
        <time>2013-05-09T12:57:40Z</time>
      </trkpt>
      <trkpt lat="44.26993" lon="6.18612">
        <ele>1929.02</ele>
        <time>2013-05-09T12:58:06Z</time>
      </trkpt>
      <trkpt lat="44.26993" lon="6.18611">
        <ele>1929.02</ele>
        <time>2013-05-09T12:58:36Z</time>
      </trkpt>
      <trkpt lat="44.2699" lon="6.18607">
        <ele>1928.54</ele>
        <time>2013-05-09T12:59:02Z</time>
      </trkpt>
      <trkpt lat="44.26989" lon="6.18603">
        <ele>1926.14</ele>
        <time>2013-05-09T12:59:20Z</time>
      </trkpt>
      <trkpt lat="44.26992" lon="6.18599">
        <ele>1924.7</ele>
        <time>2013-05-09T12:59:41Z</time>
      </trkpt>
      <trkpt lat="44.2699" lon="6.18596">
        <ele>1922.77</ele>
        <time>2013-05-09T12:59:55Z</time>
      </trkpt>
      <trkpt lat="44.2699" lon="6.18592">
        <ele>1921.33</ele>
        <time>2013-05-09T13:00:09Z</time>
      </trkpt>
      <trkpt lat="44.26993" lon="6.18587">
        <ele>1918.93</ele>
        <time>2013-05-09T13:00:24Z</time>
      </trkpt>
      <trkpt lat="44.26993" lon="6.18586">
        <ele>1917.97</ele>
        <time>2013-05-09T13:00:39Z</time>
      </trkpt>
      <trkpt lat="44.26991" lon="6.18586">
        <ele>1917.49</ele>
        <time>2013-05-09T13:00:55Z</time>
      </trkpt>
      <trkpt lat="44.26994" lon="6.18578">
        <ele>1916.04</ele>
        <time>2013-05-09T13:01:10Z</time>
      </trkpt>
      <trkpt lat="44.26994" lon="6.18578">
        <ele>1915.08</ele>
        <time>2013-05-09T13:01:30Z</time>
      </trkpt>
      <trkpt lat="44.26994" lon="6.18571">
        <ele>1911.72</ele>
        <time>2013-05-09T13:01:44Z</time>
      </trkpt>
      <trkpt lat="44.26987" lon="6.18565">
        <ele>1910.76</ele>
        <time>2013-05-09T13:01:57Z</time>
      </trkpt>
      <trkpt lat="44.26988" lon="6.18559">
        <ele>1908.83</ele>
        <time>2013-05-09T13:02:02Z</time>
      </trkpt>
      <trkpt lat="44.26986" lon="6.18553">
        <ele>1906.91</ele>
        <time>2013-05-09T13:02:15Z</time>
      </trkpt>
      <trkpt lat="44.26985" lon="6.18552">
        <ele>1906.91</ele>
        <time>2013-05-09T13:02:16Z</time>
      </trkpt>
      <trkpt lat="44.26982" lon="6.18546">
        <ele>1904.99</ele>
        <time>2013-05-09T13:02:22Z</time>
      </trkpt>
      <trkpt lat="44.26992" lon="6.18538">
        <ele>1903.07</ele>
        <time>2013-05-09T13:02:34Z</time>
      </trkpt>
      <trkpt lat="44.26995" lon="6.18537">
        <ele>1901.63</ele>
        <time>2013-05-09T13:02:37Z</time>
      </trkpt>
      <trkpt lat="44.26996" lon="6.18536">
        <ele>1901.14</ele>
        <time>2013-05-09T13:02:51Z</time>
      </trkpt>
      <trkpt lat="44.26993" lon="6.18527">
        <ele>1898.26</ele>
        <time>2013-05-09T13:03:04Z</time>
      </trkpt>
      <trkpt lat="44.26986" lon="6.18519">
        <ele>1895.38</ele>
        <time>2013-05-09T13:03:19Z</time>
      </trkpt>
      <trkpt lat="44.26981" lon="6.1851">
        <ele>1892.49</ele>
        <time>2013-05-09T13:03:34Z</time>
      </trkpt>
      <trkpt lat="44.26981" lon="6.18508">
        <ele>1891.05</ele>
        <time>2013-05-09T13:03:36Z</time>
      </trkpt>
      <trkpt lat="44.26981" lon="6.185">
        <ele>1888.65</ele>
        <time>2013-05-09T13:03:48Z</time>
      </trkpt>
      <trkpt lat="44.26981" lon="6.1849">
        <ele>1885.28</ele>
        <time>2013-05-09T13:03:59Z</time>
      </trkpt>
      <trkpt lat="44.26981" lon="6.1849">
        <ele>1885.28</ele>
        <time>2013-05-09T13:04:00Z</time>
      </trkpt>
      <trkpt lat="44.26983" lon="6.18486">
        <ele>1884.8</ele>
        <time>2013-05-09T13:04:03Z</time>
      </trkpt>
      <trkpt lat="44.26984" lon="6.18474">
        <ele>1882.4</ele>
        <time>2013-05-09T13:04:20Z</time>
      </trkpt>
      <trkpt lat="44.26985" lon="6.18476">
        <ele>1881.92</ele>
        <time>2013-05-09T13:04:38Z</time>
      </trkpt>
      <trkpt lat="44.26983" lon="6.18476">
        <ele>1881.92</ele>
        <time>2013-05-09T13:05:09Z</time>
      </trkpt>
      <trkpt lat="44.26984" lon="6.18469">
        <ele>1881.44</ele>
        <time>2013-05-09T13:05:34Z</time>
      </trkpt>
      <trkpt lat="44.26983" lon="6.18462">
        <ele>1877.59</ele>
        <time>2013-05-09T13:05:47Z</time>
      </trkpt>
      <trkpt lat="44.2698" lon="6.18458">
        <ele>1876.15</ele>
        <time>2013-05-09T13:05:55Z</time>
      </trkpt>
      <trkpt lat="44.26978" lon="6.18451">
        <ele>1873.27</ele>
        <time>2013-05-09T13:06:06Z</time>
      </trkpt>
      <trkpt lat="44.26978" lon="6.18448">
        <ele>1871.82</ele>
        <time>2013-05-09T13:06:10Z</time>
      </trkpt>
      <trkpt lat="44.2698" lon="6.18438">
        <ele>1868.94</ele>
        <time>2013-05-09T13:06:23Z</time>
      </trkpt>
      <trkpt lat="44.26982" lon="6.18436">
        <ele>1867.98</ele>
        <time>2013-05-09T13:06:26Z</time>
      </trkpt>
      <trkpt lat="44.26981" lon="6.18433">
        <ele>1867.02</ele>
        <time>2013-05-09T13:06:29Z</time>
      </trkpt>
      <trkpt lat="44.26979" lon="6.18424">
        <ele>1864.61</ele>
        <time>2013-05-09T13:06:42Z</time>
      </trkpt>
      <trkpt lat="44.2698" lon="6.18419">
        <ele>1863.17</ele>
        <time>2013-05-09T13:06:46Z</time>
      </trkpt>
      <trkpt lat="44.26977" lon="6.18412">
        <ele>1859.33</ele>
        <time>2013-05-09T13:06:55Z</time>
      </trkpt>
      <trkpt lat="44.26976" lon="6.18402">
        <ele>1857.89</ele>
        <time>2013-05-09T13:07:04Z</time>
      </trkpt>
      <trkpt lat="44.26976" lon="6.18396">
        <ele>1855.48</ele>
        <time>2013-05-09T13:07:16Z</time>
      </trkpt>
      <trkpt lat="44.26976" lon="6.18391">
        <ele>1854.52</ele>
        <time>2013-05-09T13:07:24Z</time>
      </trkpt>
      <trkpt lat="44.26978" lon="6.18387">
        <ele>1853.08</ele>
        <time>2013-05-09T13:07:27Z</time>
      </trkpt>
      <trkpt lat="44.26974" lon="6.18381">
        <ele>1851.16</ele>
        <time>2013-05-09T13:07:33Z</time>
      </trkpt>
      <trkpt lat="44.26975" lon="6.18376">
        <ele>1849.71</ele>
        <time>2013-05-09T13:07:36Z</time>
      </trkpt>
      <trkpt lat="44.26977" lon="6.18364">
        <ele>1847.79</ele>
        <time>2013-05-09T13:07:43Z</time>
      </trkpt>
      <trkpt lat="44.26977" lon="6.18358">
        <ele>1844.43</ele>
        <time>2013-05-09T13:07:46Z</time>
      </trkpt>
      <trkpt lat="44.26976" lon="6.18335">
        <ele>1842.02</ele>
        <time>2013-05-09T13:07:55Z</time>
      </trkpt>
      <trkpt lat="44.26977" lon="6.18334">
        <ele>1842.98</ele>
        <time>2013-05-09T13:08:01Z</time>
      </trkpt>
      <trkpt lat="44.26976" lon="6.18325">
        <ele>1841.54</ele>
        <time>2013-05-09T13:08:06Z</time>
      </trkpt>
      <trkpt lat="44.26974" lon="6.18315">
        <ele>1840.1</ele>
        <time>2013-05-09T13:08:20Z</time>
      </trkpt>
      <trkpt lat="44.26972" lon="6.18296">
        <ele>1838.18</ele>
        <time>2013-05-09T13:08:35Z</time>
      </trkpt>
      <trkpt lat="44.26969" lon="6.18272">
        <ele>1834.81</ele>
        <time>2013-05-09T13:08:49Z</time>
      </trkpt>
      <trkpt lat="44.26966" lon="6.18254">
        <ele>1833.37</ele>
        <time>2013-05-09T13:09:02Z</time>
      </trkpt>
      <trkpt lat="44.26962" lon="6.18233">
        <ele>1833.37</ele>
        <time>2013-05-09T13:09:16Z</time>
      </trkpt>
      <trkpt lat="44.26958" lon="6.18217">
        <ele>1833.85</ele>
        <time>2013-05-09T13:09:29Z</time>
      </trkpt>
      <trkpt lat="44.26955" lon="6.18207">
        <ele>1836.26</ele>
        <time>2013-05-09T13:09:37Z</time>
      </trkpt>
      <trkpt lat="44.26955" lon="6.18202">
        <ele>1834.81</ele>
        <time>2013-05-09T13:09:41Z</time>
      </trkpt>
      <trkpt lat="44.26953" lon="6.18182">
        <ele>1835.77</ele>
        <time>2013-05-09T13:09:55Z</time>
      </trkpt>
      <trkpt lat="44.26951" lon="6.1817">
        <ele>1835.77</ele>
        <time>2013-05-09T13:10:06Z</time>
      </trkpt>
      <trkpt lat="44.26951" lon="6.18169">
        <ele>1836.26</ele>
        <time>2013-05-09T13:10:22Z</time>
      </trkpt>
      <trkpt lat="44.26949" lon="6.18159">
        <ele>1836.74</ele>
        <time>2013-05-09T13:10:34Z</time>
      </trkpt>
      <trkpt lat="44.26947" lon="6.18156">
        <ele>1836.74</ele>
        <time>2013-05-09T13:10:48Z</time>
      </trkpt>
      <trkpt lat="44.26945" lon="6.18154">
        <ele>1836.74</ele>
        <time>2013-05-09T13:10:51Z</time>
      </trkpt>
      <trkpt lat="44.26941" lon="6.18138">
        <ele>1837.22</ele>
        <time>2013-05-09T13:11:05Z</time>
      </trkpt>
      <trkpt lat="44.26938" lon="6.18122">
        <ele>1836.26</ele>
        <time>2013-05-09T13:11:16Z</time>
      </trkpt>
      <trkpt lat="44.26939" lon="6.18119">
        <ele>1838.66</ele>
        <time>2013-05-09T13:11:18Z</time>
      </trkpt>
      <trkpt lat="44.26934" lon="6.18102">
        <ele>1838.66</ele>
        <time>2013-05-09T13:11:33Z</time>
      </trkpt>
      <trkpt lat="44.26933" lon="6.18096">
        <ele>1840.1</ele>
        <time>2013-05-09T13:11:37Z</time>
      </trkpt>
      <trkpt lat="44.26933" lon="6.18092">
        <ele>1839.14</ele>
        <time>2013-05-09T13:11:39Z</time>
      </trkpt>
      <trkpt lat="44.26932" lon="6.18074">
        <ele>1842.02</ele>
        <time>2013-05-09T13:11:51Z</time>
      </trkpt>
      <trkpt lat="44.2693" lon="6.18059">
        <ele>1841.54</ele>
        <time>2013-05-09T13:12:03Z</time>
      </trkpt>
      <trkpt lat="44.26927" lon="6.18038">
        <ele>1841.54</ele>
        <time>2013-05-09T13:12:17Z</time>
      </trkpt>
      <trkpt lat="44.26925" lon="6.18016">
        <ele>1841.06</ele>
        <time>2013-05-09T13:12:31Z</time>
      </trkpt>
      <trkpt lat="44.26923" lon="6.17998">
        <ele>1841.06</ele>
        <time>2013-05-09T13:12:43Z</time>
      </trkpt>
      <trkpt lat="44.26922" lon="6.17987">
        <ele>1840.58</ele>
        <time>2013-05-09T13:12:50Z</time>
      </trkpt>
      <trkpt lat="44.2692" lon="6.17968">
        <ele>1841.06</ele>
        <time>2013-05-09T13:13:04Z</time>
      </trkpt>
      <trkpt lat="44.26916" lon="6.17955">
        <ele>1839.14</ele>
        <time>2013-05-09T13:13:14Z</time>
      </trkpt>
      <trkpt lat="44.26913" lon="6.17935">
        <ele>1840.58</ele>
        <time>2013-05-09T13:13:26Z</time>
      </trkpt>
      <trkpt lat="44.2691" lon="6.17915">
        <ele>1840.58</ele>
        <time>2013-05-09T13:13:39Z</time>
      </trkpt>
      <trkpt lat="44.26906" lon="6.17897">
        <ele>1840.1</ele>
        <time>2013-05-09T13:13:52Z</time>
      </trkpt>
      <trkpt lat="44.26905" lon="6.1788">
        <ele>1840.58</ele>
        <time>2013-05-09T13:14:04Z</time>
      </trkpt>
      <trkpt lat="44.26904" lon="6.17865">
        <ele>1840.1</ele>
        <time>2013-05-09T13:14:17Z</time>
      </trkpt>
      <trkpt lat="44.26904" lon="6.17864">
        <ele>1840.1</ele>
        <time>2013-05-09T13:14:19Z</time>
      </trkpt>
      <trkpt lat="44.26903" lon="6.17855">
        <ele>1840.1</ele>
        <time>2013-05-09T13:14:33Z</time>
      </trkpt>
      <trkpt lat="44.26902" lon="6.1785">
        <ele>1839.62</ele>
        <time>2013-05-09T13:14:39Z</time>
      </trkpt>
      <trkpt lat="44.269" lon="6.17835">
        <ele>1838.18</ele>
        <time>2013-05-09T13:14:52Z</time>
      </trkpt>
      <trkpt lat="44.269" lon="6.17823">
        <ele>1835.77</ele>
        <time>2013-05-09T13:15:02Z</time>
      </trkpt>
      <trkpt lat="44.269" lon="6.17821">
        <ele>1836.26</ele>
        <time>2013-05-09T13:15:04Z</time>
      </trkpt>
      <trkpt lat="44.26899" lon="6.17805">
        <ele>1836.74</ele>
        <time>2013-05-09T13:15:19Z</time>
      </trkpt>
      <trkpt lat="44.26897" lon="6.17805">
        <ele>1836.26</ele>
        <time>2013-05-09T13:15:44Z</time>
      </trkpt>
      <trkpt lat="44.26899" lon="6.17805">
        <ele>1836.74</ele>
        <time>2013-05-09T13:16:12Z</time>
      </trkpt>
      <trkpt lat="44.26899" lon="6.17805">
        <ele>1837.7</ele>
        <time>2013-05-09T13:16:15Z</time>
      </trkpt>
      <trkpt lat="44.26898" lon="6.17806">
        <ele>1835.29</ele>
        <time>2013-05-09T13:16:19Z</time>
      </trkpt>
      <trkpt lat="44.26897" lon="6.17804">
        <ele>1837.7</ele>
        <time>2013-05-09T13:16:33Z</time>
      </trkpt>
      <trkpt lat="44.26897" lon="6.17806">
        <ele>1834.33</ele>
        <time>2013-05-09T13:16:37Z</time>
      </trkpt>
      <trkpt lat="44.26896" lon="6.17806">
        <ele>1834.81</ele>
        <time>2013-05-09T13:16:38Z</time>
      </trkpt>
      <trkpt lat="44.26898" lon="6.17807">
        <ele>1836.26</ele>
        <time>2013-05-09T13:17:05Z</time>
      </trkpt>
      <trkpt lat="44.26898" lon="6.17803">
        <ele>1835.77</ele>
        <time>2013-05-09T13:17:29Z</time>
      </trkpt>
      <trkpt lat="44.26898" lon="6.17795">
        <ele>1835.29</ele>
        <time>2013-05-09T13:17:41Z</time>
      </trkpt>
      <trkpt lat="44.26899" lon="6.17789">
        <ele>1835.29</ele>
        <time>2013-05-09T13:17:53Z</time>
      </trkpt>
      <trkpt lat="44.269" lon="6.17786">
        <ele>1834.33</ele>
        <time>2013-05-09T13:18:18Z</time>
      </trkpt>
      <trkpt lat="44.26899" lon="6.17775">
        <ele>1835.29</ele>
        <time>2013-05-09T13:18:26Z</time>
      </trkpt>
      <trkpt lat="44.26899" lon="6.17772">
        <ele>1834.81</ele>
        <time>2013-05-09T13:18:29Z</time>
      </trkpt>
      <trkpt lat="44.26898" lon="6.17762">
        <ele>1835.29</ele>
        <time>2013-05-09T13:18:36Z</time>
      </trkpt>
      <trkpt lat="44.26899" lon="6.17756">
        <ele>1834.81</ele>
        <time>2013-05-09T13:18:53Z</time>
      </trkpt>
      <trkpt lat="44.26898" lon="6.17741">
        <ele>1833.37</ele>
        <time>2013-05-09T13:19:03Z</time>
      </trkpt>
      <trkpt lat="44.26898" lon="6.17737">
        <ele>1831.45</ele>
        <time>2013-05-09T13:19:05Z</time>
      </trkpt>
      <trkpt lat="44.26898" lon="6.17736">
        <ele>1831.45</ele>
        <time>2013-05-09T13:19:06Z</time>
      </trkpt>
      <trkpt lat="44.26897" lon="6.17732">
        <ele>1832.89</ele>
        <time>2013-05-09T13:19:08Z</time>
      </trkpt>
      <trkpt lat="44.26894" lon="6.1772">
        <ele>1831.93</ele>
        <time>2013-05-09T13:19:16Z</time>
      </trkpt>
      <trkpt lat="44.26896" lon="6.17703">
        <ele>1831.93</ele>
        <time>2013-05-09T13:19:27Z</time>
      </trkpt>
      <trkpt lat="44.26898" lon="6.17681">
        <ele>1831.45</ele>
        <time>2013-05-09T13:19:41Z</time>
      </trkpt>
      <trkpt lat="44.269" lon="6.17665">
        <ele>1830.01</ele>
        <time>2013-05-09T13:19:51Z</time>
      </trkpt>
      <trkpt lat="44.26898" lon="6.17654">
        <ele>1828.56</ele>
        <time>2013-05-09T13:19:58Z</time>
      </trkpt>
      <trkpt lat="44.26897" lon="6.17651">
        <ele>1829.53</ele>
        <time>2013-05-09T13:20:00Z</time>
      </trkpt>
      <trkpt lat="44.26897" lon="6.17626">
        <ele>1827.6</ele>
        <time>2013-05-09T13:20:14Z</time>
      </trkpt>
      <trkpt lat="44.269" lon="6.17607">
        <ele>1825.68</ele>
        <time>2013-05-09T13:20:27Z</time>
      </trkpt>
      <trkpt lat="44.26902" lon="6.17585">
        <ele>1825.2</ele>
        <time>2013-05-09T13:20:41Z</time>
      </trkpt>
      <trkpt lat="44.26902" lon="6.17579">
        <ele>1824.24</ele>
        <time>2013-05-09T13:20:44Z</time>
      </trkpt>
      <trkpt lat="44.26899" lon="6.17557">
        <ele>1824.24</ele>
        <time>2013-05-09T13:20:58Z</time>
      </trkpt>
      <trkpt lat="44.26898" lon="6.17551">
        <ele>1822.8</ele>
        <time>2013-05-09T13:21:01Z</time>
      </trkpt>
      <trkpt lat="44.26896" lon="6.17532">
        <ele>1822.32</ele>
        <time>2013-05-09T13:21:13Z</time>
      </trkpt>
      <trkpt lat="44.26896" lon="6.1753">
        <ele>1822.8</ele>
        <time>2013-05-09T13:21:14Z</time>
      </trkpt>
      <trkpt lat="44.26895" lon="6.17522">
        <ele>1821.35</ele>
        <time>2013-05-09T13:21:21Z</time>
      </trkpt>
      <trkpt lat="44.26895" lon="6.17506">
        <ele>1821.84</ele>
        <time>2013-05-09T13:21:35Z</time>
      </trkpt>
      <trkpt lat="44.26895" lon="6.17505">
        <ele>1820.87</ele>
        <time>2013-05-09T13:21:36Z</time>
      </trkpt>
      <trkpt lat="44.26896" lon="6.17484">
        <ele>1819.43</ele>
        <time>2013-05-09T13:21:50Z</time>
      </trkpt>
      <trkpt lat="44.26896" lon="6.17475">
        <ele>1818.47</ele>
        <time>2013-05-09T13:21:55Z</time>
      </trkpt>
      <trkpt lat="44.26894" lon="6.17453">
        <ele>1817.99</ele>
        <time>2013-05-09T13:22:08Z</time>
      </trkpt>
      <trkpt lat="44.26895" lon="6.17447">
        <ele>1816.55</ele>
        <time>2013-05-09T13:22:12Z</time>
      </trkpt>
      <trkpt lat="44.26895" lon="6.1743">
        <ele>1816.55</ele>
        <time>2013-05-09T13:22:21Z</time>
      </trkpt>
      <trkpt lat="44.26898" lon="6.17424">
        <ele>1814.15</ele>
        <time>2013-05-09T13:22:25Z</time>
      </trkpt>
      <trkpt lat="44.269" lon="6.17418">
        <ele>1814.15</ele>
        <time>2013-05-09T13:22:28Z</time>
      </trkpt>
      <trkpt lat="44.26901" lon="6.17414">
        <ele>1813.66</ele>
        <time>2013-05-09T13:22:30Z</time>
      </trkpt>
      <trkpt lat="44.26902" lon="6.17407">
        <ele>1811.74</ele>
        <time>2013-05-09T13:22:34Z</time>
      </trkpt>
      <trkpt lat="44.269" lon="6.17397">
        <ele>1810.3</ele>
        <time>2013-05-09T13:22:40Z</time>
      </trkpt>
      <trkpt lat="44.269" lon="6.1739">
        <ele>1809.34</ele>
        <time>2013-05-09T13:22:43Z</time>
      </trkpt>
      <trkpt lat="44.269" lon="6.1737">
        <ele>1808.86</ele>
        <time>2013-05-09T13:22:53Z</time>
      </trkpt>
      <trkpt lat="44.26906" lon="6.17352">
        <ele>1806.94</ele>
        <time>2013-05-09T13:23:05Z</time>
      </trkpt>
      <trkpt lat="44.26904" lon="6.17351">
        <ele>1808.38</ele>
        <time>2013-05-09T13:23:17Z</time>
      </trkpt>
      <trkpt lat="44.26904" lon="6.17347">
        <ele>1806.94</ele>
        <time>2013-05-09T13:23:21Z</time>
      </trkpt>
      <trkpt lat="44.26904" lon="6.17345">
        <ele>1807.9</ele>
        <time>2013-05-09T13:23:23Z</time>
      </trkpt>
      <trkpt lat="44.26905" lon="6.17335">
        <ele>1807.9</ele>
        <time>2013-05-09T13:23:34Z</time>
      </trkpt>
      <trkpt lat="44.26906" lon="6.17332">
        <ele>1807.9</ele>
        <time>2013-05-09T13:23:36Z</time>
      </trkpt>
      <trkpt lat="44.26905" lon="6.1733">
        <ele>1806.94</ele>
        <time>2013-05-09T13:23:51Z</time>
      </trkpt>
      <trkpt lat="44.26905" lon="6.17327">
        <ele>1807.42</ele>
        <time>2013-05-09T13:24:14Z</time>
      </trkpt>
      <trkpt lat="44.26906" lon="6.17325">
        <ele>1808.38</ele>
        <time>2013-05-09T13:24:17Z</time>
      </trkpt>
      <trkpt lat="44.26909" lon="6.17312">
        <ele>1804.53</ele>
        <time>2013-05-09T13:24:30Z</time>
      </trkpt>
      <trkpt lat="44.26911" lon="6.17304">
        <ele>1805.97</ele>
        <time>2013-05-09T13:24:38Z</time>
      </trkpt>
      <trkpt lat="44.26911" lon="6.17303">
        <ele>1805.97</ele>
        <time>2013-05-09T13:24:40Z</time>
      </trkpt>
      <trkpt lat="44.26913" lon="6.173">
        <ele>1806.45</ele>
        <time>2013-05-09T13:24:43Z</time>
      </trkpt>
      <trkpt lat="44.26915" lon="6.17299">
        <ele>1805.49</ele>
        <time>2013-05-09T13:24:45Z</time>
      </trkpt>
      <trkpt lat="44.26924" lon="6.1729">
        <ele>1803.57</ele>
        <time>2013-05-09T13:24:56Z</time>
      </trkpt>
      <trkpt lat="44.26924" lon="6.17289">
        <ele>1803.57</ele>
        <time>2013-05-09T13:24:57Z</time>
      </trkpt>
      <trkpt lat="44.26925" lon="6.17285">
        <ele>1803.09</ele>
        <time>2013-05-09T13:25:00Z</time>
      </trkpt>
      <trkpt lat="44.26927" lon="6.17276">
        <ele>1805.01</ele>
        <time>2013-05-09T13:25:08Z</time>
      </trkpt>
      <trkpt lat="44.26929" lon="6.17271">
        <ele>1803.09</ele>
        <time>2013-05-09T13:25:13Z</time>
      </trkpt>
      <trkpt lat="44.26929" lon="6.17264">
        <ele>1801.65</ele>
        <time>2013-05-09T13:25:18Z</time>
      </trkpt>
      <trkpt lat="44.26933" lon="6.17247">
        <ele>1800.21</ele>
        <time>2013-05-09T13:25:32Z</time>
      </trkpt>
      <trkpt lat="44.26936" lon="6.17231">
        <ele>1803.09</ele>
        <time>2013-05-09T13:25:42Z</time>
      </trkpt>
      <trkpt lat="44.26936" lon="6.17229">
        <ele>1802.13</ele>
        <time>2013-05-09T13:25:44Z</time>
      </trkpt>
      <trkpt lat="44.26941" lon="6.17214">
        <ele>1803.57</ele>
        <time>2013-05-09T13:25:55Z</time>
      </trkpt>
      <trkpt lat="44.26941" lon="6.17209">
        <ele>1802.13</ele>
        <time>2013-05-09T13:25:58Z</time>
      </trkpt>
      <trkpt lat="44.26942" lon="6.17191">
        <ele>1804.05</ele>
        <time>2013-05-09T13:26:10Z</time>
      </trkpt>
      <trkpt lat="44.26942" lon="6.17187">
        <ele>1803.57</ele>
        <time>2013-05-09T13:26:13Z</time>
      </trkpt>
      <trkpt lat="44.26942" lon="6.17178">
        <ele>1804.05</ele>
        <time>2013-05-09T13:26:19Z</time>
      </trkpt>
      <trkpt lat="44.26944" lon="6.17158">
        <ele>1805.01</ele>
        <time>2013-05-09T13:26:32Z</time>
      </trkpt>
      <trkpt lat="44.26947" lon="6.17136">
        <ele>1802.61</ele>
        <time>2013-05-09T13:26:46Z</time>
      </trkpt>
      <trkpt lat="44.26947" lon="6.17132">
        <ele>1803.09</ele>
        <time>2013-05-09T13:26:49Z</time>
      </trkpt>
      <trkpt lat="44.26949" lon="6.17122">
        <ele>1800.69</ele>
        <time>2013-05-09T13:26:56Z</time>
      </trkpt>
      <trkpt lat="44.2695" lon="6.17114">
        <ele>1799.73</ele>
        <time>2013-05-09T13:27:02Z</time>
      </trkpt>
      <trkpt lat="44.26951" lon="6.17104">
        <ele>1798.28</ele>
        <time>2013-05-09T13:27:09Z</time>
      </trkpt>
      <trkpt lat="44.2695" lon="6.17095">
        <ele>1796.36</ele>
        <time>2013-05-09T13:27:16Z</time>
      </trkpt>
      <trkpt lat="44.26954" lon="6.17087">
        <ele>1794.44</ele>
        <time>2013-05-09T13:27:24Z</time>
      </trkpt>
      <trkpt lat="44.26951" lon="6.17081">
        <ele>1793.96</ele>
        <time>2013-05-09T13:27:30Z</time>
      </trkpt>
      <trkpt lat="44.26952" lon="6.17077">
        <ele>1793.48</ele>
        <time>2013-05-09T13:27:33Z</time>
      </trkpt>
      <trkpt lat="44.26954" lon="6.17074">
        <ele>1792.03</ele>
        <time>2013-05-09T13:27:36Z</time>
      </trkpt>
      <trkpt lat="44.26952" lon="6.17069">
        <ele>1792.03</ele>
        <time>2013-05-09T13:27:41Z</time>
      </trkpt>
      <trkpt lat="44.26952" lon="6.17066">
        <ele>1792.03</ele>
        <time>2013-05-09T13:27:43Z</time>
      </trkpt>
      <trkpt lat="44.26952" lon="6.1706">
        <ele>1790.11</ele>
        <time>2013-05-09T13:27:48Z</time>
      </trkpt>
      <trkpt lat="44.26953" lon="6.17055">
        <ele>1788.19</ele>
        <time>2013-05-09T13:27:52Z</time>
      </trkpt>
      <trkpt lat="44.26956" lon="6.1705">
        <ele>1787.71</ele>
        <time>2013-05-09T13:27:58Z</time>
      </trkpt>
      <trkpt lat="44.26956" lon="6.17049">
        <ele>1788.19</ele>
        <time>2013-05-09T13:27:59Z</time>
      </trkpt>
      <trkpt lat="44.26955" lon="6.17045">
        <ele>1787.23</ele>
        <time>2013-05-09T13:28:02Z</time>
      </trkpt>
      <trkpt lat="44.26957" lon="6.17039">
        <ele>1786.27</ele>
        <time>2013-05-09T13:28:07Z</time>
      </trkpt>
      <trkpt lat="44.26956" lon="6.17032">
        <ele>1785.31</ele>
        <time>2013-05-09T13:28:12Z</time>
      </trkpt>
      <trkpt lat="44.26958" lon="6.17014">
        <ele>1782.42</ele>
        <time>2013-05-09T13:28:25Z</time>
      </trkpt>
      <trkpt lat="44.26961" lon="6.16999">
        <ele>1779.54</ele>
        <time>2013-05-09T13:28:39Z</time>
      </trkpt>
      <trkpt lat="44.26965" lon="6.16993">
        <ele>1777.61</ele>
        <time>2013-05-09T13:28:47Z</time>
      </trkpt>
      <trkpt lat="44.26968" lon="6.16981">
        <ele>1775.21</ele>
        <time>2013-05-09T13:28:59Z</time>
      </trkpt>
      <trkpt lat="44.26969" lon="6.16969">
        <ele>1773.77</ele>
        <time>2013-05-09T13:29:10Z</time>
      </trkpt>
      <trkpt lat="44.2697" lon="6.16965">
        <ele>1772.81</ele>
        <time>2013-05-09T13:29:14Z</time>
      </trkpt>
      <trkpt lat="44.2697" lon="6.16962">
        <ele>1771.37</ele>
        <time>2013-05-09T13:29:16Z</time>
      </trkpt>
      <trkpt lat="44.26969" lon="6.16945">
        <ele>1769.44</ele>
        <time>2013-05-09T13:29:28Z</time>
      </trkpt>
      <trkpt lat="44.2697" lon="6.16933">
        <ele>1768</ele>
        <time>2013-05-09T13:29:37Z</time>
      </trkpt>
      <trkpt lat="44.26972" lon="6.1692">
        <ele>1767.04</ele>
        <time>2013-05-09T13:29:49Z</time>
      </trkpt>
      <trkpt lat="44.26972" lon="6.16908">
        <ele>1767.52</ele>
        <time>2013-05-09T13:30:02Z</time>
      </trkpt>
      <trkpt lat="44.26972" lon="6.16903">
        <ele>1767.04</ele>
        <time>2013-05-09T13:30:06Z</time>
      </trkpt>
      <trkpt lat="44.26974" lon="6.16882">
        <ele>1764.64</ele>
        <time>2013-05-09T13:30:21Z</time>
      </trkpt>
      <trkpt lat="44.26975" lon="6.16867">
        <ele>1761.75</ele>
        <time>2013-05-09T13:30:32Z</time>
      </trkpt>
      <trkpt lat="44.26978" lon="6.16855">
        <ele>1760.79</ele>
        <time>2013-05-09T13:30:41Z</time>
      </trkpt>
      <trkpt lat="44.26981" lon="6.16832">
        <ele>1759.35</ele>
        <time>2013-05-09T13:30:55Z</time>
      </trkpt>
      <trkpt lat="44.26983" lon="6.16813">
        <ele>1758.87</ele>
        <time>2013-05-09T13:31:06Z</time>
      </trkpt>
      <trkpt lat="44.26983" lon="6.1681">
        <ele>1758.87</ele>
        <time>2013-05-09T13:31:08Z</time>
      </trkpt>
      <trkpt lat="44.26983" lon="6.16806">
        <ele>1757.43</ele>
        <time>2013-05-09T13:31:11Z</time>
      </trkpt>
      <trkpt lat="44.26984" lon="6.16786">
        <ele>1756.95</ele>
        <time>2013-05-09T13:31:23Z</time>
      </trkpt>
      <trkpt lat="44.26983" lon="6.1677">
        <ele>1755.99</ele>
        <time>2013-05-09T13:31:35Z</time>
      </trkpt>
      <trkpt lat="44.26982" lon="6.16762">
        <ele>1757.43</ele>
        <time>2013-05-09T13:31:40Z</time>
      </trkpt>
      <trkpt lat="44.26985" lon="6.16742">
        <ele>1757.43</ele>
        <time>2013-05-09T13:31:52Z</time>
      </trkpt>
      <trkpt lat="44.26985" lon="6.16741">
        <ele>1756.47</ele>
        <time>2013-05-09T13:31:53Z</time>
      </trkpt>
      <trkpt lat="44.26987" lon="6.16731">
        <ele>1756.47</ele>
        <time>2013-05-09T13:32:00Z</time>
      </trkpt>
      <trkpt lat="44.26987" lon="6.16726">
        <ele>1755.99</ele>
        <time>2013-05-09T13:32:04Z</time>
      </trkpt>
      <trkpt lat="44.26984" lon="6.16716">
        <ele>1755.99</ele>
        <time>2013-05-09T13:32:12Z</time>
      </trkpt>
      <trkpt lat="44.26981" lon="6.16695">
        <ele>1755.99</ele>
        <time>2013-05-09T13:32:25Z</time>
      </trkpt>
      <trkpt lat="44.26982" lon="6.16681">
        <ele>1753.58</ele>
        <time>2013-05-09T13:32:34Z</time>
      </trkpt>
      <trkpt lat="44.2698" lon="6.16662">
        <ele>1753.58</ele>
        <time>2013-05-09T13:32:46Z</time>
      </trkpt>
      <trkpt lat="44.26978" lon="6.16645">
        <ele>1752.62</ele>
        <time>2013-05-09T13:32:57Z</time>
      </trkpt>
      <trkpt lat="44.26977" lon="6.16624">
        <ele>1754.06</ele>
        <time>2013-05-09T13:33:11Z</time>
      </trkpt>
      <trkpt lat="44.26976" lon="6.1662">
        <ele>1754.54</ele>
        <time>2013-05-09T13:33:14Z</time>
      </trkpt>
      <trkpt lat="44.26974" lon="6.16616">
        <ele>1752.62</ele>
        <time>2013-05-09T13:33:17Z</time>
      </trkpt>
      <trkpt lat="44.26974" lon="6.16615">
        <ele>1754.06</ele>
        <time>2013-05-09T13:33:19Z</time>
      </trkpt>
      <trkpt lat="44.26974" lon="6.16609">
        <ele>1754.54</ele>
        <time>2013-05-09T13:33:30Z</time>
      </trkpt>
      <trkpt lat="44.26973" lon="6.16614">
        <ele>1753.1</ele>
        <time>2013-05-09T13:33:43Z</time>
      </trkpt>
      <trkpt lat="44.26974" lon="6.16615">
        <ele>1753.58</ele>
        <time>2013-05-09T13:34:20Z</time>
      </trkpt>
      <trkpt lat="44.26973" lon="6.16611">
        <ele>1753.1</ele>
        <time>2013-05-09T13:34:56Z</time>
      </trkpt>
      <trkpt lat="44.26974" lon="6.16615">
        <ele>1753.1</ele>
        <time>2013-05-09T13:35:34Z</time>
      </trkpt>
      <trkpt lat="44.26975" lon="6.16616">
        <ele>1753.1</ele>
        <time>2013-05-09T13:36:13Z</time>
      </trkpt>
      <trkpt lat="44.26973" lon="6.16616">
        <ele>1749.74</ele>
        <time>2013-05-09T13:36:23Z</time>
      </trkpt>
      <trkpt lat="44.26973" lon="6.16616">
        <ele>1755.5</ele>
        <time>2013-05-09T13:36:24Z</time>
      </trkpt>
      <trkpt lat="44.26974" lon="6.16614">
        <ele>1752.62</ele>
        <time>2013-05-09T13:36:29Z</time>
      </trkpt>
      <trkpt lat="44.26975" lon="6.16612">
        <ele>1753.1</ele>
        <time>2013-05-09T13:36:31Z</time>
      </trkpt>
      <trkpt lat="44.26974" lon="6.166">
        <ele>1754.06</ele>
        <time>2013-05-09T13:36:44Z</time>
      </trkpt>
      <trkpt lat="44.26973" lon="6.16597">
        <ele>1755.5</ele>
        <time>2013-05-09T13:36:54Z</time>
      </trkpt>
      <trkpt lat="44.26973" lon="6.16571">
        <ele>1755.5</ele>
        <time>2013-05-09T13:37:11Z</time>
      </trkpt>
      <trkpt lat="44.26973" lon="6.1656">
        <ele>1755.5</ele>
        <time>2013-05-09T13:37:20Z</time>
      </trkpt>
      <trkpt lat="44.26973" lon="6.16557">
        <ele>1757.43</ele>
        <time>2013-05-09T13:37:22Z</time>
      </trkpt>
      <trkpt lat="44.26973" lon="6.16551">
        <ele>1757.43</ele>
        <time>2013-05-09T13:37:26Z</time>
      </trkpt>
      <trkpt lat="44.26973" lon="6.16549">
        <ele>1756.47</ele>
        <time>2013-05-09T13:37:28Z</time>
      </trkpt>
      <trkpt lat="44.26973" lon="6.16539">
        <ele>1756.95</ele>
        <time>2013-05-09T13:37:35Z</time>
      </trkpt>
      <trkpt lat="44.26973" lon="6.16535">
        <ele>1757.91</ele>
        <time>2013-05-09T13:37:38Z</time>
      </trkpt>
      <trkpt lat="44.26972" lon="6.16527">
        <ele>1758.87</ele>
        <time>2013-05-09T13:37:43Z</time>
      </trkpt>
      <trkpt lat="44.26974" lon="6.16502">
        <ele>1760.79</ele>
        <time>2013-05-09T13:38:00Z</time>
      </trkpt>
      <trkpt lat="44.26972" lon="6.16485">
        <ele>1760.31</ele>
        <time>2013-05-09T13:38:11Z</time>
      </trkpt>
      <trkpt lat="44.26972" lon="6.16467">
        <ele>1761.27</ele>
        <time>2013-05-09T13:38:24Z</time>
      </trkpt>
      <trkpt lat="44.2697" lon="6.16441">
        <ele>1761.27</ele>
        <time>2013-05-09T13:38:40Z</time>
      </trkpt>
      <trkpt lat="44.26968" lon="6.16431">
        <ele>1764.64</ele>
        <time>2013-05-09T13:38:47Z</time>
      </trkpt>
      <trkpt lat="44.26967" lon="6.16411">
        <ele>1764.16</ele>
        <time>2013-05-09T13:39:01Z</time>
      </trkpt>
      <trkpt lat="44.26967" lon="6.16388">
        <ele>1767.04</ele>
        <time>2013-05-09T13:39:17Z</time>
      </trkpt>
      <trkpt lat="44.26967" lon="6.16367">
        <ele>1767.52</ele>
        <time>2013-05-09T13:39:32Z</time>
      </trkpt>
      <trkpt lat="44.26965" lon="6.16353">
        <ele>1770.41</ele>
        <time>2013-05-09T13:39:42Z</time>
      </trkpt>
      <trkpt lat="44.26965" lon="6.16352">
        <ele>1769.44</ele>
        <time>2013-05-09T13:39:43Z</time>
      </trkpt>
      <trkpt lat="44.26962" lon="6.16331">
        <ele>1768.96</ele>
        <time>2013-05-09T13:39:57Z</time>
      </trkpt>
      <trkpt lat="44.26961" lon="6.16319">
        <ele>1772.81</ele>
        <time>2013-05-09T13:40:05Z</time>
      </trkpt>
      <trkpt lat="44.26958" lon="6.16297">
        <ele>1771.37</ele>
        <time>2013-05-09T13:40:18Z</time>
      </trkpt>
      <trkpt lat="44.26957" lon="6.1629">
        <ele>1768.48</ele>
        <time>2013-05-09T13:40:23Z</time>
      </trkpt>
      <trkpt lat="44.26954" lon="6.16271">
        <ele>1765.12</ele>
        <time>2013-05-09T13:40:34Z</time>
      </trkpt>
      <trkpt lat="44.26954" lon="6.16266">
        <ele>1766.56</ele>
        <time>2013-05-09T13:40:37Z</time>
      </trkpt>
      <trkpt lat="44.26951" lon="6.16243">
        <ele>1766.08</ele>
        <time>2013-05-09T13:40:51Z</time>
      </trkpt>
      <trkpt lat="44.26949" lon="6.16236">
        <ele>1766.56</ele>
        <time>2013-05-09T13:40:56Z</time>
      </trkpt>
      <trkpt lat="44.26949" lon="6.16231">
        <ele>1767.04</ele>
        <time>2013-05-09T13:40:59Z</time>
      </trkpt>
      <trkpt lat="44.26948" lon="6.16227">
        <ele>1765.6</ele>
        <time>2013-05-09T13:41:02Z</time>
      </trkpt>
      <trkpt lat="44.26947" lon="6.16224">
        <ele>1767.52</ele>
        <time>2013-05-09T13:41:04Z</time>
      </trkpt>
      <trkpt lat="44.26945" lon="6.16201">
        <ele>1766.08</ele>
        <time>2013-05-09T13:41:17Z</time>
      </trkpt>
      <trkpt lat="44.2694" lon="6.16183">
        <ele>1766.56</ele>
        <time>2013-05-09T13:41:29Z</time>
      </trkpt>
      <trkpt lat="44.26939" lon="6.16179">
        <ele>1768</ele>
        <time>2013-05-09T13:41:32Z</time>
      </trkpt>
      <trkpt lat="44.26934" lon="6.1616">
        <ele>1768</ele>
        <time>2013-05-09T13:41:45Z</time>
      </trkpt>
      <trkpt lat="44.26934" lon="6.16144">
        <ele>1770.41</ele>
        <time>2013-05-09T13:41:58Z</time>
      </trkpt>
      <trkpt lat="44.26933" lon="6.16128">
        <ele>1770.89</ele>
        <time>2013-05-09T13:42:10Z</time>
      </trkpt>
      <trkpt lat="44.26933" lon="6.16122">
        <ele>1771.85</ele>
        <time>2013-05-09T13:42:15Z</time>
      </trkpt>
      <trkpt lat="44.26935" lon="6.16105">
        <ele>1773.77</ele>
        <time>2013-05-09T13:42:28Z</time>
      </trkpt>
      <trkpt lat="44.26932" lon="6.1609">
        <ele>1772.33</ele>
        <time>2013-05-09T13:42:40Z</time>
      </trkpt>
      <trkpt lat="44.26931" lon="6.1607">
        <ele>1772.33</ele>
        <time>2013-05-09T13:42:52Z</time>
      </trkpt>
      <trkpt lat="44.26928" lon="6.16053">
        <ele>1773.29</ele>
        <time>2013-05-09T13:43:05Z</time>
      </trkpt>
      <trkpt lat="44.26927" lon="6.16036">
        <ele>1773.77</ele>
        <time>2013-05-09T13:43:19Z</time>
      </trkpt>
      <trkpt lat="44.26925" lon="6.16016">
        <ele>1772.33</ele>
        <time>2013-05-09T13:43:33Z</time>
      </trkpt>
      <trkpt lat="44.26925" lon="6.16015">
        <ele>1774.25</ele>
        <time>2013-05-09T13:43:34Z</time>
      </trkpt>
      <trkpt lat="44.26925" lon="6.16012">
        <ele>1774.25</ele>
        <time>2013-05-09T13:43:37Z</time>
      </trkpt>
      <trkpt lat="44.26924" lon="6.15998">
        <ele>1775.21</ele>
        <time>2013-05-09T13:43:49Z</time>
      </trkpt>
      <trkpt lat="44.26924" lon="6.15994">
        <ele>1774.25</ele>
        <time>2013-05-09T13:43:53Z</time>
      </trkpt>
      <trkpt lat="44.26924" lon="6.15986">
        <ele>1775.21</ele>
        <time>2013-05-09T13:43:59Z</time>
      </trkpt>
      <trkpt lat="44.26924" lon="6.1598">
        <ele>1775.69</ele>
        <time>2013-05-09T13:44:04Z</time>
      </trkpt>
      <trkpt lat="44.26925" lon="6.15965">
        <ele>1776.65</ele>
        <time>2013-05-09T13:44:17Z</time>
      </trkpt>
      <trkpt lat="44.26925" lon="6.15952">
        <ele>1777.61</ele>
        <time>2013-05-09T13:44:28Z</time>
      </trkpt>
      <trkpt lat="44.26927" lon="6.1594">
        <ele>1777.13</ele>
        <time>2013-05-09T13:44:41Z</time>
      </trkpt>
      <trkpt lat="44.2693" lon="6.1593">
        <ele>1780.5</ele>
        <time>2013-05-09T13:44:53Z</time>
      </trkpt>
      <trkpt lat="44.26936" lon="6.15923">
        <ele>1782.9</ele>
        <time>2013-05-09T13:45:06Z</time>
      </trkpt>
      <trkpt lat="44.2694" lon="6.15918">
        <ele>1786.27</ele>
        <time>2013-05-09T13:45:20Z</time>
      </trkpt>
      <trkpt lat="44.26942" lon="6.1592">
        <ele>1786.27</ele>
        <time>2013-05-09T13:45:35Z</time>
      </trkpt>
      <trkpt lat="44.26946" lon="6.15923">
        <ele>1789.63</ele>
        <time>2013-05-09T13:45:43Z</time>
      </trkpt>
      <trkpt lat="44.26951" lon="6.15923">
        <ele>1792.52</ele>
        <time>2013-05-09T13:45:56Z</time>
      </trkpt>
      <trkpt lat="44.26954" lon="6.15915">
        <ele>1793.48</ele>
        <time>2013-05-09T13:46:10Z</time>
      </trkpt>
      <trkpt lat="44.26953" lon="6.15907">
        <ele>1793.48</ele>
        <time>2013-05-09T13:46:23Z</time>
      </trkpt>
      <trkpt lat="44.26952" lon="6.15909">
        <ele>1792.03</ele>
        <time>2013-05-09T13:46:57Z</time>
      </trkpt>
      <trkpt lat="44.26953" lon="6.15907">
        <ele>1793.48</ele>
        <time>2013-05-09T13:47:19Z</time>
      </trkpt>
      <trkpt lat="44.26952" lon="6.15906">
        <ele>1793.48</ele>
        <time>2013-05-09T13:47:34Z</time>
      </trkpt>
      <trkpt lat="44.26953" lon="6.15907">
        <ele>1793.48</ele>
        <time>2013-05-09T13:48:12Z</time>
      </trkpt>
      <trkpt lat="44.26955" lon="6.15894">
        <ele>1793.48</ele>
        <time>2013-05-09T13:48:28Z</time>
      </trkpt>
      <trkpt lat="44.26956" lon="6.15892">
        <ele>1793</ele>
        <time>2013-05-09T13:48:31Z</time>
      </trkpt>
      <trkpt lat="44.2696" lon="6.15877">
        <ele>1790.11</ele>
        <time>2013-05-09T13:48:44Z</time>
      </trkpt>
      <trkpt lat="44.2696" lon="6.15873">
        <ele>1789.15</ele>
        <time>2013-05-09T13:48:54Z</time>
      </trkpt>
      <trkpt lat="44.2696" lon="6.1587">
        <ele>1790.59</ele>
        <time>2013-05-09T13:48:56Z</time>
      </trkpt>
      <trkpt lat="44.2696" lon="6.15855">
        <ele>1790.11</ele>
        <time>2013-05-09T13:49:09Z</time>
      </trkpt>
      <trkpt lat="44.26959" lon="6.15851">
        <ele>1790.11</ele>
        <time>2013-05-09T13:49:13Z</time>
      </trkpt>
      <trkpt lat="44.26959" lon="6.15848">
        <ele>1792.52</ele>
        <time>2013-05-09T13:49:16Z</time>
      </trkpt>
      <trkpt lat="44.26959" lon="6.15827">
        <ele>1789.63</ele>
        <time>2013-05-09T13:49:32Z</time>
      </trkpt>
      <trkpt lat="44.26959" lon="6.15826">
        <ele>1788.19</ele>
        <time>2013-05-09T13:49:33Z</time>
      </trkpt>
      <trkpt lat="44.26958" lon="6.1581">
        <ele>1786.27</ele>
        <time>2013-05-09T13:49:47Z</time>
      </trkpt>
      <trkpt lat="44.26956" lon="6.15796">
        <ele>1784.34</ele>
        <time>2013-05-09T13:49:59Z</time>
      </trkpt>
      <trkpt lat="44.26957" lon="6.15794">
        <ele>1783.38</ele>
        <time>2013-05-09T13:50:01Z</time>
      </trkpt>
      <trkpt lat="44.26954" lon="6.15778">
        <ele>1782.9</ele>
        <time>2013-05-09T13:50:13Z</time>
      </trkpt>
      <trkpt lat="44.26954" lon="6.15777">
        <ele>1781.94</ele>
        <time>2013-05-09T13:50:14Z</time>
      </trkpt>
      <trkpt lat="44.26951" lon="6.15765">
        <ele>1781.46</ele>
        <time>2013-05-09T13:50:23Z</time>
      </trkpt>
      <trkpt lat="44.2695" lon="6.15758">
        <ele>1781.46</ele>
        <time>2013-05-09T13:50:28Z</time>
      </trkpt>
      <trkpt lat="44.26949" lon="6.15738">
        <ele>1779.06</ele>
        <time>2013-05-09T13:50:43Z</time>
      </trkpt>
      <trkpt lat="44.26948" lon="6.15734">
        <ele>1779.06</ele>
        <time>2013-05-09T13:50:46Z</time>
      </trkpt>
      <trkpt lat="44.26946" lon="6.15713">
        <ele>1779.06</ele>
        <time>2013-05-09T13:51:01Z</time>
      </trkpt>
      <trkpt lat="44.26946" lon="6.15709">
        <ele>1779.54</ele>
        <time>2013-05-09T13:51:04Z</time>
      </trkpt>
      <trkpt lat="44.26945" lon="6.1569">
        <ele>1777.13</ele>
        <time>2013-05-09T13:51:18Z</time>
      </trkpt>
      <trkpt lat="44.26944" lon="6.15683">
        <ele>1776.17</ele>
        <time>2013-05-09T13:51:23Z</time>
      </trkpt>
      <trkpt lat="44.26944" lon="6.1567">
        <ele>1775.21</ele>
        <time>2013-05-09T13:51:36Z</time>
      </trkpt>
      <trkpt lat="44.26944" lon="6.15667">
        <ele>1775.69</ele>
        <time>2013-05-09T13:51:39Z</time>
      </trkpt>
      <trkpt lat="44.26943" lon="6.15662">
        <ele>1774.73</ele>
        <time>2013-05-09T13:51:43Z</time>
      </trkpt>
      <trkpt lat="44.26941" lon="6.15648">
        <ele>1775.21</ele>
        <time>2013-05-09T13:51:58Z</time>
      </trkpt>
      <trkpt lat="44.26941" lon="6.15645">
        <ele>1772.81</ele>
        <time>2013-05-09T13:52:00Z</time>
      </trkpt>
      <trkpt lat="44.26936" lon="6.15629">
        <ele>1773.77</ele>
        <time>2013-05-09T13:52:12Z</time>
      </trkpt>
      <trkpt lat="44.26938" lon="6.15613">
        <ele>1773.29</ele>
        <time>2013-05-09T13:52:26Z</time>
      </trkpt>
      <trkpt lat="44.26938" lon="6.15612">
        <ele>1773.77</ele>
        <time>2013-05-09T13:52:31Z</time>
      </trkpt>
      <trkpt lat="44.26933" lon="6.156">
        <ele>1771.37</ele>
        <time>2013-05-09T13:52:45Z</time>
      </trkpt>
      <trkpt lat="44.2693" lon="6.15595">
        <ele>1769.92</ele>
        <time>2013-05-09T13:52:56Z</time>
      </trkpt>
      <trkpt lat="44.2693" lon="6.15595">
        <ele>1769.92</ele>
        <time>2013-05-09T13:52:57Z</time>
      </trkpt>
      <trkpt lat="44.26929" lon="6.15592">
        <ele>1769.44</ele>
        <time>2013-05-09T13:53:13Z</time>
      </trkpt>
      <trkpt lat="44.26929" lon="6.15592">
        <ele>1769.44</ele>
        <time>2013-05-09T13:53:41Z</time>
      </trkpt>
      <trkpt lat="44.26929" lon="6.15585">
        <ele>1766.08</ele>
        <time>2013-05-09T13:53:52Z</time>
      </trkpt>
      <trkpt lat="44.26931" lon="6.15579">
        <ele>1764.64</ele>
        <time>2013-05-09T13:53:58Z</time>
      </trkpt>
      <trkpt lat="44.26929" lon="6.15573">
        <ele>1764.16</ele>
        <time>2013-05-09T13:54:02Z</time>
      </trkpt>
      <trkpt lat="44.26925" lon="6.1556">
        <ele>1760.31</ele>
        <time>2013-05-09T13:54:13Z</time>
      </trkpt>
      <trkpt lat="44.26923" lon="6.15547">
        <ele>1758.39</ele>
        <time>2013-05-09T13:54:25Z</time>
      </trkpt>
      <trkpt lat="44.26921" lon="6.15545">
        <ele>1757.91</ele>
        <time>2013-05-09T13:54:50Z</time>
      </trkpt>
      <trkpt lat="44.26921" lon="6.15545">
        <ele>1756.95</ele>
        <time>2013-05-09T13:55:13Z</time>
      </trkpt>
      <trkpt lat="44.26923" lon="6.15544">
        <ele>1755.99</ele>
        <time>2013-05-09T13:55:36Z</time>
      </trkpt>
      <trkpt lat="44.26921" lon="6.15546">
        <ele>1756.47</ele>
        <time>2013-05-09T13:56:02Z</time>
      </trkpt>
      <trkpt lat="44.26922" lon="6.15543">
        <ele>1756.95</ele>
        <time>2013-05-09T13:56:44Z</time>
      </trkpt>
      <trkpt lat="44.26922" lon="6.15542">
        <ele>1755.5</ele>
        <time>2013-05-09T13:57:24Z</time>
      </trkpt>
      <trkpt lat="44.26917" lon="6.15545">
        <ele>1756.47</ele>
        <time>2013-05-09T13:58:04Z</time>
      </trkpt>
      <trkpt lat="44.26919" lon="6.15543">
        <ele>1756.95</ele>
        <time>2013-05-09T13:58:38Z</time>
      </trkpt>
      <trkpt lat="44.26919" lon="6.15546">
        <ele>1755.99</ele>
        <time>2013-05-09T13:59:14Z</time>
      </trkpt>
      <trkpt lat="44.26918" lon="6.15548">
        <ele>1758.39</ele>
        <time>2013-05-09T13:59:41Z</time>
      </trkpt>
      <trkpt lat="44.26921" lon="6.15544">
        <ele>1756.95</ele>
        <time>2013-05-09T14:00:04Z</time>
      </trkpt>
      <trkpt lat="44.26918" lon="6.15544">
        <ele>1755.99</ele>
        <time>2013-05-09T14:00:12Z</time>
      </trkpt>
      <trkpt lat="44.2692" lon="6.15546">
        <ele>1755.99</ele>
        <time>2013-05-09T14:00:39Z</time>
      </trkpt>
      <trkpt lat="44.26913" lon="6.15549">
        <ele>1753.58</ele>
        <time>2013-05-09T14:00:55Z</time>
      </trkpt>
      <trkpt lat="44.2691" lon="6.15546">
        <ele>1753.58</ele>
        <time>2013-05-09T14:01:00Z</time>
      </trkpt>
      <trkpt lat="44.26908" lon="6.1554">
        <ele>1752.14</ele>
        <time>2013-05-09T14:01:17Z</time>
      </trkpt>
      <trkpt lat="44.26907" lon="6.15531">
        <ele>1749.74</ele>
        <time>2013-05-09T14:01:25Z</time>
      </trkpt>
      <trkpt lat="44.26905" lon="6.1552">
        <ele>1748.78</ele>
        <time>2013-05-09T14:01:35Z</time>
      </trkpt>
      <trkpt lat="44.26902" lon="6.15514">
        <ele>1747.33</ele>
        <time>2013-05-09T14:01:41Z</time>
      </trkpt>
      <trkpt lat="44.26899" lon="6.15496">
        <ele>1746.85</ele>
        <time>2013-05-09T14:01:53Z</time>
      </trkpt>
      <trkpt lat="44.26895" lon="6.15476">
        <ele>1744.45</ele>
        <time>2013-05-09T14:02:06Z</time>
      </trkpt>
      <trkpt lat="44.26894" lon="6.15475">
        <ele>1743.97</ele>
        <time>2013-05-09T14:02:07Z</time>
      </trkpt>
      <trkpt lat="44.26883" lon="6.1546">
        <ele>1744.45</ele>
        <time>2013-05-09T14:02:21Z</time>
      </trkpt>
      <trkpt lat="44.26877" lon="6.15439">
        <ele>1744.93</ele>
        <time>2013-05-09T14:02:36Z</time>
      </trkpt>
      <trkpt lat="44.26876" lon="6.1542">
        <ele>1743.97</ele>
        <time>2013-05-09T14:02:48Z</time>
      </trkpt>
      <trkpt lat="44.26874" lon="6.15415">
        <ele>1743.97</ele>
        <time>2013-05-09T14:02:55Z</time>
      </trkpt>
      <trkpt lat="44.2687" lon="6.15389">
        <ele>1744.93</ele>
        <time>2013-05-09T14:03:12Z</time>
      </trkpt>
      <trkpt lat="44.26868" lon="6.15376">
        <ele>1746.85</ele>
        <time>2013-05-09T14:03:21Z</time>
      </trkpt>
      <trkpt lat="44.26866" lon="6.15369">
        <ele>1746.85</ele>
        <time>2013-05-09T14:03:30Z</time>
      </trkpt>
      <trkpt lat="44.26865" lon="6.15352">
        <ele>1747.33</ele>
        <time>2013-05-09T14:03:43Z</time>
      </trkpt>
      <trkpt lat="44.26868" lon="6.15334">
        <ele>1748.78</ele>
        <time>2013-05-09T14:03:56Z</time>
      </trkpt>
      <trkpt lat="44.26867" lon="6.15319">
        <ele>1748.78</ele>
        <time>2013-05-09T14:04:09Z</time>
      </trkpt>
      <trkpt lat="44.26868" lon="6.15303">
        <ele>1748.29</ele>
        <time>2013-05-09T14:04:23Z</time>
      </trkpt>
      <trkpt lat="44.26869" lon="6.15297">
        <ele>1748.78</ele>
        <time>2013-05-09T14:04:29Z</time>
      </trkpt>
      <trkpt lat="44.26869" lon="6.15291">
        <ele>1744.45</ele>
        <time>2013-05-09T14:04:35Z</time>
      </trkpt>
      <trkpt lat="44.26869" lon="6.1529">
        <ele>1745.89</ele>
        <time>2013-05-09T14:04:36Z</time>
      </trkpt>
      <trkpt lat="44.26869" lon="6.15288">
        <ele>1745.89</ele>
        <time>2013-05-09T14:04:38Z</time>
      </trkpt>
      <trkpt lat="44.26868" lon="6.15281">
        <ele>1745.41</ele>
        <time>2013-05-09T14:04:43Z</time>
      </trkpt>
      <trkpt lat="44.26868" lon="6.15258">
        <ele>1745.89</ele>
        <time>2013-05-09T14:04:58Z</time>
      </trkpt>
      <trkpt lat="44.26867" lon="6.15252">
        <ele>1745.41</ele>
        <time>2013-05-09T14:05:03Z</time>
      </trkpt>
      <trkpt lat="44.26867" lon="6.1524">
        <ele>1744.93</ele>
        <time>2013-05-09T14:05:11Z</time>
      </trkpt>
      <trkpt lat="44.26867" lon="6.15231">
        <ele>1744.45</ele>
        <time>2013-05-09T14:05:17Z</time>
      </trkpt>
      <trkpt lat="44.26864" lon="6.15208">
        <ele>1743.97</ele>
        <time>2013-05-09T14:05:32Z</time>
      </trkpt>
      <trkpt lat="44.26864" lon="6.15203">
        <ele>1743.01</ele>
        <time>2013-05-09T14:05:37Z</time>
      </trkpt>
      <trkpt lat="44.26861" lon="6.15192">
        <ele>1744.93</ele>
        <time>2013-05-09T14:05:51Z</time>
      </trkpt>
      <trkpt lat="44.2686" lon="6.15179">
        <ele>1743.49</ele>
        <time>2013-05-09T14:06:06Z</time>
      </trkpt>
      <trkpt lat="44.26861" lon="6.15165">
        <ele>1744.45</ele>
        <time>2013-05-09T14:06:20Z</time>
      </trkpt>
      <trkpt lat="44.26858" lon="6.1516">
        <ele>1744.45</ele>
        <time>2013-05-09T14:06:31Z</time>
      </trkpt>
      <trkpt lat="44.2686" lon="6.1515">
        <ele>1745.89</ele>
        <time>2013-05-09T14:06:38Z</time>
      </trkpt>
      <trkpt lat="44.2686" lon="6.15138">
        <ele>1747.33</ele>
        <time>2013-05-09T14:06:47Z</time>
      </trkpt>
      <trkpt lat="44.26857" lon="6.15124">
        <ele>1746.37</ele>
        <time>2013-05-09T14:07:01Z</time>
      </trkpt>
      <trkpt lat="44.26855" lon="6.15117">
        <ele>1746.37</ele>
        <time>2013-05-09T14:07:15Z</time>
      </trkpt>
      <trkpt lat="44.2685" lon="6.15098">
        <ele>1747.33</ele>
        <time>2013-05-09T14:07:30Z</time>
      </trkpt>
      <trkpt lat="44.26848" lon="6.15083">
        <ele>1747.81</ele>
        <time>2013-05-09T14:07:44Z</time>
      </trkpt>
      <trkpt lat="44.26848" lon="6.15085">
        <ele>1747.81</ele>
        <time>2013-05-09T14:08:12Z</time>
      </trkpt>
      <trkpt lat="44.26846" lon="6.15069">
        <ele>1747.33</ele>
        <time>2013-05-09T14:08:24Z</time>
      </trkpt>
      <trkpt lat="44.26845" lon="6.15055">
        <ele>1745.89</ele>
        <time>2013-05-09T14:08:33Z</time>
      </trkpt>
      <trkpt lat="44.26844" lon="6.15049">
        <ele>1745.89</ele>
        <time>2013-05-09T14:08:37Z</time>
      </trkpt>
      <trkpt lat="44.26845" lon="6.15045">
        <ele>1745.89</ele>
        <time>2013-05-09T14:08:40Z</time>
      </trkpt>
      <trkpt lat="44.26844" lon="6.15042">
        <ele>1744.45</ele>
        <time>2013-05-09T14:08:42Z</time>
      </trkpt>
      <trkpt lat="44.26843" lon="6.1504">
        <ele>1746.37</ele>
        <time>2013-05-09T14:08:44Z</time>
      </trkpt>
      <trkpt lat="44.26839" lon="6.15039">
        <ele>1748.29</ele>
        <time>2013-05-09T14:08:50Z</time>
      </trkpt>
      <trkpt lat="44.26838" lon="6.15039">
        <ele>1747.33</ele>
        <time>2013-05-09T14:08:51Z</time>
      </trkpt>
      <trkpt lat="44.26835" lon="6.15039">
        <ele>1747.33</ele>
        <time>2013-05-09T14:09:13Z</time>
      </trkpt>
      <trkpt lat="44.26835" lon="6.15037">
        <ele>1747.33</ele>
        <time>2013-05-09T14:09:18Z</time>
      </trkpt>
      <trkpt lat="44.2684" lon="6.15015">
        <ele>1745.41</ele>
        <time>2013-05-09T14:09:32Z</time>
      </trkpt>
      <trkpt lat="44.2684" lon="6.1501">
        <ele>1745.41</ele>
        <time>2013-05-09T14:09:35Z</time>
      </trkpt>
      <trkpt lat="44.26841" lon="6.15008">
        <ele>1744.45</ele>
        <time>2013-05-09T14:09:37Z</time>
      </trkpt>
      <trkpt lat="44.2684" lon="6.1499">
        <ele>1747.33</ele>
        <time>2013-05-09T14:09:50Z</time>
      </trkpt>
      <trkpt lat="44.2684" lon="6.14974">
        <ele>1745.89</ele>
        <time>2013-05-09T14:10:03Z</time>
      </trkpt>
      <trkpt lat="44.26837" lon="6.14961">
        <ele>1745.89</ele>
        <time>2013-05-09T14:10:13Z</time>
      </trkpt>
      <trkpt lat="44.26837" lon="6.14959">
        <ele>1744.45</ele>
        <time>2013-05-09T14:10:29Z</time>
      </trkpt>
      <trkpt lat="44.26836" lon="6.14966">
        <ele>1743.49</ele>
        <time>2013-05-09T14:10:46Z</time>
      </trkpt>
      <trkpt lat="44.26835" lon="6.14964">
        <ele>1743.01</ele>
        <time>2013-05-09T14:10:57Z</time>
      </trkpt>
      <trkpt lat="44.26831" lon="6.14957">
        <ele>1743.49</ele>
        <time>2013-05-09T14:11:09Z</time>
      </trkpt>
      <trkpt lat="44.26827" lon="6.14948">
        <ele>1740.12</ele>
        <time>2013-05-09T14:11:19Z</time>
      </trkpt>
      <trkpt lat="44.26823" lon="6.14952">
        <ele>1738.2</ele>
        <time>2013-05-09T14:11:26Z</time>
      </trkpt>
      <trkpt lat="44.26822" lon="6.14954">
        <ele>1737.72</ele>
        <time>2013-05-09T14:11:28Z</time>
      </trkpt>
      <trkpt lat="44.26823" lon="6.14961">
        <ele>1737.24</ele>
        <time>2013-05-09T14:11:39Z</time>
      </trkpt>
      <trkpt lat="44.2682" lon="6.14971">
        <ele>1735.32</ele>
        <time>2013-05-09T14:11:51Z</time>
      </trkpt>
      <trkpt lat="44.26814" lon="6.14972">
        <ele>1732.43</ele>
        <time>2013-05-09T14:12:03Z</time>
      </trkpt>
      <trkpt lat="44.26808" lon="6.14966">
        <ele>1727.63</ele>
        <time>2013-05-09T14:12:15Z</time>
      </trkpt>
      <trkpt lat="44.26808" lon="6.14967">
        <ele>1728.11</ele>
        <time>2013-05-09T14:12:16Z</time>
      </trkpt>
      <trkpt lat="44.26806" lon="6.14972">
        <ele>1726.67</ele>
        <time>2013-05-09T14:12:20Z</time>
      </trkpt>
      <trkpt lat="44.26803" lon="6.14983">
        <ele>1723.78</ele>
        <time>2013-05-09T14:12:30Z</time>
      </trkpt>
      <trkpt lat="44.26799" lon="6.14997">
        <ele>1721.86</ele>
        <time>2013-05-09T14:12:39Z</time>
      </trkpt>
      <trkpt lat="44.26794" lon="6.15017">
        <ele>1718.01</ele>
        <time>2013-05-09T14:12:56Z</time>
      </trkpt>
      <trkpt lat="44.26792" lon="6.15025">
        <ele>1717.53</ele>
        <time>2013-05-09T14:13:01Z</time>
      </trkpt>
      <trkpt lat="44.26789" lon="6.15045">
        <ele>1714.65</ele>
        <time>2013-05-09T14:13:18Z</time>
      </trkpt>
      <trkpt lat="44.26784" lon="6.15041">
        <ele>1711.28</ele>
        <time>2013-05-09T14:13:32Z</time>
      </trkpt>
      <trkpt lat="44.26784" lon="6.1504">
        <ele>1711.76</ele>
        <time>2013-05-09T14:13:34Z</time>
      </trkpt>
      <trkpt lat="44.26779" lon="6.15024">
        <ele>1708.88</ele>
        <time>2013-05-09T14:13:46Z</time>
      </trkpt>
      <trkpt lat="44.26776" lon="6.1501">
        <ele>1707.44</ele>
        <time>2013-05-09T14:13:56Z</time>
      </trkpt>
      <trkpt lat="44.26772" lon="6.15">
        <ele>1704.55</ele>
        <time>2013-05-09T14:14:05Z</time>
      </trkpt>
      <trkpt lat="44.2677" lon="6.14995">
        <ele>1704.55</ele>
        <time>2013-05-09T14:14:08Z</time>
      </trkpt>
      <trkpt lat="44.26768" lon="6.1499">
        <ele>1702.15</ele>
        <time>2013-05-09T14:14:12Z</time>
      </trkpt>
      <trkpt lat="44.26764" lon="6.1498">
        <ele>1700.71</ele>
        <time>2013-05-09T14:14:20Z</time>
      </trkpt>
      <trkpt lat="44.26759" lon="6.14966">
        <ele>1697.34</ele>
        <time>2013-05-09T14:14:30Z</time>
      </trkpt>
      <trkpt lat="44.26755" lon="6.14957">
        <ele>1696.38</ele>
        <time>2013-05-09T14:14:37Z</time>
      </trkpt>
      <trkpt lat="44.26746" lon="6.14941">
        <ele>1692.54</ele>
        <time>2013-05-09T14:14:52Z</time>
      </trkpt>
      <trkpt lat="44.26745" lon="6.1494">
        <ele>1692.06</ele>
        <time>2013-05-09T14:14:53Z</time>
      </trkpt>
      <trkpt lat="44.26743" lon="6.14933">
        <ele>1690.62</ele>
        <time>2013-05-09T14:14:57Z</time>
      </trkpt>
      <trkpt lat="44.26734" lon="6.14913">
        <ele>1687.25</ele>
        <time>2013-05-09T14:15:12Z</time>
      </trkpt>
      <trkpt lat="44.26728" lon="6.14893">
        <ele>1686.29</ele>
        <time>2013-05-09T14:15:26Z</time>
      </trkpt>
      <trkpt lat="44.26727" lon="6.14891">
        <ele>1685.81</ele>
        <time>2013-05-09T14:15:28Z</time>
      </trkpt>
      <trkpt lat="44.26726" lon="6.14889">
        <ele>1685.81</ele>
        <time>2013-05-09T14:15:29Z</time>
      </trkpt>
      <trkpt lat="44.26719" lon="6.14876">
        <ele>1682.44</ele>
        <time>2013-05-09T14:15:41Z</time>
      </trkpt>
      <trkpt lat="44.2671" lon="6.14865">
        <ele>1678.12</ele>
        <time>2013-05-09T14:15:53Z</time>
      </trkpt>
      <trkpt lat="44.26701" lon="6.14847">
        <ele>1675.23</ele>
        <time>2013-05-09T14:16:07Z</time>
      </trkpt>
      <trkpt lat="44.26692" lon="6.14829">
        <ele>1672.35</ele>
        <time>2013-05-09T14:16:20Z</time>
      </trkpt>
      <trkpt lat="44.26692" lon="6.14827">
        <ele>1672.35</ele>
        <time>2013-05-09T14:16:21Z</time>
      </trkpt>
      <trkpt lat="44.26681" lon="6.14806">
        <ele>1668.51</ele>
        <time>2013-05-09T14:16:37Z</time>
      </trkpt>
      <trkpt lat="44.2668" lon="6.14805">
        <ele>1668.51</ele>
        <time>2013-05-09T14:16:38Z</time>
      </trkpt>
      <trkpt lat="44.26674" lon="6.14799">
        <ele>1666.58</ele>
        <time>2013-05-09T14:16:47Z</time>
      </trkpt>
      <trkpt lat="44.2667" lon="6.14783">
        <ele>1663.22</ele>
        <time>2013-05-09T14:16:58Z</time>
      </trkpt>
      <trkpt lat="44.26665" lon="6.14767">
        <ele>1661.78</ele>
        <time>2013-05-09T14:17:09Z</time>
      </trkpt>
      <trkpt lat="44.26661" lon="6.14756">
        <ele>1660.33</ele>
        <time>2013-05-09T14:17:18Z</time>
      </trkpt>
      <trkpt lat="44.26655" lon="6.14743">
        <ele>1657.93</ele>
        <time>2013-05-09T14:17:28Z</time>
      </trkpt>
      <trkpt lat="44.26653" lon="6.1474">
        <ele>1657.93</ele>
        <time>2013-05-09T14:17:31Z</time>
      </trkpt>
      <trkpt lat="44.26652" lon="6.14737">
        <ele>1656.97</ele>
        <time>2013-05-09T14:17:33Z</time>
      </trkpt>
      <trkpt lat="44.2665" lon="6.14735">
        <ele>1656.97</ele>
        <time>2013-05-09T14:17:50Z</time>
      </trkpt>
      <trkpt lat="44.26653" lon="6.14743">
        <ele>1657.45</ele>
        <time>2013-05-09T14:18:06Z</time>
      </trkpt>
      <trkpt lat="44.26652" lon="6.14755">
        <ele>1654.57</ele>
        <time>2013-05-09T14:18:20Z</time>
      </trkpt>
      <trkpt lat="44.26651" lon="6.1476">
        <ele>1653.6</ele>
        <time>2013-05-09T14:18:24Z</time>
      </trkpt>
      <trkpt lat="44.26645" lon="6.14768">
        <ele>1649.76</ele>
        <time>2013-05-09T14:18:36Z</time>
      </trkpt>
      <trkpt lat="44.26639" lon="6.14771">
        <ele>1646.4</ele>
        <time>2013-05-09T14:18:47Z</time>
      </trkpt>
      <trkpt lat="44.26637" lon="6.14773">
        <ele>1643.51</ele>
        <time>2013-05-09T14:18:51Z</time>
      </trkpt>
      <trkpt lat="44.26636" lon="6.14792">
        <ele>1643.03</ele>
        <time>2013-05-09T14:19:03Z</time>
      </trkpt>
      <trkpt lat="44.26637" lon="6.14797">
        <ele>1642.07</ele>
        <time>2013-05-09T14:19:05Z</time>
      </trkpt>
      <trkpt lat="44.26631" lon="6.1481">
        <ele>1639.19</ele>
        <time>2013-05-09T14:19:18Z</time>
      </trkpt>
      <trkpt lat="44.2663" lon="6.14812">
        <ele>1638.7</ele>
        <time>2013-05-09T14:19:20Z</time>
      </trkpt>
      <trkpt lat="44.26629" lon="6.14821">
        <ele>1636.3</ele>
        <time>2013-05-09T14:19:25Z</time>
      </trkpt>
      <trkpt lat="44.26632" lon="6.14834">
        <ele>1633.42</ele>
        <time>2013-05-09T14:19:33Z</time>
      </trkpt>
      <trkpt lat="44.26631" lon="6.14858">
        <ele>1630.53</ele>
        <time>2013-05-09T14:19:48Z</time>
      </trkpt>
      <trkpt lat="44.26631" lon="6.14859">
        <ele>1630.05</ele>
        <time>2013-05-09T14:19:49Z</time>
      </trkpt>
      <trkpt lat="44.2663" lon="6.14868">
        <ele>1628.61</ele>
        <time>2013-05-09T14:19:54Z</time>
      </trkpt>
      <trkpt lat="44.26627" lon="6.14872">
        <ele>1627.17</ele>
        <time>2013-05-09T14:19:57Z</time>
      </trkpt>
      <trkpt lat="44.26626" lon="6.14871">
        <ele>1626.69</ele>
        <time>2013-05-09T14:19:58Z</time>
      </trkpt>
      <trkpt lat="44.26617" lon="6.14864">
        <ele>1622.36</ele>
        <time>2013-05-09T14:20:06Z</time>
      </trkpt>
      <trkpt lat="44.26616" lon="6.14863">
        <ele>1623.32</ele>
        <time>2013-05-09T14:20:07Z</time>
      </trkpt>
      <trkpt lat="44.26614" lon="6.14862">
        <ele>1621.4</ele>
        <time>2013-05-09T14:20:09Z</time>
      </trkpt>
      <trkpt lat="44.26607" lon="6.14859">
        <ele>1619</ele>
        <time>2013-05-09T14:20:15Z</time>
      </trkpt>
      <trkpt lat="44.26599" lon="6.14863">
        <ele>1616.59</ele>
        <time>2013-05-09T14:20:26Z</time>
      </trkpt>
      <trkpt lat="44.26594" lon="6.14865">
        <ele>1612.75</ele>
        <time>2013-05-09T14:20:38Z</time>
      </trkpt>
      <trkpt lat="44.26592" lon="6.1486">
        <ele>1612.75</ele>
        <time>2013-05-09T14:20:42Z</time>
      </trkpt>
      <trkpt lat="44.26584" lon="6.14855">
        <ele>1610.35</ele>
        <time>2013-05-09T14:20:52Z</time>
      </trkpt>
      <trkpt lat="44.26579" lon="6.14841">
        <ele>1609.38</ele>
        <time>2013-05-09T14:21:02Z</time>
      </trkpt>
      <trkpt lat="44.26571" lon="6.14819">
        <ele>1606.98</ele>
        <time>2013-05-09T14:21:18Z</time>
      </trkpt>
      <trkpt lat="44.2657" lon="6.14816">
        <ele>1605.54</ele>
        <time>2013-05-09T14:21:20Z</time>
      </trkpt>
      <trkpt lat="44.26564" lon="6.14806">
        <ele>1604.1</ele>
        <time>2013-05-09T14:21:25Z</time>
      </trkpt>
      <trkpt lat="44.26556" lon="6.14807">
        <ele>1601.21</ele>
        <time>2013-05-09T14:21:35Z</time>
      </trkpt>
      <trkpt lat="44.26553" lon="6.14816">
        <ele>1597.85</ele>
        <time>2013-05-09T14:21:45Z</time>
      </trkpt>
      <trkpt lat="44.26542" lon="6.14796">
        <ele>1595.93</ele>
        <time>2013-05-09T14:22:01Z</time>
      </trkpt>
      <trkpt lat="44.26538" lon="6.14788">
        <ele>1592.08</ele>
        <time>2013-05-09T14:22:08Z</time>
      </trkpt>
      <trkpt lat="44.26532" lon="6.14767">
        <ele>1591.6</ele>
        <time>2013-05-09T14:22:19Z</time>
      </trkpt>
      <trkpt lat="44.26526" lon="6.14759">
        <ele>1589.68</ele>
        <time>2013-05-09T14:22:25Z</time>
      </trkpt>
      <trkpt lat="44.26523" lon="6.14759">
        <ele>1589.2</ele>
        <time>2013-05-09T14:22:27Z</time>
      </trkpt>
      <trkpt lat="44.26511" lon="6.14759">
        <ele>1584.87</ele>
        <time>2013-05-09T14:22:33Z</time>
      </trkpt>
      <trkpt lat="44.26502" lon="6.14752">
        <ele>1582.95</ele>
        <time>2013-05-09T14:22:39Z</time>
      </trkpt>
      <trkpt lat="44.265" lon="6.14751">
        <ele>1583.43</ele>
        <time>2013-05-09T14:22:41Z</time>
      </trkpt>
      <trkpt lat="44.26498" lon="6.14751">
        <ele>1582.95</ele>
        <time>2013-05-09T14:22:43Z</time>
      </trkpt>
      <trkpt lat="44.26493" lon="6.14785">
        <ele>1580.06</ele>
        <time>2013-05-09T14:23:04Z</time>
      </trkpt>
      <trkpt lat="44.26485" lon="6.14808">
        <ele>1576.7</ele>
        <time>2013-05-09T14:23:17Z</time>
      </trkpt>
      <trkpt lat="44.26481" lon="6.14818">
        <ele>1573.33</ele>
        <time>2013-05-09T14:23:23Z</time>
      </trkpt>
      <trkpt lat="44.26471" lon="6.14845">
        <ele>1572.85</ele>
        <time>2013-05-09T14:23:40Z</time>
      </trkpt>
      <trkpt lat="44.26465" lon="6.14869">
        <ele>1570.93</ele>
        <time>2013-05-09T14:23:52Z</time>
      </trkpt>
      <trkpt lat="44.26458" lon="6.14886">
        <ele>1567.57</ele>
        <time>2013-05-09T14:24:03Z</time>
      </trkpt>
      <trkpt lat="44.26457" lon="6.14888">
        <ele>1567.57</ele>
        <time>2013-05-09T14:24:05Z</time>
      </trkpt>
      <trkpt lat="44.26454" lon="6.14884">
        <ele>1567.09</ele>
        <time>2013-05-09T14:24:21Z</time>
      </trkpt>
      <trkpt lat="44.26447" lon="6.14887">
        <ele>1566.12</ele>
        <time>2013-05-09T14:24:45Z</time>
      </trkpt>
      <trkpt lat="44.26446" lon="6.14888">
        <ele>1562.76</ele>
        <time>2013-05-09T14:24:55Z</time>
      </trkpt>
      <trkpt lat="44.2644" lon="6.14882">
        <ele>1559.4</ele>
        <time>2013-05-09T14:25:05Z</time>
      </trkpt>
      <trkpt lat="44.26437" lon="6.14883">
        <ele>1557.47</ele>
        <time>2013-05-09T14:25:10Z</time>
      </trkpt>
      <trkpt lat="44.26426" lon="6.14881">
        <ele>1554.59</ele>
        <time>2013-05-09T14:25:19Z</time>
      </trkpt>
      <trkpt lat="44.26422" lon="6.1488">
        <ele>1551.22</ele>
        <time>2013-05-09T14:25:26Z</time>
      </trkpt>
      <trkpt lat="44.2642" lon="6.1488">
        <ele>1551.71</ele>
        <time>2013-05-09T14:25:27Z</time>
      </trkpt>
      <trkpt lat="44.2641" lon="6.14882">
        <ele>1547.86</ele>
        <time>2013-05-09T14:25:38Z</time>
      </trkpt>
      <trkpt lat="44.26398" lon="6.14895">
        <ele>1544.98</ele>
        <time>2013-05-09T14:25:52Z</time>
      </trkpt>
      <trkpt lat="44.26397" lon="6.14899">
        <ele>1544.01</ele>
        <time>2013-05-09T14:25:57Z</time>
      </trkpt>
      <trkpt lat="44.26386" lon="6.14894">
        <ele>1541.61</ele>
        <time>2013-05-09T14:26:13Z</time>
      </trkpt>
      <trkpt lat="44.26379" lon="6.14893">
        <ele>1540.17</ele>
        <time>2013-05-09T14:26:18Z</time>
      </trkpt>
      <trkpt lat="44.26376" lon="6.14895">
        <ele>1538.73</ele>
        <time>2013-05-09T14:26:22Z</time>
      </trkpt>
      <trkpt lat="44.26371" lon="6.14897">
        <ele>1534.88</ele>
        <time>2013-05-09T14:26:30Z</time>
      </trkpt>
      <trkpt lat="44.26365" lon="6.149">
        <ele>1531.52</ele>
        <time>2013-05-09T14:26:41Z</time>
      </trkpt>
      <trkpt lat="44.26363" lon="6.14912">
        <ele>1528.63</ele>
        <time>2013-05-09T14:26:50Z</time>
      </trkpt>
      <trkpt lat="44.26358" lon="6.14921">
        <ele>1526.23</ele>
        <time>2013-05-09T14:26:56Z</time>
      </trkpt>
      <trkpt lat="44.26357" lon="6.14922">
        <ele>1527.67</ele>
        <time>2013-05-09T14:26:57Z</time>
      </trkpt>
      <trkpt lat="44.26354" lon="6.14925">
        <ele>1527.67</ele>
        <time>2013-05-09T14:27:01Z</time>
      </trkpt>
      <trkpt lat="44.26353" lon="6.14926">
        <ele>1527.19</ele>
        <time>2013-05-09T14:27:02Z</time>
      </trkpt>
      <trkpt lat="44.2635" lon="6.14927">
        <ele>1526.23</ele>
        <time>2013-05-09T14:27:04Z</time>
      </trkpt>
      <trkpt lat="44.26348" lon="6.14927">
        <ele>1525.75</ele>
        <time>2013-05-09T14:27:07Z</time>
      </trkpt>
      <trkpt lat="44.26346" lon="6.14925">
        <ele>1525.75</ele>
        <time>2013-05-09T14:27:09Z</time>
      </trkpt>
      <trkpt lat="44.2634" lon="6.14906">
        <ele>1522.87</ele>
        <time>2013-05-09T14:27:22Z</time>
      </trkpt>
      <trkpt lat="44.26335" lon="6.14904">
        <ele>1521.42</ele>
        <time>2013-05-09T14:27:27Z</time>
      </trkpt>
      <trkpt lat="44.2632" lon="6.14909">
        <ele>1519.5</ele>
        <time>2013-05-09T14:27:36Z</time>
      </trkpt>
      <trkpt lat="44.26302" lon="6.14909">
        <ele>1517.58</ele>
        <time>2013-05-09T14:27:51Z</time>
      </trkpt>
      <trkpt lat="44.263" lon="6.14899">
        <ele>1517.58</ele>
        <time>2013-05-09T14:28:06Z</time>
      </trkpt>
      <trkpt lat="44.26298" lon="6.149">
        <ele>1510.85</ele>
        <time>2013-05-09T14:28:09Z</time>
      </trkpt>
      <trkpt lat="44.26297" lon="6.149">
        <ele>1521.9</ele>
        <time>2013-05-09T14:28:10Z</time>
      </trkpt>
      <trkpt lat="44.26297" lon="6.149">
        <ele>1518.06</ele>
        <time>2013-05-09T14:28:11Z</time>
      </trkpt>
      <trkpt lat="44.26297" lon="6.149">
        <ele>1516.62</ele>
        <time>2013-05-09T14:28:13Z</time>
      </trkpt>
      <trkpt lat="44.26297" lon="6.14904">
        <ele>1516.62</ele>
        <time>2013-05-09T14:28:46Z</time>
      </trkpt>
      <trkpt lat="44.26299" lon="6.14902">
        <ele>1516.14</ele>
        <time>2013-05-09T14:29:20Z</time>
      </trkpt>
      <trkpt lat="44.26296" lon="6.14905">
        <ele>1516.62</ele>
        <time>2013-05-09T14:29:54Z</time>
      </trkpt>
      <trkpt lat="44.26295" lon="6.14892">
        <ele>1516.62</ele>
        <time>2013-05-09T14:30:12Z</time>
      </trkpt>
      <trkpt lat="44.26281" lon="6.14877">
        <ele>1514.69</ele>
        <time>2013-05-09T14:30:30Z</time>
      </trkpt>
      <trkpt lat="44.26273" lon="6.14855">
        <ele>1514.21</ele>
        <time>2013-05-09T14:30:43Z</time>
      </trkpt>
      <trkpt lat="44.26272" lon="6.14837">
        <ele>1513.73</ele>
        <time>2013-05-09T14:30:56Z</time>
      </trkpt>
      <trkpt lat="44.26262" lon="6.14838">
        <ele>1510.85</ele>
        <time>2013-05-09T14:31:06Z</time>
      </trkpt>
      <trkpt lat="44.26256" lon="6.14826">
        <ele>1508.45</ele>
        <time>2013-05-09T14:31:14Z</time>
      </trkpt>
      <trkpt lat="44.26254" lon="6.14823">
        <ele>1507.48</ele>
        <time>2013-05-09T14:31:16Z</time>
      </trkpt>
      <trkpt lat="44.26249" lon="6.14826">
        <ele>1506.04</ele>
        <time>2013-05-09T14:31:22Z</time>
      </trkpt>
      <trkpt lat="44.26242" lon="6.14831">
        <ele>1503.16</ele>
        <time>2013-05-09T14:31:32Z</time>
      </trkpt>
      <trkpt lat="44.26234" lon="6.14825">
        <ele>1499.79</ele>
        <time>2013-05-09T14:31:40Z</time>
      </trkpt>
      <trkpt lat="44.26223" lon="6.14826">
        <ele>1497.39</ele>
        <time>2013-05-09T14:31:51Z</time>
      </trkpt>
      <trkpt lat="44.26213" lon="6.14833">
        <ele>1494.99</ele>
        <time>2013-05-09T14:32:05Z</time>
      </trkpt>
      <trkpt lat="44.26208" lon="6.14837">
        <ele>1491.14</ele>
        <time>2013-05-09T14:32:13Z</time>
      </trkpt>
      <trkpt lat="44.26204" lon="6.14837">
        <ele>1492.1</ele>
        <time>2013-05-09T14:32:16Z</time>
      </trkpt>
      <trkpt lat="44.26196" lon="6.14833">
        <ele>1490.66</ele>
        <time>2013-05-09T14:32:23Z</time>
      </trkpt>
      <trkpt lat="44.26186" lon="6.14846">
        <ele>1489.22</ele>
        <time>2013-05-09T14:32:35Z</time>
      </trkpt>
      <trkpt lat="44.26175" lon="6.14845">
        <ele>1487.3</ele>
        <time>2013-05-09T14:32:49Z</time>
      </trkpt>
      <trkpt lat="44.26174" lon="6.14845">
        <ele>1486.34</ele>
        <time>2013-05-09T14:32:50Z</time>
      </trkpt>
      <trkpt lat="44.26161" lon="6.14841">
        <ele>1484.41</ele>
        <time>2013-05-09T14:33:03Z</time>
      </trkpt>
      <trkpt lat="44.26158" lon="6.14834">
        <ele>1484.41</ele>
        <time>2013-05-09T14:33:08Z</time>
      </trkpt>
      <trkpt lat="44.26152" lon="6.14822">
        <ele>1482.01</ele>
        <time>2013-05-09T14:33:20Z</time>
      </trkpt>
      <trkpt lat="44.26143" lon="6.14828">
        <ele>1480.09</ele>
        <time>2013-05-09T14:33:29Z</time>
      </trkpt>
      <trkpt lat="44.26142" lon="6.14837">
        <ele>1478.16</ele>
        <time>2013-05-09T14:33:34Z</time>
      </trkpt>
      <trkpt lat="44.26136" lon="6.14847">
        <ele>1474.32</ele>
        <time>2013-05-09T14:33:43Z</time>
      </trkpt>
      <trkpt lat="44.26129" lon="6.14862">
        <ele>1472.88</ele>
        <time>2013-05-09T14:33:56Z</time>
      </trkpt>
      <trkpt lat="44.26118" lon="6.14868">
        <ele>1469.03</ele>
        <time>2013-05-09T14:34:11Z</time>
      </trkpt>
      <trkpt lat="44.26116" lon="6.14866">
        <ele>1469.99</ele>
        <time>2013-05-09T14:34:13Z</time>
      </trkpt>
      <trkpt lat="44.26114" lon="6.14862">
        <ele>1468.55</ele>
        <time>2013-05-09T14:34:17Z</time>
      </trkpt>
      <trkpt lat="44.26113" lon="6.14857">
        <ele>1468.07</ele>
        <time>2013-05-09T14:34:21Z</time>
      </trkpt>
      <trkpt lat="44.2611" lon="6.14849">
        <ele>1467.11</ele>
        <time>2013-05-09T14:34:27Z</time>
      </trkpt>
      <trkpt lat="44.26107" lon="6.14845">
        <ele>1466.63</ele>
        <time>2013-05-09T14:34:30Z</time>
      </trkpt>
      <trkpt lat="44.261" lon="6.14845">
        <ele>1464.71</ele>
        <time>2013-05-09T14:34:37Z</time>
      </trkpt>
      <trkpt lat="44.26099" lon="6.14844">
        <ele>1463.74</ele>
        <time>2013-05-09T14:34:39Z</time>
      </trkpt>
      <trkpt lat="44.26091" lon="6.14847">
        <ele>1459.9</ele>
        <time>2013-05-09T14:34:51Z</time>
      </trkpt>
      <trkpt lat="44.2609" lon="6.14847">
        <ele>1460.38</ele>
        <time>2013-05-09T14:34:52Z</time>
      </trkpt>
      <trkpt lat="44.26085" lon="6.14848">
        <ele>1457.5</ele>
        <time>2013-05-09T14:34:59Z</time>
      </trkpt>
      <trkpt lat="44.26075" lon="6.14846">
        <ele>1454.61</ele>
        <time>2013-05-09T14:35:10Z</time>
      </trkpt>
      <trkpt lat="44.26074" lon="6.14844">
        <ele>1455.09</ele>
        <time>2013-05-09T14:35:11Z</time>
      </trkpt>
      <trkpt lat="44.26056" lon="6.14831">
        <ele>1452.21</ele>
        <time>2013-05-09T14:35:28Z</time>
      </trkpt>
      <trkpt lat="44.26049" lon="6.14829">
        <ele>1450.29</ele>
        <time>2013-05-09T14:35:34Z</time>
      </trkpt>
      <trkpt lat="44.26035" lon="6.14828">
        <ele>1447.4</ele>
        <time>2013-05-09T14:35:49Z</time>
      </trkpt>
      <trkpt lat="44.26032" lon="6.14829">
        <ele>1447.4</ele>
        <time>2013-05-09T14:35:52Z</time>
      </trkpt>
      <trkpt lat="44.2602" lon="6.14834">
        <ele>1444.04</ele>
        <time>2013-05-09T14:36:04Z</time>
      </trkpt>
      <trkpt lat="44.26016" lon="6.14837">
        <ele>1443.56</ele>
        <time>2013-05-09T14:36:09Z</time>
      </trkpt>
      <trkpt lat="44.26008" lon="6.14841">
        <ele>1443.56</ele>
        <time>2013-05-09T14:36:16Z</time>
      </trkpt>
      <trkpt lat="44.25991" lon="6.14849">
        <ele>1439.71</ele>
        <time>2013-05-09T14:36:31Z</time>
      </trkpt>
      <trkpt lat="44.25977" lon="6.14854">
        <ele>1437.79</ele>
        <time>2013-05-09T14:36:44Z</time>
      </trkpt>
      <trkpt lat="44.25965" lon="6.14856">
        <ele>1435.87</ele>
        <time>2013-05-09T14:36:53Z</time>
      </trkpt>
      <trkpt lat="44.25952" lon="6.14865">
        <ele>1433.46</ele>
        <time>2013-05-09T14:37:07Z</time>
      </trkpt>
      <trkpt lat="44.25946" lon="6.14862">
        <ele>1432.98</ele>
        <time>2013-05-09T14:37:26Z</time>
      </trkpt>
      <trkpt lat="44.2595" lon="6.14871">
        <ele>1432.98</ele>
        <time>2013-05-09T14:37:55Z</time>
      </trkpt>
      <trkpt lat="44.25946" lon="6.14878">
        <ele>1432.98</ele>
        <time>2013-05-09T14:38:24Z</time>
      </trkpt>
      <trkpt lat="44.25946" lon="6.14874">
        <ele>1432.5</ele>
        <time>2013-05-09T14:38:48Z</time>
      </trkpt>
      <trkpt lat="44.25952" lon="6.14866">
        <ele>1433.46</ele>
        <time>2013-05-09T14:39:20Z</time>
      </trkpt>
      <trkpt lat="44.25948" lon="6.14866">
        <ele>1432.5</ele>
        <time>2013-05-09T14:39:44Z</time>
      </trkpt>
      <trkpt lat="44.25932" lon="6.14863">
        <ele>1430.1</ele>
        <time>2013-05-09T14:39:58Z</time>
      </trkpt>
      <trkpt lat="44.25919" lon="6.14872">
        <ele>1427.7</ele>
        <time>2013-05-09T14:40:09Z</time>
      </trkpt>
      <trkpt lat="44.25916" lon="6.1487">
        <ele>1426.25</ele>
        <time>2013-05-09T14:40:14Z</time>
      </trkpt>
      <trkpt lat="44.25903" lon="6.14867">
        <ele>1425.29</ele>
        <time>2013-05-09T14:40:25Z</time>
      </trkpt>
      <trkpt lat="44.259" lon="6.14861">
        <ele>1423.37</ele>
        <time>2013-05-09T14:40:30Z</time>
      </trkpt>
      <trkpt lat="44.25892" lon="6.14869">
        <ele>1421.93</ele>
        <time>2013-05-09T14:40:45Z</time>
      </trkpt>
      <trkpt lat="44.25891" lon="6.14873">
        <ele>1421.93</ele>
        <time>2013-05-09T14:41:05Z</time>
      </trkpt>
      <trkpt lat="44.25893" lon="6.1487">
        <ele>1421.45</ele>
        <time>2013-05-09T14:41:30Z</time>
      </trkpt>
      <trkpt lat="44.25886" lon="6.1488">
        <ele>1421.93</ele>
        <time>2013-05-09T14:41:38Z</time>
      </trkpt>
      <trkpt lat="44.25886" lon="6.14882">
        <ele>1420.49</ele>
        <time>2013-05-09T14:41:56Z</time>
      </trkpt>
      <trkpt lat="44.25886" lon="6.14881">
        <ele>1419.52</ele>
        <time>2013-05-09T14:42:03Z</time>
      </trkpt>
      <trkpt lat="44.25887" lon="6.14904">
        <ele>1420</ele>
        <time>2013-05-09T14:42:18Z</time>
      </trkpt>
      <trkpt lat="44.25891" lon="6.14925">
        <ele>1419.52</ele>
        <time>2013-05-09T14:42:32Z</time>
      </trkpt>
      <trkpt lat="44.25898" lon="6.14948">
        <ele>1420</ele>
        <time>2013-05-09T14:42:46Z</time>
      </trkpt>
      <trkpt lat="44.25904" lon="6.14963">
        <ele>1420.97</ele>
        <time>2013-05-09T14:42:58Z</time>
      </trkpt>
      <trkpt lat="44.25906" lon="6.14966">
        <ele>1420.97</ele>
        <time>2013-05-09T14:43:01Z</time>
      </trkpt>
      <trkpt lat="44.25924" lon="6.14984">
        <ele>1418.56</ele>
        <time>2013-05-09T14:43:18Z</time>
      </trkpt>
      <trkpt lat="44.25928" lon="6.14986">
        <ele>1418.56</ele>
        <time>2013-05-09T14:43:21Z</time>
      </trkpt>
      <trkpt lat="44.25934" lon="6.14994">
        <ele>1418.56</ele>
        <time>2013-05-09T14:43:28Z</time>
      </trkpt>
      <trkpt lat="44.25949" lon="6.1501">
        <ele>1416.64</ele>
        <time>2013-05-09T14:43:44Z</time>
      </trkpt>
      <trkpt lat="44.25957" lon="6.15024">
        <ele>1414.72</ele>
        <time>2013-05-09T14:43:57Z</time>
      </trkpt>
      <trkpt lat="44.25971" lon="6.15034">
        <ele>1413.28</ele>
        <time>2013-05-09T14:44:12Z</time>
      </trkpt>
      <trkpt lat="44.25974" lon="6.15041">
        <ele>1413.28</ele>
        <time>2013-05-09T14:44:16Z</time>
      </trkpt>
      <trkpt lat="44.25978" lon="6.15064">
        <ele>1411.83</ele>
        <time>2013-05-09T14:44:31Z</time>
      </trkpt>
      <trkpt lat="44.25976" lon="6.15094">
        <ele>1409.91</ele>
        <time>2013-05-09T14:44:49Z</time>
      </trkpt>
      <trkpt lat="44.25975" lon="6.15097">
        <ele>1409.43</ele>
        <time>2013-05-09T14:44:51Z</time>
      </trkpt>
      <trkpt lat="44.25972" lon="6.151">
        <ele>1409.91</ele>
        <time>2013-05-09T14:44:54Z</time>
      </trkpt>
      <trkpt lat="44.25954" lon="6.15102">
        <ele>1407.03</ele>
        <time>2013-05-09T14:45:09Z</time>
      </trkpt>
      <trkpt lat="44.25952" lon="6.15099">
        <ele>1407.51</ele>
        <time>2013-05-09T14:45:12Z</time>
      </trkpt>
      <trkpt lat="44.25946" lon="6.15093">
        <ele>1405.58</ele>
        <time>2013-05-09T14:45:18Z</time>
      </trkpt>
      <trkpt lat="44.25935" lon="6.1508">
        <ele>1404.62</ele>
        <time>2013-05-09T14:45:33Z</time>
      </trkpt>
      <trkpt lat="44.25923" lon="6.15065">
        <ele>1402.7</ele>
        <time>2013-05-09T14:45:49Z</time>
      </trkpt>
      <trkpt lat="44.25922" lon="6.15064">
        <ele>1404.14</ele>
        <time>2013-05-09T14:45:50Z</time>
      </trkpt>
      <trkpt lat="44.25908" lon="6.15057">
        <ele>1402.22</ele>
        <time>2013-05-09T14:46:04Z</time>
      </trkpt>
      <trkpt lat="44.25894" lon="6.15051">
        <ele>1400.3</ele>
        <time>2013-05-09T14:46:18Z</time>
      </trkpt>
      <trkpt lat="44.25881" lon="6.15044">
        <ele>1398.37</ele>
        <time>2013-05-09T14:46:35Z</time>
      </trkpt>
      <trkpt lat="44.25861" lon="6.15034">
        <ele>1396.93</ele>
        <time>2013-05-09T14:46:53Z</time>
      </trkpt>
      <trkpt lat="44.25839" lon="6.15031">
        <ele>1394.05</ele>
        <time>2013-05-09T14:47:09Z</time>
      </trkpt>
      <trkpt lat="44.25819" lon="6.15031">
        <ele>1393.09</ele>
        <time>2013-05-09T14:47:26Z</time>
      </trkpt>
      <trkpt lat="44.25815" lon="6.15029">
        <ele>1391.65</ele>
        <time>2013-05-09T14:47:30Z</time>
      </trkpt>
      <trkpt lat="44.25806" lon="6.15026">
        <ele>1391.65</ele>
        <time>2013-05-09T14:47:37Z</time>
      </trkpt>
      <trkpt lat="44.2579" lon="6.15024">
        <ele>1389.24</ele>
        <time>2013-05-09T14:47:53Z</time>
      </trkpt>
      <trkpt lat="44.25774" lon="6.15028">
        <ele>1387.8</ele>
        <time>2013-05-09T14:48:05Z</time>
      </trkpt>
      <trkpt lat="44.25753" lon="6.15036">
        <ele>1385.4</ele>
        <time>2013-05-09T14:48:21Z</time>
      </trkpt>
      <trkpt lat="44.25752" lon="6.15037">
        <ele>1385.4</ele>
        <time>2013-05-09T14:48:22Z</time>
      </trkpt>
      <trkpt lat="44.25733" lon="6.15033">
        <ele>1384.44</ele>
        <time>2013-05-09T14:48:38Z</time>
      </trkpt>
      <trkpt lat="44.25727" lon="6.15031">
        <ele>1381.07</ele>
        <time>2013-05-09T14:48:43Z</time>
      </trkpt>
      <trkpt lat="44.25712" lon="6.15029">
        <ele>1381.55</ele>
        <time>2013-05-09T14:48:54Z</time>
      </trkpt>
      <trkpt lat="44.2569" lon="6.15026">
        <ele>1381.55</ele>
        <time>2013-05-09T14:49:10Z</time>
      </trkpt>
      <trkpt lat="44.25672" lon="6.15009">
        <ele>1380.11</ele>
        <time>2013-05-09T14:49:26Z</time>
      </trkpt>
      <trkpt lat="44.25656" lon="6.14995">
        <ele>1379.63</ele>
        <time>2013-05-09T14:49:41Z</time>
      </trkpt>
      <trkpt lat="44.25648" lon="6.14991">
        <ele>1379.15</ele>
        <time>2013-05-09T14:49:47Z</time>
      </trkpt>
      <trkpt lat="44.25629" lon="6.14989">
        <ele>1377.23</ele>
        <time>2013-05-09T14:50:03Z</time>
      </trkpt>
      <trkpt lat="44.25607" lon="6.15001">
        <ele>1374.34</ele>
        <time>2013-05-09T14:50:24Z</time>
      </trkpt>
      <trkpt lat="44.25601" lon="6.15017">
        <ele>1372.9</ele>
        <time>2013-05-09T14:50:34Z</time>
      </trkpt>
      <trkpt lat="44.25599" lon="6.1504">
        <ele>1370.02</ele>
        <time>2013-05-09T14:50:51Z</time>
      </trkpt>
      <trkpt lat="44.25597" lon="6.1506">
        <ele>1367.61</ele>
        <time>2013-05-09T14:51:07Z</time>
      </trkpt>
      <trkpt lat="44.25595" lon="6.15073">
        <ele>1364.73</ele>
        <time>2013-05-09T14:51:19Z</time>
      </trkpt>
      <trkpt lat="44.25595" lon="6.15099">
        <ele>1362.81</ele>
        <time>2013-05-09T14:51:35Z</time>
      </trkpt>
      <trkpt lat="44.25595" lon="6.15112">
        <ele>1361.36</ele>
        <time>2013-05-09T14:51:41Z</time>
      </trkpt>
      <trkpt lat="44.25595" lon="6.15139">
        <ele>1358.96</ele>
        <time>2013-05-09T14:51:57Z</time>
      </trkpt>
      <trkpt lat="44.25593" lon="6.15165">
        <ele>1357.52</ele>
        <time>2013-05-09T14:52:13Z</time>
      </trkpt>
      <trkpt lat="44.25591" lon="6.15191">
        <ele>1354.15</ele>
        <time>2013-05-09T14:52:29Z</time>
      </trkpt>
      <trkpt lat="44.2559" lon="6.15198">
        <ele>1354.15</ele>
        <time>2013-05-09T14:52:34Z</time>
      </trkpt>
      <trkpt lat="44.25589" lon="6.15226">
        <ele>1352.23</ele>
        <time>2013-05-09T14:52:52Z</time>
      </trkpt>
      <trkpt lat="44.25586" lon="6.15232">
        <ele>1350.31</ele>
        <time>2013-05-09T14:52:56Z</time>
      </trkpt>
      <trkpt lat="44.25585" lon="6.15234">
        <ele>1350.79</ele>
        <time>2013-05-09T14:52:58Z</time>
      </trkpt>
      <trkpt lat="44.25581" lon="6.15246">
        <ele>1350.31</ele>
        <time>2013-05-09T14:53:06Z</time>
      </trkpt>
      <trkpt lat="44.25578" lon="6.15261">
        <ele>1348.39</ele>
        <time>2013-05-09T14:53:15Z</time>
      </trkpt>
      <trkpt lat="44.25576" lon="6.15278">
        <ele>1346.46</ele>
        <time>2013-05-09T14:53:28Z</time>
      </trkpt>
      <trkpt lat="44.25574" lon="6.1528">
        <ele>1345.98</ele>
        <time>2013-05-09T14:53:32Z</time>
      </trkpt>
      <trkpt lat="44.25571" lon="6.15284">
        <ele>1345.5</ele>
        <time>2013-05-09T14:53:35Z</time>
      </trkpt>
      <trkpt lat="44.25569" lon="6.15288">
        <ele>1345.5</ele>
        <time>2013-05-09T14:53:39Z</time>
      </trkpt>
      <trkpt lat="44.25558" lon="6.15309">
        <ele>1343.58</ele>
        <time>2013-05-09T14:53:57Z</time>
      </trkpt>
      <trkpt lat="44.25558" lon="6.15316">
        <ele>1343.58</ele>
        <time>2013-05-09T14:54:02Z</time>
      </trkpt>
      <trkpt lat="44.25557" lon="6.1533">
        <ele>1343.58</ele>
        <time>2013-05-09T14:54:10Z</time>
      </trkpt>
      <trkpt lat="44.25563" lon="6.15361">
        <ele>1341.18</ele>
        <time>2013-05-09T14:54:26Z</time>
      </trkpt>
      <trkpt lat="44.25565" lon="6.15359">
        <ele>1341.66</ele>
        <time>2013-05-09T14:54:32Z</time>
      </trkpt>
      <trkpt lat="44.25562" lon="6.15354">
        <ele>1340.7</ele>
        <time>2013-05-09T14:54:38Z</time>
      </trkpt>
      <trkpt lat="44.25562" lon="6.15353">
        <ele>1339.73</ele>
        <time>2013-05-09T14:54:39Z</time>
      </trkpt>
      <trkpt lat="44.25563" lon="6.15348">
        <ele>1342.14</ele>
        <time>2013-05-09T14:54:42Z</time>
      </trkpt>
      <trkpt lat="44.25562" lon="6.15319">
        <ele>1340.22</ele>
        <time>2013-05-09T14:55:00Z</time>
      </trkpt>
      <trkpt lat="44.25557" lon="6.15308">
        <ele>1341.18</ele>
        <time>2013-05-09T14:55:08Z</time>
      </trkpt>
      <trkpt lat="44.25553" lon="6.15298">
        <ele>1339.73</ele>
        <time>2013-05-09T14:55:16Z</time>
      </trkpt>
      <trkpt lat="44.2555" lon="6.15289">
        <ele>1339.73</ele>
        <time>2013-05-09T14:55:22Z</time>
      </trkpt>
      <trkpt lat="44.25545" lon="6.15281">
        <ele>1339.73</ele>
        <time>2013-05-09T14:55:29Z</time>
      </trkpt>
      <trkpt lat="44.25542" lon="6.1527">
        <ele>1339.73</ele>
        <time>2013-05-09T14:55:36Z</time>
      </trkpt>
      <trkpt lat="44.25541" lon="6.15264">
        <ele>1338.29</ele>
        <time>2013-05-09T14:55:39Z</time>
      </trkpt>
      <trkpt lat="44.25541" lon="6.15253">
        <ele>1338.77</ele>
        <time>2013-05-09T14:55:44Z</time>
      </trkpt>
      <trkpt lat="44.25537" lon="6.15224">
        <ele>1337.81</ele>
        <time>2013-05-09T14:56:01Z</time>
      </trkpt>
      <trkpt lat="44.25538" lon="6.15221">
        <ele>1338.29</ele>
        <time>2013-05-09T14:56:02Z</time>
      </trkpt>
      <trkpt lat="44.25549" lon="6.15209">
        <ele>1337.33</ele>
        <time>2013-05-09T14:56:04Z</time>
      </trkpt>
      <trkpt lat="44.25621" lon="6.15104">
        <ele>1336.85</ele>
        <time>2013-05-09T14:56:21Z</time>
      </trkpt>
      <trkpt lat="44.2561" lon="6.15085">
        <ele>1335.89</ele>
        <time>2013-05-09T14:56:35Z</time>
      </trkpt>
      <trkpt lat="44.25609" lon="6.15079">
        <ele>1337.33</ele>
        <time>2013-05-09T14:56:38Z</time>
      </trkpt>
      <trkpt lat="44.25605" lon="6.1507">
        <ele>1337.33</ele>
        <time>2013-05-09T14:56:44Z</time>
      </trkpt>
      <trkpt lat="44.25592" lon="6.15054">
        <ele>1336.85</ele>
        <time>2013-05-09T14:56:58Z</time>
      </trkpt>
      <trkpt lat="44.25591" lon="6.15053">
        <ele>1335.89</ele>
        <time>2013-05-09T14:56:59Z</time>
      </trkpt>
      <trkpt lat="44.25583" lon="6.15035">
        <ele>1335.41</ele>
        <time>2013-05-09T14:57:11Z</time>
      </trkpt>
      <trkpt lat="44.25583" lon="6.15032">
        <ele>1336.37</ele>
        <time>2013-05-09T14:57:13Z</time>
      </trkpt>
      <trkpt lat="44.25573" lon="6.1501">
        <ele>1335.41</ele>
        <time>2013-05-09T14:57:29Z</time>
      </trkpt>
      <trkpt lat="44.25571" lon="6.14994">
        <ele>1335.41</ele>
        <time>2013-05-09T14:57:39Z</time>
      </trkpt>
      <trkpt lat="44.25514" lon="6.15011">
        <ele>1333.97</ele>
        <time>2013-05-09T14:57:55Z</time>
      </trkpt>
      <trkpt lat="44.25493" lon="6.15024">
        <ele>1332.04</ele>
        <time>2013-05-09T14:57:58Z</time>
      </trkpt>
      <trkpt lat="44.25468" lon="6.15028">
        <ele>1329.64</ele>
        <time>2013-05-09T14:58:14Z</time>
      </trkpt>
      <trkpt lat="44.2545" lon="6.15021">
        <ele>1327.24</ele>
        <time>2013-05-09T14:58:30Z</time>
      </trkpt>
      <trkpt lat="44.2542" lon="6.15011">
        <ele>1324.35</ele>
        <time>2013-05-09T14:58:48Z</time>
      </trkpt>
      <trkpt lat="44.25406" lon="6.15012">
        <ele>1322.43</ele>
        <time>2013-05-09T14:59:01Z</time>
      </trkpt>
      <trkpt lat="44.25404" lon="6.15013">
        <ele>1321.95</ele>
        <time>2013-05-09T14:59:03Z</time>
      </trkpt>
      <trkpt lat="44.25397" lon="6.15012">
        <ele>1321.95</ele>
        <time>2013-05-09T14:59:09Z</time>
      </trkpt>
      <trkpt lat="44.25376" lon="6.14994">
        <ele>1320.51</ele>
        <time>2013-05-09T14:59:26Z</time>
      </trkpt>
      <trkpt lat="44.25372" lon="6.1499">
        <ele>1318.1</ele>
        <time>2013-05-09T14:59:29Z</time>
      </trkpt>
      <trkpt lat="44.25359" lon="6.14988">
        <ele>1317.62</ele>
        <time>2013-05-09T14:59:40Z</time>
      </trkpt>
      <trkpt lat="44.25341" lon="6.14999">
        <ele>1313.78</ele>
        <time>2013-05-09T14:59:58Z</time>
      </trkpt>
      <trkpt lat="44.25341" lon="6.15">
        <ele>1312.82</ele>
        <time>2013-05-09T15:00:00Z</time>
      </trkpt>
      <trkpt lat="44.25338" lon="6.15007">
        <ele>1310.9</ele>
        <time>2013-05-09T15:00:06Z</time>
      </trkpt>
      <trkpt lat="44.25335" lon="6.1501">
        <ele>1309.45</ele>
        <time>2013-05-09T15:00:09Z</time>
      </trkpt>
      <trkpt lat="44.25319" lon="6.15014">
        <ele>1308.97</ele>
        <time>2013-05-09T15:00:23Z</time>
      </trkpt>
      <trkpt lat="44.25311" lon="6.15018">
        <ele>1306.57</ele>
        <time>2013-05-09T15:00:29Z</time>
      </trkpt>
      <trkpt lat="44.25308" lon="6.15018">
        <ele>1308.01</ele>
        <time>2013-05-09T15:00:32Z</time>
      </trkpt>
      <trkpt lat="44.25294" lon="6.15018">
        <ele>1306.09</ele>
        <time>2013-05-09T15:00:49Z</time>
      </trkpt>
      <trkpt lat="44.25285" lon="6.15025">
        <ele>1304.17</ele>
        <time>2013-05-09T15:01:00Z</time>
      </trkpt>
      <trkpt lat="44.25282" lon="6.15028">
        <ele>1303.69</ele>
        <time>2013-05-09T15:01:02Z</time>
      </trkpt>
      <trkpt lat="44.25266" lon="6.15047">
        <ele>1299.84</ele>
        <time>2013-05-09T15:01:19Z</time>
      </trkpt>
      <trkpt lat="44.25249" lon="6.15065">
        <ele>1298.4</ele>
        <time>2013-05-09T15:01:34Z</time>
      </trkpt>
      <trkpt lat="44.25239" lon="6.1507">
        <ele>1298.88</ele>
        <time>2013-05-09T15:01:49Z</time>
      </trkpt>
      <trkpt lat="44.25231" lon="6.15072">
        <ele>1298.4</ele>
        <time>2013-05-09T15:02:10Z</time>
      </trkpt>
      <trkpt lat="44.25226" lon="6.15076">
        <ele>1298.4</ele>
        <time>2013-05-09T15:02:35Z</time>
      </trkpt>
      <trkpt lat="44.25222" lon="6.15085">
        <ele>1298.4</ele>
        <time>2013-05-09T15:03:02Z</time>
      </trkpt>
      <trkpt lat="44.2522" lon="6.1508">
        <ele>1298.88</ele>
        <time>2013-05-09T15:03:31Z</time>
      </trkpt>
      <trkpt lat="44.25214" lon="6.15072">
        <ele>1298.88</ele>
        <time>2013-05-09T15:03:54Z</time>
      </trkpt>
      <trkpt lat="44.2521" lon="6.15081">
        <ele>1298.4</ele>
        <time>2013-05-09T15:04:20Z</time>
      </trkpt>
      <trkpt lat="44.2521" lon="6.1508">
        <ele>1298.88</ele>
        <time>2013-05-09T15:04:46Z</time>
      </trkpt>
      <trkpt lat="44.25209" lon="6.15089">
        <ele>1298.88</ele>
        <time>2013-05-09T15:04:56Z</time>
      </trkpt>
      <trkpt lat="44.25199" lon="6.15076">
        <ele>1297.44</ele>
        <time>2013-05-09T15:05:11Z</time>
      </trkpt>
      <trkpt lat="44.25189" lon="6.15093">
        <ele>1295.03</ele>
        <time>2013-05-09T15:05:27Z</time>
      </trkpt>
      <trkpt lat="44.25184" lon="6.15113">
        <ele>1292.15</ele>
        <time>2013-05-09T15:05:41Z</time>
      </trkpt>
      <trkpt lat="44.25178" lon="6.15129">
        <ele>1288.78</ele>
        <time>2013-05-09T15:05:55Z</time>
      </trkpt>
      <trkpt lat="44.25169" lon="6.15143">
        <ele>1287.82</ele>
        <time>2013-05-09T15:06:07Z</time>
      </trkpt>
      <trkpt lat="44.25162" lon="6.15137">
        <ele>1286.86</ele>
        <time>2013-05-09T15:06:15Z</time>
      </trkpt>
      <trkpt lat="44.25162" lon="6.1512">
        <ele>1283.98</ele>
        <time>2013-05-09T15:06:28Z</time>
      </trkpt>
      <trkpt lat="44.25173" lon="6.15097">
        <ele>1281.09</ele>
        <time>2013-05-09T15:06:43Z</time>
      </trkpt>
      <trkpt lat="44.25177" lon="6.1508">
        <ele>1281.57</ele>
        <time>2013-05-09T15:06:53Z</time>
      </trkpt>
      <trkpt lat="44.2518" lon="6.15067">
        <ele>1280.13</ele>
        <time>2013-05-09T15:07:08Z</time>
      </trkpt>
      <trkpt lat="44.25174" lon="6.15043">
        <ele>1279.17</ele>
        <time>2013-05-09T15:07:24Z</time>
      </trkpt>
      <trkpt lat="44.25173" lon="6.15025">
        <ele>1276.29</ele>
        <time>2013-05-09T15:07:38Z</time>
      </trkpt>
      <trkpt lat="44.25175" lon="6.15007">
        <ele>1274.36</ele>
        <time>2013-05-09T15:07:49Z</time>
      </trkpt>
      <trkpt lat="44.25174" lon="6.14997">
        <ele>1272.92</ele>
        <time>2013-05-09T15:07:55Z</time>
      </trkpt>
      <trkpt lat="44.25165" lon="6.1498">
        <ele>1270.04</ele>
        <time>2013-05-09T15:08:08Z</time>
      </trkpt>
      <trkpt lat="44.25149" lon="6.14969">
        <ele>1268.12</ele>
        <time>2013-05-09T15:08:25Z</time>
      </trkpt>
      <trkpt lat="44.25143" lon="6.14967">
        <ele>1266.19</ele>
        <time>2013-05-09T15:08:32Z</time>
      </trkpt>
      <trkpt lat="44.25132" lon="6.14943">
        <ele>1264.27</ele>
        <time>2013-05-09T15:08:48Z</time>
      </trkpt>
      <trkpt lat="44.25122" lon="6.14927">
        <ele>1260.91</ele>
        <time>2013-05-09T15:09:02Z</time>
      </trkpt>
      <trkpt lat="44.25109" lon="6.14907">
        <ele>1258.5</ele>
        <time>2013-05-09T15:09:17Z</time>
      </trkpt>
      <trkpt lat="44.25106" lon="6.1488">
        <ele>1254.66</ele>
        <time>2013-05-09T15:09:32Z</time>
      </trkpt>
      <trkpt lat="44.25106" lon="6.1487">
        <ele>1254.18</ele>
        <time>2013-05-09T15:09:38Z</time>
      </trkpt>
      <trkpt lat="44.25112" lon="6.14856">
        <ele>1250.81</ele>
        <time>2013-05-09T15:09:50Z</time>
      </trkpt>
      <trkpt lat="44.25121" lon="6.14831">
        <ele>1249.85</ele>
        <time>2013-05-09T15:10:05Z</time>
      </trkpt>
      <trkpt lat="44.25121" lon="6.14829">
        <ele>1249.85</ele>
        <time>2013-05-09T15:10:06Z</time>
      </trkpt>
      <trkpt lat="44.25119" lon="6.14818">
        <ele>1248.89</ele>
        <time>2013-05-09T15:10:23Z</time>
      </trkpt>
      <trkpt lat="44.25119" lon="6.14815">
        <ele>1250.81</ele>
        <time>2013-05-09T15:10:25Z</time>
      </trkpt>
      <trkpt lat="44.25118" lon="6.14812">
        <ele>1248.41</ele>
        <time>2013-05-09T15:10:29Z</time>
      </trkpt>
      <trkpt lat="44.25117" lon="6.14811">
        <ele>1250.81</ele>
        <time>2013-05-09T15:10:30Z</time>
      </trkpt>
      <trkpt lat="44.25115" lon="6.14809">
        <ele>1247.45</ele>
        <time>2013-05-09T15:10:33Z</time>
      </trkpt>
      <trkpt lat="44.25114" lon="6.14808">
        <ele>1251.29</ele>
        <time>2013-05-09T15:10:34Z</time>
      </trkpt>
      <trkpt lat="44.25104" lon="6.14793">
        <ele>1249.37</ele>
        <time>2013-05-09T15:10:48Z</time>
      </trkpt>
      <trkpt lat="44.25099" lon="6.1479">
        <ele>1249.37</ele>
        <time>2013-05-09T15:10:54Z</time>
      </trkpt>
      <trkpt lat="44.25088" lon="6.14782">
        <ele>1248.89</ele>
        <time>2013-05-09T15:11:05Z</time>
      </trkpt>
      <trkpt lat="44.25071" lon="6.1476">
        <ele>1247.45</ele>
        <time>2013-05-09T15:11:22Z</time>
      </trkpt>
      <trkpt lat="44.25059" lon="6.14739">
        <ele>1245.04</ele>
        <time>2013-05-09T15:11:36Z</time>
      </trkpt>
      <trkpt lat="44.25048" lon="6.14719">
        <ele>1244.08</ele>
        <time>2013-05-09T15:11:50Z</time>
      </trkpt>
      <trkpt lat="44.25038" lon="6.14691">
        <ele>1242.16</ele>
        <time>2013-05-09T15:12:06Z</time>
      </trkpt>
      <trkpt lat="44.25035" lon="6.14682">
        <ele>1240.72</ele>
        <time>2013-05-09T15:12:12Z</time>
      </trkpt>
      <trkpt lat="44.25026" lon="6.14665">
        <ele>1241.68</ele>
        <time>2013-05-09T15:12:20Z</time>
      </trkpt>
      <trkpt lat="44.25018" lon="6.14641">
        <ele>1240.24</ele>
        <time>2013-05-09T15:12:34Z</time>
      </trkpt>
      <trkpt lat="44.25004" lon="6.1462">
        <ele>1239.76</ele>
        <time>2013-05-09T15:12:49Z</time>
      </trkpt>
      <trkpt lat="44.24981" lon="6.14603">
        <ele>1238.32</ele>
        <time>2013-05-09T15:13:04Z</time>
      </trkpt>
      <trkpt lat="44.24973" lon="6.14587">
        <ele>1236.87</ele>
        <time>2013-05-09T15:13:18Z</time>
      </trkpt>
      <trkpt lat="44.2497" lon="6.14557">
        <ele>1236.39</ele>
        <time>2013-05-09T15:13:34Z</time>
      </trkpt>
      <trkpt lat="44.24969" lon="6.14555">
        <ele>1234.95</ele>
        <time>2013-05-09T15:13:35Z</time>
      </trkpt>
      <trkpt lat="44.24965" lon="6.14545">
        <ele>1235.91</ele>
        <time>2013-05-09T15:13:43Z</time>
      </trkpt>
      <trkpt lat="44.24939" lon="6.14518">
        <ele>1233.99</ele>
        <time>2013-05-09T15:14:02Z</time>
      </trkpt>
      <trkpt lat="44.24936" lon="6.14505">
        <ele>1233.51</ele>
        <time>2013-05-09T15:14:09Z</time>
      </trkpt>
      <trkpt lat="44.24925" lon="6.1448">
        <ele>1231.59</ele>
        <time>2013-05-09T15:14:24Z</time>
      </trkpt>
      <trkpt lat="44.24923" lon="6.14475">
        <ele>1231.59</ele>
        <time>2013-05-09T15:14:40Z</time>
      </trkpt>
      <trkpt lat="44.24916" lon="6.14465">
        <ele>1231.59</ele>
        <time>2013-05-09T15:14:57Z</time>
      </trkpt>
      <trkpt lat="44.24902" lon="6.14472">
        <ele>1231.11</ele>
        <time>2013-05-09T15:15:36Z</time>
      </trkpt>
      <trkpt lat="44.24899" lon="6.14477">
        <ele>1230.62</ele>
        <time>2013-05-09T15:16:01Z</time>
      </trkpt>
      <trkpt lat="44.24911" lon="6.14471">
        <ele>1231.11</ele>
        <time>2013-05-09T15:16:34Z</time>
      </trkpt>
      <trkpt lat="44.24908" lon="6.14459">
        <ele>1229.66</ele>
        <time>2013-05-09T15:16:50Z</time>
      </trkpt>
      <trkpt lat="44.24915" lon="6.14435">
        <ele>1227.74</ele>
        <time>2013-05-09T15:17:09Z</time>
      </trkpt>
      <trkpt lat="44.24917" lon="6.14426">
        <ele>1227.26</ele>
        <time>2013-05-09T15:17:15Z</time>
      </trkpt>
      <trkpt lat="44.24914" lon="6.14401">
        <ele>1227.26</ele>
        <time>2013-05-09T15:17:33Z</time>
      </trkpt>
      <trkpt lat="44.24923" lon="6.14382">
        <ele>1226.3</ele>
        <time>2013-05-09T15:17:43Z</time>
      </trkpt>
      <trkpt lat="44.24931" lon="6.14353">
        <ele>1225.34</ele>
        <time>2013-05-09T15:17:58Z</time>
      </trkpt>
      <trkpt lat="44.24933" lon="6.14341">
        <ele>1223.9</ele>
        <time>2013-05-09T15:18:04Z</time>
      </trkpt>
      <trkpt lat="44.24932" lon="6.14332">
        <ele>1223.42</ele>
        <time>2013-05-09T15:18:10Z</time>
      </trkpt>
      <trkpt lat="44.24927" lon="6.14308">
        <ele>1221.97</ele>
        <time>2013-05-09T15:18:27Z</time>
      </trkpt>
      <trkpt lat="44.24919" lon="6.14281">
        <ele>1221.97</ele>
        <time>2013-05-09T15:18:43Z</time>
      </trkpt>
      <trkpt lat="44.24913" lon="6.14269">
        <ele>1220.05</ele>
        <time>2013-05-09T15:18:51Z</time>
      </trkpt>
      <trkpt lat="44.24912" lon="6.14259">
        <ele>1220.05</ele>
        <time>2013-05-09T15:18:57Z</time>
      </trkpt>
      <trkpt lat="44.24906" lon="6.14237">
        <ele>1219.57</ele>
        <time>2013-05-09T15:19:11Z</time>
      </trkpt>
      <trkpt lat="44.24906" lon="6.14234">
        <ele>1217.65</ele>
        <time>2013-05-09T15:19:12Z</time>
      </trkpt>
      <trkpt lat="44.24906" lon="6.14233">
        <ele>1220.53</ele>
        <time>2013-05-09T15:19:13Z</time>
      </trkpt>
      <trkpt lat="44.249" lon="6.14226">
        <ele>1220.05</ele>
        <time>2013-05-09T15:19:21Z</time>
      </trkpt>
      <trkpt lat="44.24893" lon="6.14221">
        <ele>1220.05</ele>
        <time>2013-05-09T15:19:29Z</time>
      </trkpt>
      <trkpt lat="44.24861" lon="6.14216">
        <ele>1218.61</ele>
        <time>2013-05-09T15:19:56Z</time>
      </trkpt>
      <trkpt lat="44.24862" lon="6.14216">
        <ele>1219.57</ele>
        <time>2013-05-09T15:20:15Z</time>
      </trkpt>
      <trkpt lat="44.24901" lon="6.14208">
        <ele>1218.61</ele>
        <time>2013-05-09T15:20:40Z</time>
      </trkpt>
      <trkpt lat="44.24923" lon="6.14202">
        <ele>1219.09</ele>
        <time>2013-05-09T15:21:09Z</time>
      </trkpt>
      <trkpt lat="44.24926" lon="6.14203">
        <ele>1219.09</ele>
        <time>2013-05-09T15:21:37Z</time>
      </trkpt>
      <trkpt lat="44.24926" lon="6.14205">
        <ele>1219.09</ele>
        <time>2013-05-09T15:21:59Z</time>
      </trkpt>
      <trkpt lat="44.2493" lon="6.14207">
        <ele>1219.57</ele>
        <time>2013-05-09T15:22:13Z</time>
      </trkpt>
      <trkpt lat="44.24926" lon="6.14205">
        <ele>1219.57</ele>
        <time>2013-05-09T15:22:46Z</time>
      </trkpt>
      <trkpt lat="44.24926" lon="6.14203">
        <ele>1219.57</ele>
        <time>2013-05-09T15:23:07Z</time>
      </trkpt>
      <trkpt lat="44.24926" lon="6.14203">
        <ele>1219.09</ele>
        <time>2013-05-09T15:23:13Z</time>
      </trkpt>
    </trkseg>
  </trk>
</gpx>